[[{"header":{"parameterUnit":"m.s-1","parameterCategory":1,"la1":31.0,"la2":29.5877,"lo1":-88.7671,"lo2":-86.6584,"dy":0.0162,"dx":0.0185,"nx":115,"ny":88,"refTime":"2025-11-12T00:00:00:Z","depth":0,"parameterNumber":2,"parameterNumberName":"U-component_of_WINDS"},"data":[0.0,0.0,0.0,0.0,0.0,0.0,0.0,0.0,0.0,0.0,0.0,0.0,0.0,0.0,0.0,0.0,0.0,0.0,0.0,0.0,0.0,0.0,0.0,0.0,0.0,0.0,0.0,0.0,0.0,0.0,0.0,0.0,0.0,0.0,0.0,0.0,0.0,0.0,0.0,0.0,0.0,0.0,0.0,0.0,0.0,0.0,0.0,0.0,0.0,0.0,0.0,0.0,0.0,0.0,0.0,0.0,0.0,0.0,0.0,0.0,0.0,0.0,0.0,0.0,0.0,0.0,0.0,0.0,0.0,0.0,0.0,0.0,0.0,0.0,0.0,0.0,0.0,0.0,0.0,0.0,0.0,0.0,0.0,0.0,0.0,0.0,0.0,0.0,0.0,0.0,0.0,0.0,0.0,0.0,0.0,0.0,0.0,0.0,0.0,0.0,0.0,0.0,0.0,0.0,0.0,0.0,0.0,0.0,0.0,0.0,0.0,0.0,0.0,0.0,0.0,0.0,0.0,0.0,0.0,0.0,0.0,0.0,0.0,0.0,0.0,0.0,0.0,0.0,0.0,0.0,0.0,0.0,0.0,0.0,0.0,0.0,0.0,0.0,0.0,0.0,0.0,0.0,0.0,0.0,0.0,0.0,0.0,0.0,0.0,0.0,0.0,0.0,0.0,0.0,0.0,0.0,0.0,0.0,0.0,0.0,0.0,0.0,0.0,0.0,0.0,0.0,0.0,0.0,0.0,0.0,0.0,0.0,0.0,0.0,0.0,0.0,0.0,0.0,0.0,0.0,0.0,0.0,0.0,0.0,0.0,0.0,0.0,0.0,0.0,0.0,0.0,0.0,0.0,0.0,0.0,0.0,0.0,0.0,0.0,0.0,0.0,0.0,0.0,0.0,0.0,0.0,0.0,0.0,0.0,0.0,0.0,0.0,0.0,0.0,0.0,0.0,0.0,0.0,0.0,0.0,0.0,0.0,0.0,0.0,0.0,0.0,0.0,0.0,0.0,0.0,0.0,0.0,0.0,0.0,0.0,0.0,0.0,0.0,0.0,0.0,0.0,0.0,0.0,0.0,0.0,0.0,0.0,0.0,0.0,0.0,0.0,0.0,0.0,0.0,0.0,0.0,0.0,0.0,0.0,0.0,0.0,0.0,0.0,0.0,0.0,0.0,0.0,0.0,0.0,0.0,0.0,0.0,0.0,0.0,0.0,0.0,0.0,0.0,0.0,0.0,0.0,0.0,0.0,0.0,0.0,0.0,0.0,0.0,0.0,0.0,0.0,0.0,0.0,0.0,0.0,0.0,0.0,0.0,0.0,0.0,0.0,0.0,0.0,0.0,0.0,0.0,0.0,0.0,0.0,0.0,0.0,0.0,0.0,0.0,0.0,0.0,0.0,0.0,0.0,0.0,0.0,0.0,0.0,0.0,0.0,0.0,0.0,0.0,0.0,0.0,0.0,0.0,0.0,0.0,0.0,0.0,0.0,0.0,0.0,0.0,0.0,0.0,0.0,0.0,0.0,0.0,0.0,0.0,0.0,0.0,0.0,0.0,0.0,0.0,0.0,0.0,0.0,0.0,0.0,0.0,0.0,0.0,0.0,0.0,0.0,0.0,0.0,0.0,0.0,0.0,0.0,0.0,0.0,0.0,0.0,0.0,0.0,0.0,0.0,0.0,0.0,0.0,0.0,0.0,0.0,0.0,0.0,0.0,0.0,0.0,0.0,0.0,0.0,0.0,0.0,0.0,0.0,0.0,0.0,0.0,0.0,0.0,0.0,0.0,0.0,0.0,0.0,0.0,0.0,0.0,0.0,0.0,0.0,0.0,0.0,0.0,0.0,0.0,0.0,0.0,0.0,0.0,0.0,0.0,0.0,0.0,0.0,0.0,0.0,0.0,0.0,0.0,0.0,0.0,0.0,0.0,0.0,0.0,0.0,0.0,0.0,0.0,0.0,0.0,0.0,0.0,0.0,0.0,0.0,0.0,0.0,0.0,0.0,0.0,0.0,0.0,0.0,0.0,0.0,0.0,0.0,0.0,0.0,0.0,0.0,0.0,0.0,0.0,0.0,0.0,0.0,0.0,0.0,0.0,0.0,0.0,0.0,0.0,0.0,0.0,0.0,0.0,0.0,0.0,0.0,0.0,0.0,0.0,0.0,0.0,0.0,0.0,0.0,0.0,0.0,0.0,0.0,0.0,0.0,0.0,0.0,0.0,0.0,0.0,0.0,0.0,0.0,0.0,0.0,0.0,0.0,0.0,0.0,0.0,0.0,0.0,0.0,0.0,0.0,0.0,0.0,0.0,0.0,0.0,0.0,0.0,0.0,0.0,0.0,0.0,0.0,0.0,0.0,0.0,0.0,0.0,0.0,0.0,0.0,0.0,0.0,0.0,0.0,0.0,0.0,0.0,0.0,0.0,0.0,0.0,0.0,0.0,0.0,0.0,0.0,0.0,0.0,0.0,0.0,0.0,0.0,0.0,0.0,0.0,0.0,0.0,0.0,0.0,0.0,0.0,0.0,0.0,0.0,0.0,0.0,0.0,0.0,0.0,0.0,0.0,0.0,0.0,0.0,0.0,0.0,0.0,0.0,0.0,0.0,0.0,0.0,0.0,0.0,0.0,0.0,0.0,0.0,0.0,0.0,0.0,0.0,0.0,0.0,0.0,0.0,0.0,0.0,0.0,0.0,0.0,0.0,0.0,0.0,0.0,0.0,0.0,0.0,0.0,0.0,0.0,0.0,0.0,0.0,0.0,0.0,0.0,0.0,0.0,0.0,0.0,0.0,0.0,0.0,0.0,0.0,0.0,0.0,0.0,0.0,0.0,0.0,0.0,0.0,0.0,0.0,0.0,0.0,0.0,0.0,0.0,0.0,0.0,0.0,0.0,0.0,0.0,0.0,0.0,0.0,0.0,0.0,0.0,0.0,0.0,0.0,0.0,0.0,0.0,0.0,0.0,0.0,0.0,0.0,0.0,0.0,0.0,0.0,0.0,0.0,0.0,0.0,0.0,0.0,0.0,0.0,0.0,0.0,0.0,0.0,0.0,0.0,0.0,0.0,0.0,0.0,0.0,0.0,0.0,0.0,0.0,0.0,0.0,0.0,0.0,0.0,0.0,0.0,0.0,0.0,0.0,0.0,0.0,0.0,0.0,0.0,0.0,0.0,0.0,0.0,0.0,0.0,0.0,0.0,0.0,0.0,0.0,0.0,0.0,0.0,0.0,0.0,0.0,0.0,0.0,0.0,0.0,0.0,0.0,0.0,0.0,0.0,0.0,0.0,0.0,0.0,0.0,0.0,0.0,0.0,0.0,0.0,0.0,0.0,0.0,0.0,0.0,0.0,0.0,0.0,0.0,0.0,0.0,0.0,0.0,0.0,0.0,0.0,0.0,0.0,0.0,0.0,0.0,0.0,0.0,0.0,0.0,0.0,0.0,0.0,0.0,0.0,0.0,0.0,0.0,0.0,0.0,0.0,0.0,0.0,0.0,0.0,0.0,0.0,0.0,0.0,0.0,0.0,0.0,0.0,0.0,0.0,0.0,0.0,0.0,0.0,0.0,0.0,0.0,0.0,0.0,0.0,0.0,0.0,0.0,0.0,0.0,0.0,0.0,0.0,0.0,0.0,0.0,0.0,0.0,0.0,0.0,0.0,0.0,0.0,0.0,0.0,0.0,0.0,0.0,0.0,0.0,0.0,0.0,0.0,0.0,0.0,0.0,0.0,0.0,0.0,0.0,0.0,0.0,0.0,0.0,0.0,0.0,0.0,0.0,0.0,0.0,0.0,0.0,0.0,0.0,0.0,0.0,0.0,0.0,0.0,0.0,0.0,0.0,0.0,0.0,0.0,0.0,0.0,0.0,0.0,0.0,0.0,0.0,0.0,0.0,0.0,0.0,0.0,0.0,0.0,0.0,0.0,0.0,0.0,0.0,0.0,0.0,0.0,0.0,0.0,0.0,0.0,0.0,0.0,0.0,0.0,0.0,0.0,0.0,0.0,0.0,0.0,0.0,0.0,0.0,0.0,0.0,0.0,0.0,0.0,0.0,0.0,0.0,0.0,0.0,0.0,0.0,0.0,0.0,0.0,0.0,0.0,0.0,0.0,0.0,0.0,0.0,0.0,0.0,0.0,0.0,0.0,0.0,0.0,0.0,0.0,0.0,0.0,0.0,0.0,0.0,0.0,0.0,0.0,0.0,0.0,0.0,0.0,0.0,0.0,0.0,0.0,0.0,0.0,0.0,0.0,0.0,0.0,0.0,0.0,0.0,-3.6735,0.0,0.0,0.0,0.0,0.0,0.0,0.0,0.0,0.0,0.0,0.0,0.0,0.0,0.0,0.0,0.0,0.0,0.0,0.0,0.0,0.0,0.0,0.0,0.0,0.0,0.0,0.0,0.0,0.0,0.0,0.0,0.0,0.0,0.0,0.0,0.0,0.0,0.0,0.0,0.0,0.0,0.0,0.0,0.0,0.0,0.0,0.0,0.0,0.0,0.0,0.0,0.0,0.0,0.0,0.0,0.0,0.0,0.0,0.0,0.0,0.0,0.0,0.0,0.0,0.0,0.0,0.0,0.0,0.0,0.0,0.0,0.0,0.0,0.0,0.0,0.0,0.0,0.0,0.0,0.0,0.0,0.0,0.0,0.0,0.0,0.0,0.0,0.0,0.0,0.0,0.0,0.0,0.0,0.0,0.0,0.0,0.0,0.0,0.0,0.0,0.0,0.0,0.0,0.0,0.0,0.0,0.0,0.0,0.0,0.0,-4.0046,-3.9996,-3.8727,-3.7789,-3.7115,0.0,0.0,0.0,0.0,0.0,0.0,0.0,0.0,0.0,0.0,0.0,0.0,0.0,0.0,0.0,0.0,0.0,0.0,0.0,0.0,0.0,0.0,0.0,0.0,0.0,0.0,0.0,0.0,0.0,0.0,0.0,0.0,0.0,0.0,0.0,0.0,0.0,0.0,0.0,0.0,0.0,0.0,0.0,0.0,0.0,0.0,0.0,0.0,0.0,0.0,0.0,0.0,0.0,0.0,0.0,0.0,0.0,0.0,0.0,0.0,0.0,0.0,0.0,0.0,0.0,0.0,0.0,0.0,0.0,0.0,0.0,0.0,0.0,0.0,0.0,0.0,0.0,0.0,0.0,0.0,0.0,0.0,0.0,0.0,0.0,0.0,0.0,0.0,0.0,0.0,0.0,0.0,0.0,0.0,0.0,0.0,0.0,0.0,0.0,0.0,0.0,0.0,0.0,0.0,0.0,0.0,0.0,0.0,0.0,0.0,0.0,0.0,-3.9238,-3.7976,-3.6379,0.0,0.0,0.0,0.0,0.0,0.0,0.0,0.0,0.0,0.0,0.0,0.0,0.0,0.0,0.0,0.0,0.0,0.0,0.0,0.0,0.0,0.0,0.0,0.0,0.0,0.0,0.0,0.0,0.0,0.0,0.0,0.0,0.0,0.0,0.0,0.0,0.0,0.0,0.0,0.0,0.0,0.0,0.0,0.0,0.0,0.0,0.0,0.0,0.0,0.0,0.0,0.0,0.0,0.0,0.0,0.0,0.0,0.0,0.0,0.0,0.0,0.0,0.0,0.0,0.0,0.0,0.0,0.0,0.0,0.0,0.0,0.0,0.0,0.0,0.0,0.0,0.0,0.0,0.0,0.0,0.0,0.0,0.0,0.0,0.0,0.0,0.0,0.0,0.0,0.0,0.0,0.0,0.0,0.0,0.0,0.0,0.0,0.0,0.0,0.0,0.0,0.0,0.0,0.0,0.0,0.0,0.0,0.0,0.0,0.0,-4.0272,-4.0272,-3.9309,0.0,-3.3888,0.0,0.0,0.0,0.0,0.0,0.0,0.0,0.0,0.0,0.0,0.0,0.0,0.0,0.0,0.0,0.0,0.0,0.0,0.0,0.0,0.0,0.0,0.0,0.0,0.0,0.0,0.0,0.0,0.0,0.0,0.0,0.0,0.0,0.0,0.0,0.0,0.0,0.0,0.0,0.0,0.0,0.0,0.0,0.0,0.0,0.0,0.0,0.0,0.0,0.0,0.0,0.0,0.0,0.0,0.0,0.0,0.0,0.0,0.0,0.0,0.0,0.0,0.0,0.0,0.0,0.0,0.0,0.0,0.0,0.0,0.0,0.0,0.0,0.0,0.0,0.0,0.0,0.0,0.0,0.0,0.0,0.0,0.0,0.0,0.0,0.0,0.0,0.0,0.0,0.0,0.0,0.0,0.0,0.0,0.0,0.0,0.0,0.0,0.0,0.0,0.0,0.0,0.0,0.0,0.0,0.0,0.0,0.0,0.0,0.0,-4.032,-4.032,-3.8823,-3.6794,0.0,0.0,0.0,0.0,0.0,0.0,0.0,0.0,0.0,0.0,0.0,0.0,0.0,0.0,0.0,0.0,0.0,0.0,0.0,0.0,0.0,0.0,0.0,0.0,0.0,0.0,0.0,0.0,0.0,0.0,0.0,0.0,0.0,0.0,0.0,0.0,0.0,0.0,0.0,0.0,0.0,0.0,0.0,0.0,0.0,0.0,0.0,0.0,0.0,0.0,0.0,0.0,0.0,0.0,0.0,0.0,0.0,0.0,0.0,0.0,0.0,0.0,0.0,0.0,0.0,0.0,0.0,0.0,0.0,0.0,0.0,0.0,0.0,0.0,0.0,0.0,0.0,0.0,0.0,0.0,0.0,0.0,0.0,0.0,0.0,0.0,0.0,0.0,0.0,0.0,0.0,0.0,0.0,0.0,0.0,0.0,0.0,0.0,0.0,0.0,0.0,0.0,0.0,0.0,0.0,0.0,0.0,0.0,0.0,0.0,-4.032,0.0,-4.0187,-3.8471,-3.6604,-3.4708,0.0,0.0,0.0,0.0,0.0,0.0,0.0,0.0,0.0,0.0,0.0,0.0,0.0,0.0,0.0,0.0,0.0,0.0,0.0,0.0,0.0,0.0,0.0,0.0,0.0,0.0,0.0,0.0,0.0,0.0,0.0,0.0,0.0,0.0,0.0,0.0,0.0,0.0,0.0,0.0,0.0,0.0,0.0,0.0,0.0,0.0,0.0,0.0,0.0,0.0,0.0,0.0,0.0,0.0,0.0,0.0,0.0,0.0,0.0,0.0,0.0,0.0,0.0,0.0,0.0,0.0,0.0,0.0,0.0,0.0,0.0,0.0,0.0,0.0,0.0,0.0,0.0,0.0,0.0,0.0,0.0,0.0,0.0,0.0,0.0,0.0,0.0,0.0,0.0,0.0,0.0,0.0,0.0,0.0,0.0,0.0,0.0,0.0,0.0,0.0,0.0,0.0,0.0,0.0,0.0,0.0,0.0,0.0,0.0,-4.0301,-4.0263,-4.0148,-3.8442,-3.6634,0.0,0.0,0.0,0.0,0.0,0.0,0.0,0.0,0.0,0.0,0.0,0.0,0.0,0.0,0.0,0.0,0.0,0.0,0.0,0.0,0.0,0.0,0.0,0.0,0.0,0.0,0.0,0.0,0.0,0.0,0.0,0.0,0.0,0.0,0.0,0.0,0.0,0.0,0.0,0.0,0.0,0.0,0.0,0.0,0.0,0.0,0.0,0.0,0.0,0.0,0.0,0.0,0.0,0.0,0.0,0.0,0.0,0.0,0.0,0.0,0.0,0.0,0.0,0.0,0.0,0.0,0.0,0.0,0.0,0.0,0.0,0.0,0.0,0.0,0.0,0.0,0.0,0.0,0.0,0.0,0.0,0.0,0.0,0.0,0.0,0.0,0.0,0.0,0.0,0.0,0.0,0.0,0.0,0.0,0.0,0.0,0.0,0.0,0.0,0.0,0.0,0.0,0.0,0.0,0.0,0.0,0.0,0.0,0.0,-3.9422,-4.0024,-4.0014,-3.9423,-3.8214,-3.6454,0.0,0.0,0.0,0.0,0.0,0.0,0.0,0.0,0.0,0.0,0.0,0.0,0.0,0.0,0.0,0.0,0.0,0.0,0.0,0.0,0.0,0.0,0.0,0.0,0.0,0.0,0.0,0.0,0.0,0.0,0.0,0.0,0.0,0.0,0.0,0.0,0.0,0.0,0.0,0.0,0.0,0.0,0.0,0.0,0.0,0.0,0.0,0.0,0.0,0.0,0.0,0.0,0.0,0.0,0.0,0.0,0.0,0.0,0.0,0.0,0.0,0.0,0.0,0.0,0.0,0.0,0.0,0.0,0.0,0.0,0.0,0.0,0.0,0.0,0.0,0.0,0.0,0.0,0.0,0.0,0.0,0.0,0.0,0.0,0.0,0.0,0.0,0.0,0.0,0.0,0.0,0.0,0.0,0.0,0.0,0.0,0.0,0.0,0.0,0.0,0.0,0.0,0.0,0.0,0.0,0.0,0.0,0.0,0.0,-3.9373,0.0,-3.9889,0.0,-3.8126,-3.6368,0.0,0.0,0.0,0.0,0.0,0.0,0.0,0.0,0.0,0.0,0.0,0.0,0.0,0.0,0.0,0.0,0.0,0.0,0.0,0.0,0.0,0.0,0.0,0.0,0.0,0.0,0.0,0.0,0.0,0.0,0.0,0.0,0.0,0.0,0.0,0.0,0.0,0.0,0.0,0.0,0.0,0.0,0.0,0.0,0.0,0.0,0.0,0.0,0.0,0.0,0.0,0.0,0.0,0.0,0.0,0.0,0.0,0.0,0.0,0.0,0.0,0.0,0.0,0.0,0.0,0.0,0.0,0.0,0.0,0.0,0.0,0.0,0.0,0.0,0.0,0.0,0.0,0.0,0.0,0.0,0.0,0.0,0.0,0.0,0.0,0.0,0.0,0.0,0.0,0.0,0.0,0.0,0.0,0.0,0.0,0.0,0.0,0.0,0.0,0.0,0.0,0.0,0.0,0.0,0.0,0.0,0.0,0.0,-3.8541,-4.0211,-4.0307,-3.9924,-3.911,-3.8178,-3.6431,0.0,0.0,0.0,0.0,0.0,0.0,0.0,0.0,0.0,0.0,0.0,0.0,0.0,0.0,0.0,0.0,0.0,0.0,0.0,0.0,0.0,0.0,0.0,0.0,0.0,0.0,0.0,0.0,0.0,0.0,0.0,0.0,0.0,0.0,0.0,0.0,0.0,0.0,0.0,0.0,0.0,0.0,0.0,0.0,0.0,0.0,0.0,0.0,0.0,0.0,0.0,0.0,0.0,0.0,0.0,0.0,0.0,0.0,0.0,0.0,0.0,0.0,0.0,0.0,0.0,0.0,0.0,0.0,0.0,0.0,0.0,0.0,0.0,0.0,0.0,0.0,0.0,0.0,0.0,0.0,0.0,0.0,0.0,0.0,0.0,0.0,0.0,0.0,0.0,0.0,0.0,0.0,0.0,0.0,0.0,0.0,0.0,0.0,0.0,0.0,0.0,0.0,0.0,0.0,0.0,0.0,0.0,0.0,0.0,-4.0313,-4.037,-3.9968,-3.9133,-3.8195,-3.6457,0.0,0.0,0.0,0.0,0.0,0.0,0.0,0.0,0.0,0.0,0.0,0.0,0.0,0.0,0.0,0.0,0.0,0.0,0.0,0.0,0.0,0.0,0.0,0.0,0.0,0.0,0.0,0.0,0.0,0.0,0.0,0.0,0.0,0.0,0.0,0.0,0.0,0.0,0.0,0.0,0.0,0.0,0.0,0.0,0.0,0.0,0.0,0.0,0.0,0.0,0.0,0.0,0.0,0.0,0.0,0.0,0.0,0.0,0.0,0.0,0.0,0.0,0.0,0.0,0.0,0.0,0.0,0.0,0.0,0.0,0.0,0.0,0.0,0.0,0.0,0.0,0.0,0.0,0.0,0.0,0.0,0.0,0.0,0.0,0.0,0.0,0.0,0.0,0.0,0.0,0.0,0.0,0.0,0.0,0.0,0.0,0.0,0.0,0.0,0.0,0.0,0.0,0.0,0.0,0.0,0.0,0.0,0.0,0.0,-4.0351,-4.0449,-4.0019,-3.9164,-3.8246,-3.6672,-3.4343,0.0,0.0,0.0,0.0,0.0,0.0,0.0,0.0,0.0,0.0,0.0,0.0,0.0,0.0,0.0,0.0,0.0,0.0,0.0,0.0,0.0,0.0,0.0,0.0,0.0,0.0,0.0,0.0,0.0,0.0,0.0,0.0,0.0,0.0,0.0,0.0,0.0,0.0,0.0,0.0,0.0,0.0,0.0,0.0,0.0,0.0,0.0,0.0,0.0,0.0,0.0,0.0,0.0,0.0,0.0,0.0,0.0,0.0,0.0,0.0,0.0,0.0,0.0,0.0,0.0,0.0,0.0,0.0,0.0,0.0,0.0,0.0,0.0,0.0,0.0,0.0,0.0,0.0,0.0,0.0,0.0,0.0,0.0,0.0,0.0,0.0,0.0,0.0,0.0,0.0,0.0,0.0,0.0,0.0,0.0,0.0,0.0,0.0,0.0,0.0,0.0,0.0,0.0,0.0,0.0,0.0,0.0,0.0,-4.0477,-4.0487,-4.0106,-3.9327,-3.8377,-3.6999,0.0,0.0,0.0,0.0,0.0,0.0,0.0,0.0,0.0,0.0,0.0,0.0,0.0,0.0,0.0,0.0,0.0,0.0,0.0,0.0,0.0,0.0,0.0,0.0,0.0,0.0,0.0,0.0,0.0,0.0,0.0,0.0,0.0,0.0,0.0,0.0,0.0,0.0,0.0,0.0,0.0,0.0,0.0,0.0,0.0,0.0,0.0,0.0,0.0,0.0,0.0,0.0,0.0,0.0,0.0,0.0,0.0,0.0,0.0,0.0,0.0,0.0,0.0,0.0,0.0,0.0,0.0,0.0,0.0,0.0,0.0,0.0,0.0,0.0,0.0,0.0,0.0,0.0,0.0,0.0,0.0,0.0,0.0,0.0,0.0,0.0,0.0,0.0,0.0,0.0,0.0,0.0,0.0,0.0,0.0,0.0,0.0,0.0,0.0,0.0,0.0,0.0,0.0,0.0,0.0,0.0,0.0,0.0,0.0,-4.0419,-4.05,-4.0385,-4.0154,-3.8681,-3.7302,0.0,0.0,0.0,0.0,0.0,0.0,0.0,0.0,0.0,0.0,0.0,0.0,0.0,0.0,0.0,0.0,0.0,0.0,0.0,0.0,0.0,0.0,0.0,0.0,0.0,0.0,0.0,0.0,0.0,0.0,0.0,0.0,0.0,0.0,0.0,0.0,0.0,0.0,0.0,0.0,0.0,0.0,0.0,0.0,0.0,0.0,0.0,0.0,0.0,0.0,0.0,0.0,0.0,0.0,0.0,0.0,0.0,0.0,0.0,0.0,0.0,0.0,0.0,0.0,0.0,0.0,0.0,0.0,0.0,0.0,0.0,0.0,0.0,0.0,0.0,0.0,0.0,0.0,0.0,0.0,0.0,0.0,0.0,0.0,0.0,0.0,0.0,0.0,0.0,0.0,0.0,0.0,0.0,0.0,0.0,0.0,0.0,0.0,0.0,0.0,0.0,0.0,0.0,0.0,0.0,0.0,0.0,0.0,-3.8104,-3.9411,-3.9457,-3.9457,-3.9438,-3.8439,-3.7578,0.0,0.0,0.0,0.0,0.0,0.0,0.0,0.0,0.0,0.0,0.0,0.0,0.0,0.0,0.0,0.0,0.0,0.0,0.0,0.0,0.0,0.0,0.0,0.0,0.0,0.0,0.0,0.0,0.0,0.0,0.0,0.0,0.0,0.0,0.0,0.0,0.0,0.0,0.0,0.0,0.0,0.0,0.0,0.0,0.0,0.0,0.0,0.0,0.0,0.0,0.0,0.0,0.0,0.0,0.0,0.0,0.0,0.0,0.0,0.0,0.0,0.0,0.0,0.0,0.0,0.0,0.0,0.0,0.0,0.0,0.0,0.0,0.0,0.0,0.0,0.0,0.0,0.0,0.0,0.0,0.0,0.0,0.0,0.0,0.0,0.0,0.0,0.0,0.0,0.0,0.0,0.0,0.0,0.0,0.0,0.0,0.0,0.0,0.0,0.0,0.0,0.0,0.0,0.0,0.0,0.0,0.0,0.0,-3.713,-3.7976,-3.7995,-3.7988,-3.7988,-3.7836,-3.7666,0.0,0.0,0.0,0.0,0.0,0.0,0.0,0.0,0.0,0.0,0.0,0.0,0.0,0.0,0.0,0.0,0.0,0.0,0.0,0.0,0.0,0.0,0.0,0.0,0.0,0.0,0.0,0.0,0.0,0.0,0.0,0.0,0.0,0.0,0.0,0.0,0.0,0.0,0.0,0.0,0.0,0.0,0.0,0.0,0.0,0.0,0.0,0.0,0.0,0.0,0.0,0.0,0.0,0.0,0.0,0.0,0.0,0.0,0.0,0.0,0.0,0.0,0.0,0.0,0.0,0.0,0.0,0.0,0.0,0.0,0.0,0.0,0.0,0.0,0.0,0.0,0.0,0.0,0.0,0.0,0.0,0.0,0.0,0.0,0.0,0.0,0.0,0.0,0.0,0.0,0.0,0.0,0.0,0.0,0.0,0.0,0.0,0.0,0.0,0.0,0.0,0.0,0.0,0.0,0.0,0.0,0.0,0.0,-3.7166,-3.7973,-3.7986,-3.7998,-3.7988,-3.7279,-3.6813,0.0,0.0,0.0,0.0,0.0,0.0,0.0,0.0,0.0,0.0,0.0,0.0,0.0,0.0,0.0,0.0,0.0,0.0,0.0,0.0,0.0,0.0,0.0,0.0,0.0,0.0,0.0,0.0,0.0,0.0,0.0,0.0,0.0,0.0,0.0,0.0,0.0,0.0,0.0,0.0,0.0,0.0,0.0,0.0,0.0,0.0,0.0,0.0,-3.2511,0.0,0.0,0.0,0.0,0.0,0.0,0.0,0.0,0.0,0.0,0.0,0.0,0.0,0.0,0.0,0.0,0.0,0.0,0.0,0.0,0.0,0.0,0.0,0.0,0.0,0.0,0.0,0.0,0.0,0.0,0.0,0.0,0.0,0.0,0.0,0.0,0.0,0.0,0.0,0.0,0.0,0.0,0.0,0.0,0.0,0.0,0.0,0.0,0.0,0.0,0.0,0.0,0.0,0.0,0.0,0.0,0.0,0.0,0.0,-3.6447,-3.6839,-3.6838,-3.6825,-3.6804,-3.6288,-3.5932,0.0,0.0,0.0,0.0,0.0,0.0,0.0,0.0,0.0,0.0,0.0,0.0,0.0,0.0,0.0,0.0,0.0,0.0,0.0,0.0,0.0,0.0,0.0,0.0,0.0,0.0,0.0,0.0,0.0,0.0,0.0,0.0,0.0,0.0,0.0,0.0,0.0,0.0,0.0,0.0,0.0,0.0,0.0,0.0,0.0,0.0,0.0,0.0,0.0,0.0,0.0,0.0,0.0,0.0,0.0,0.0,0.0,0.0,0.0,0.0,0.0,0.0,0.0,0.0,0.0,0.0,0.0,0.0,0.0,0.0,0.0,0.0,0.0,0.0,0.0,0.0,0.0,0.0,0.0,0.0,0.0,0.0,0.0,0.0,0.0,0.0,0.0,0.0,0.0,0.0,0.0,0.0,0.0,0.0,0.0,0.0,0.0,0.0,0.0,0.0,0.0,0.0,0.0,0.0,0.0,0.0,0.0,-3.5475,-3.5417,-3.5391,-3.5341,-3.5316,-3.5297,-3.517,-3.4975,-3.471,0.0,0.0,0.0,0.0,0.0,0.0,0.0,0.0,0.0,0.0,0.0,0.0,0.0,0.0,0.0,0.0,0.0,0.0,0.0,0.0,0.0,0.0,0.0,0.0,0.0,0.0,0.0,0.0,0.0,0.0,0.0,0.0,0.0,0.0,0.0,0.0,0.0,0.0,-3.038,-3.129,0.0,0.0,0.0,0.0,0.0,0.0,0.0,0.0,-3.4352,0.0,0.0,0.0,0.0,0.0,0.0,0.0,0.0,0.0,0.0,0.0,0.0,0.0,0.0,0.0,0.0,0.0,0.0,0.0,0.0,0.0,0.0,0.0,0.0,0.0,0.0,0.0,0.0,0.0,0.0,0.0,0.0,0.0,0.0,0.0,0.0,0.0,0.0,0.0,0.0,0.0,0.0,0.0,0.0,0.0,0.0,0.0,0.0,0.0,0.0,0.0,0.0,0.0,0.0,0.0,0.0,-3.5562,-3.4947,-3.456,-3.4513,-3.4517,-3.4481,-3.4411,-3.4326,-3.3882,-3.305,0.0,0.0,0.0,0.0,0.0,0.0,0.0,0.0,0.0,0.0,0.0,0.0,0.0,0.0,0.0,0.0,0.0,0.0,0.0,0.0,0.0,0.0,0.0,0.0,0.0,0.0,0.0,0.0,0.0,0.0,0.0,0.0,0.0,0.0,0.0,0.0,0.0,0.0,0.0,-3.2216,-3.3069,0.0,0.0,0.0,0.0,0.0,0.0,0.0,0.0,-3.521,0.0,0.0,0.0,0.0,0.0,0.0,0.0,0.0,0.0,0.0,0.0,0.0,0.0,0.0,0.0,0.0,0.0,0.0,0.0,0.0,0.0,0.0,0.0,0.0,0.0,0.0,0.0,0.0,0.0,0.0,0.0,0.0,0.0,0.0,0.0,0.0,0.0,0.0,0.0,0.0,0.0,0.0,0.0,0.0,0.0,0.0,0.0,0.0,0.0,0.0,0.0,0.0,0.0,0.0,0.0,-3.4251,-3.4383,-3.4151,-3.371,-3.3647,-3.3612,-3.3575,-3.3467,-3.2953,0.0,0.0,0.0,0.0,0.0,0.0,0.0,0.0,0.0,0.0,0.0,0.0,0.0,0.0,0.0,0.0,0.0,0.0,0.0,0.0,0.0,0.0,0.0,0.0,0.0,0.0,0.0,0.0,0.0,0.0,0.0,0.0,0.0,0.0,0.0,0.0,0.0,0.0,0.0,0.0,-3.2727,-3.3471,-3.4763,0.0,0.0,0.0,0.0,0.0,0.0,-3.5846,-3.5974,0.0,0.0,0.0,0.0,0.0,0.0,0.0,0.0,0.0,0.0,0.0,0.0,0.0,0.0,0.0,0.0,0.0,0.0,0.0,0.0,0.0,0.0,0.0,0.0,0.0,0.0,0.0,0.0,0.0,0.0,0.0,0.0,0.0,0.0,0.0,0.0,0.0,0.0,0.0,0.0,0.0,0.0,0.0,0.0,0.0,0.0,0.0,0.0,0.0,0.0,0.0,0.0,0.0,0.0,0.0,-3.3126,-3.3615,-3.3538,-3.287,-3.2794,-3.2742,-3.2736,-3.2622,-3.2185,0.0,0.0,0.0,0.0,0.0,0.0,0.0,0.0,0.0,0.0,0.0,0.0,0.0,0.0,0.0,0.0,0.0,0.0,0.0,0.0,0.0,0.0,0.0,0.0,0.0,0.0,0.0,0.0,0.0,0.0,0.0,0.0,0.0,0.0,0.0,0.0,0.0,0.0,0.0,0.0,0.0,-3.3834,-3.5372,-3.556,0.0,0.0,0.0,0.0,-3.5848,-3.6309,0.0,0.0,0.0,0.0,0.0,0.0,0.0,0.0,0.0,0.0,0.0,0.0,0.0,0.0,0.0,0.0,0.0,0.0,0.0,0.0,0.0,0.0,0.0,0.0,0.0,0.0,0.0,0.0,0.0,0.0,0.0,0.0,0.0,0.0,0.0,0.0,0.0,0.0,0.0,0.0,0.0,0.0,0.0,0.0,0.0,0.0,0.0,0.0,0.0,0.0,0.0,0.0,0.0,0.0,0.0,0.0,-3.3044,-3.243,-3.2063,-3.1966,-3.1955,-3.1929,-3.1857,-3.1775,-3.1621,0.0,0.0,0.0,0.0,0.0,0.0,0.0,0.0,0.0,0.0,0.0,0.0,0.0,0.0,0.0,0.0,0.0,0.0,0.0,0.0,0.0,0.0,0.0,0.0,0.0,0.0,0.0,0.0,0.0,0.0,0.0,0.0,0.0,0.0,0.0,0.0,0.0,0.0,0.0,0.0,0.0,-3.45,-3.5465,-3.559,-3.5842,0.0,0.0,-3.6755,-3.6665,-3.6717,0.0,0.0,0.0,0.0,0.0,0.0,0.0,0.0,0.0,0.0,0.0,0.0,0.0,0.0,0.0,0.0,0.0,0.0,0.0,0.0,0.0,0.0,0.0,0.0,0.0,0.0,0.0,0.0,0.0,0.0,0.0,0.0,0.0,0.0,0.0,0.0,0.0,0.0,0.0,0.0,0.0,0.0,0.0,0.0,0.0,0.0,0.0,0.0,0.0,0.0,0.0,0.0,0.0,0.0,0.0,-3.1753,-3.17,-3.1753,-3.1584,-3.1134,-3.1091,-3.1041,-3.102,-3.0916,-3.0803,0.0,0.0,0.0,0.0,0.0,0.0,0.0,0.0,0.0,0.0,0.0,0.0,0.0,0.0,0.0,0.0,0.0,0.0,0.0,0.0,0.0,0.0,0.0,0.0,0.0,0.0,0.0,0.0,0.0,0.0,0.0,0.0,0.0,0.0,0.0,0.0,0.0,0.0,0.0,0.0,0.0,0.0,-3.5532,-3.5626,0.0,0.0,0.0,-3.6646,-3.6196,0.0,0.0,0.0,0.0,0.0,0.0,0.0,0.0,0.0,0.0,0.0,0.0,0.0,0.0,0.0,0.0,0.0,0.0,0.0,0.0,0.0,0.0,0.0,0.0,0.0,0.0,0.0,0.0,0.0,0.0,0.0,0.0,0.0,0.0,0.0,0.0,0.0,0.0,0.0,0.0,0.0,0.0,0.0,0.0,0.0,0.0,0.0,0.0,0.0,0.0,0.0,0.0,0.0,0.0,0.0,0.0,0.0,-3.0617,-3.1173,-3.1217,-3.0636,-3.0554,-3.0515,-3.0485,-3.0369,0.0,0.0,0.0,0.0,0.0,0.0,0.0,0.0,0.0,0.0,0.0,0.0,0.0,0.0,0.0,0.0,0.0,0.0,0.0,0.0,0.0,0.0,0.0,0.0,0.0,0.0,0.0,-2.5289,0.0,0.0,0.0,0.0,0.0,0.0,0.0,0.0,0.0,0.0,0.0,0.0,0.0,0.0,-3.4965,-3.5599,-3.564,-3.5701,0.0,0.0,-3.6613,-3.6021,-3.644,-3.6562,0.0,0.0,0.0,0.0,0.0,0.0,0.0,0.0,0.0,0.0,0.0,0.0,0.0,0.0,0.0,0.0,0.0,0.0,0.0,0.0,0.0,0.0,0.0,0.0,0.0,0.0,0.0,0.0,0.0,0.0,0.0,0.0,0.0,0.0,0.0,0.0,0.0,0.0,0.0,0.0,0.0,0.0,0.0,0.0,0.0,0.0,0.0,0.0,0.0,0.0,0.0,0.0,0.0,0.0,0.0,-3.0617,-3.0656,-3.0675,-3.0617,-3.0593,-3.0554,-3.0485,-3.0428,-3.0328,0.0,0.0,0.0,0.0,0.0,0.0,0.0,0.0,0.0,0.0,0.0,0.0,0.0,0.0,0.0,0.0,0.0,0.0,0.0,0.0,0.0,0.0,0.0,0.0,0.0,0.0,0.0,0.0,0.0,0.0,0.0,0.0,0.0,0.0,0.0,0.0,0.0,0.0,0.0,0.0,0.0,-3.563,-3.5688,-3.5702,-3.5973,0.0,0.0,-3.6878,-3.682,-3.6855,-3.6605,-3.5736,0.0,0.0,0.0,0.0,0.0,0.0,0.0,0.0,0.0,0.0,0.0,0.0,0.0,0.0,0.0,0.0,0.0,0.0,0.0,0.0,0.0,0.0,0.0,0.0,0.0,0.0,0.0,0.0,0.0,0.0,0.0,0.0,0.0,0.0,0.0,0.0,0.0,0.0,0.0,0.0,0.0,0.0,0.0,0.0,0.0,0.0,0.0,0.0,0.0,0.0,0.0,0.0,0.0,-3.0617,-3.0617,-3.0617,-3.0617,-3.0617,-3.0617,-3.0579,-3.0486,-3.0479,-3.0394,0.0,0.0,0.0,0.0,0.0,0.0,0.0,0.0,0.0,0.0,0.0,0.0,0.0,0.0,0.0,0.0,0.0,0.0,0.0,0.0,0.0,0.0,0.0,0.0,0.0,0.0,0.0,0.0,-2.8465,-2.9136,-2.9756,0.0,0.0,0.0,0.0,0.0,0.0,0.0,0.0,0.0,0.0,-3.5708,-3.5713,-3.5713,0.0,0.0,-3.6188,-3.6153,-3.6156,-3.6165,-3.6057,-3.5731,-3.5681,0.0,0.0,0.0,0.0,0.0,0.0,0.0,0.0,0.0,0.0,0.0,0.0,0.0,0.0,0.0,0.0,0.0,0.0,0.0,0.0,0.0,0.0,0.0,0.0,0.0,0.0,0.0,0.0,0.0,0.0,0.0,0.0,0.0,0.0,0.0,0.0,0.0,0.0,0.0,0.0,0.0,0.0,0.0,0.0,0.0,0.0,0.0,0.0,0.0,0.0,0.0,0.0,-3.0617,-3.0617,-3.0617,-3.0617,-3.0617,-3.0617,-3.0583,-3.0515,-3.0495,-3.0447,0.0,0.0,0.0,0.0,0.0,0.0,0.0,0.0,0.0,0.0,0.0,0.0,0.0,0.0,0.0,0.0,0.0,0.0,0.0,0.0,0.0,0.0,0.0,0.0,0.0,0.0,0.0,0.0,-2.923,-2.9808,-3.0731,0.0,0.0,0.0,0.0,0.0,0.0,0.0,0.0,0.0,0.0,-3.5737,-3.5737,-3.5737,-3.5737,-3.5737,-3.5713,-3.5699,-3.5703,-3.5698,-3.5713,-3.5716,0.0,0.0,0.0,0.0,0.0,0.0,0.0,0.0,0.0,0.0,0.0,0.0,0.0,0.0,0.0,0.0,0.0,0.0,0.0,0.0,0.0,0.0,0.0,0.0,0.0,0.0,0.0,0.0,0.0,0.0,-3.4369,0.0,0.0,0.0,0.0,0.0,0.0,0.0,0.0,0.0,0.0,0.0,0.0,0.0,0.0,0.0,0.0,0.0,0.0,0.0,0.0,0.0,0.0,-3.0617,-3.0617,-3.0617,-3.0617,-3.0617,-3.0617,-3.0583,-3.0515,-3.0495,-3.0472,-3.0385,0.0,0.0,0.0,0.0,0.0,0.0,0.0,0.0,0.0,0.0,0.0,0.0,0.0,0.0,0.0,0.0,0.0,0.0,0.0,0.0,0.0,0.0,0.0,0.0,0.0,0.0,-2.9121,-2.9927,-3.0795,0.0,0.0,0.0,0.0,0.0,0.0,0.0,0.0,0.0,0.0,-3.5727,-3.5799,-3.578,-3.578,-3.576,-3.578,-3.5722,-3.5689,-3.5708,-3.5704,-3.5704,0.0,0.0,0.0,0.0,0.0,0.0,0.0,0.0,0.0,0.0,0.0,0.0,0.0,0.0,0.0,0.0,0.0,0.0,0.0,0.0,0.0,0.0,0.0,0.0,0.0,0.0,0.0,-3.7271,-3.6679,0.0,0.0,0.0,0.0,0.0,0.0,0.0,0.0,0.0,0.0,0.0,-3.8518,-3.8518,0.0,0.0,0.0,0.0,0.0,0.0,0.0,0.0,0.0,0.0,0.0,0.0,-3.1182,-3.0645,-3.0607,-3.0617,-3.0617,-3.0617,-3.0574,-3.0583,-3.052,-3.0469,-3.0385,0.0,0.0,0.0,0.0,0.0,0.0,0.0,0.0,0.0,0.0,0.0,0.0,0.0,0.0,0.0,0.0,0.0,0.0,0.0,0.0,0.0,0.0,0.0,0.0,0.0,-2.9393,0.0,0.0,0.0,0.0,0.0,0.0,0.0,0.0,0.0,0.0,0.0,-3.5465,-3.573,-3.5778,-3.5592,-3.501,-3.4932,-3.4951,0.0,0.0,0.0,0.0,0.0,0.0,0.0,0.0,0.0,0.0,0.0,0.0,0.0,0.0,-3.5784,-3.5648,-3.561,-3.5599,-3.5599,0.0,0.0,0.0,0.0,0.0,0.0,0.0,0.0,0.0,0.0,0.0,0.0,0.0,0.0,-3.8213,0.0,-3.705,0.0,0.0,0.0,0.0,0.0,0.0,0.0,0.0,-3.9261,-3.9405,-3.9406,-3.9406,-3.9248,0.0,-3.8957,-3.7732,0.0,0.0,0.0,0.0,0.0,0.0,0.0,0.0,-3.1461,-3.0647,-3.061,-3.0601,-3.0601,-3.0601,-3.0616,-3.0612,-3.0535,-3.0485,-3.0439,-3.0373,-2.9684,0.0,0.0,0.0,0.0,0.0,0.0,0.0,0.0,0.0,0.0,0.0,0.0,0.0,0.0,0.0,0.0,0.0,0.0,0.0,0.0,0.0,0.0,0.0,-2.9931,0.0,0.0,0.0,0.0,0.0,0.0,0.0,0.0,0.0,-3.5806,-3.5806,-3.5814,-3.5838,-3.5566,-3.5177,-3.4618,0.0,0.0,0.0,0.0,0.0,0.0,0.0,-3.4897,-3.4881,-3.4857,-3.4885,-3.4917,-3.4925,-3.5025,-3.5316,0.0,0.0,-3.573,-3.5751,-3.5747,-3.5742,-3.5737,-3.5728,-3.5728,-3.5708,-3.5658,0.0,0.0,0.0,0.0,0.0,0.0,0.0,0.0,-3.871,-3.8691,0.0,-3.8553,0.0,0.0,0.0,0.0,0.0,-3.9383,0.0,0.0,-4.0662,-4.1093,-4.1074,-4.1055,-4.0644,-3.986,-3.9801,-3.8895,-3.7289,-3.7102,0.0,0.0,0.0,0.0,0.0,0.0,-3.1506,-3.0629,-3.061,-3.0606,-3.061,-3.0606,-3.0617,-3.0619,-3.055,-3.051,-3.0509,-3.0433,-3.0037,-2.9219,-2.8301,0.0,0.0,0.0,0.0,0.0,0.0,0.0,0.0,0.0,0.0,0.0,0.0,0.0,0.0,0.0,0.0,0.0,0.0,0.0,0.0,-2.9603,0.0,0.0,0.0,0.0,0.0,0.0,0.0,0.0,0.0,0.0,-3.5733,-3.5729,-3.5795,-3.584,0.0,0.0,0.0,0.0,-3.3262,-3.3265,-3.3245,-3.3284,-3.332,-3.3343,-3.3323,-3.3323,0.0,0.0,-3.3323,-3.3307,-3.3621,-3.4426,-3.4562,-3.4815,-3.5613,-3.5771,-3.5799,-3.5799,-3.578,-3.5803,-3.5799,-3.5801,-3.577,-4.1883,0.0,0.0,0.0,0.0,-4.0486,-4.0397,-4.0381,-4.0386,-4.0055,-3.9528,-3.9511,0.0,0.0,0.0,0.0,0.0,0.0,-4.0176,-4.0741,-4.0992,-4.1107,-4.1106,-4.1105,-4.097,-4.0698,-4.0156,-3.9296,-3.8196,-3.7494,-3.6606,-3.5555,0.0,0.0,0.0,0.0,-3.2151,-3.0768,-3.068,-3.0676,-3.0676,-3.0672,-3.0665,-3.0665,-3.0613,-3.0567,-3.0568,-3.0501,-3.01,-2.9294,-2.8419,0.0,0.0,0.0,0.0,0.0,0.0,0.0,0.0,0.0,0.0,0.0,0.0,0.0,0.0,0.0,0.0,0.0,0.0,0.0,-2.9801,-3.0322,-3.0602,0.0,0.0,0.0,0.0,0.0,0.0,0.0,0.0,0.0,-3.5022,-3.4951,-3.4938,0.0,0.0,-3.3443,-3.2843,-3.2532,-3.2373,-3.2373,-3.2373,0.0,0.0,-3.33,-3.3306,-3.3298,-3.3329,-3.3373,-3.3353,-3.3383,-3.3446,-3.3702,-3.376,-3.3838,-3.4109,-3.5107,-3.5777,-3.5883,-3.5883,-3.5875,-3.5862,-3.5859,-3.5648,-4.1474,-4.0793,-4.0909,-4.0986,-4.1036,-4.1052,-4.107,-4.1101,-4.1109,-4.0819,-4.039,-4.038,-4.009,-3.9602,-3.9606,0.0,0.0,0.0,-4.015,-4.0558,-4.026,-4.01,-4.0119,-4.01,-4.012,-4.0084,-3.9622,-3.8943,-3.8066,-3.7518,-3.6614,-3.5467,0.0,0.0,-3.3368,-3.2995,-3.2147,-3.082,-3.0737,-3.0731,-3.0722,-3.0419,-3.0053,-2.9729,-2.965,-2.9613,-2.9606,-2.9904,-2.9687,-2.8869,-2.833,-2.7651,0.0,0.0,0.0,0.0,0.0,0.0,0.0,0.0,0.0,0.0,0.0,-2.6433,0.0,0.0,0.0,0.0,-2.8241,-2.9822,-3.0991,-3.113,0.0,0.0,0.0,0.0,0.0,0.0,0.0,-3.5265,-3.536,-3.507,-3.4233,-3.3838,-3.3735,-3.4086,-3.3365,-3.2642,-3.2101,0.0,-3.1008,-3.1025,-3.1006,-3.1186,-3.1702,-3.1802,-3.169,-3.1367,-3.1354,-3.1517,-3.181,-3.1853,-3.2108,-3.2674,-3.2884,-3.3,-3.3317,-3.4263,-3.4917,-3.49,-3.492,-3.4898,-3.491,-3.4909,-3.4679,-4.1112,-4.0403,-4.0591,-4.0689,-4.0788,-4.0843,-4.0877,-4.0878,-4.0869,-4.0877,-4.0898,-4.0902,-4.0891,-4.0893,-4.0887,0.0,-4.0862,-4.0141,-3.9727,-3.9681,-3.8941,-3.859,-3.8609,-3.859,-3.8593,-3.8578,-3.852,-3.8036,-3.722,-3.7126,-3.6228,-3.4627,-3.4459,-3.4027,-3.3293,-3.2505,-3.1679,-3.0822,-3.0803,-3.0758,-3.0689,-2.9847,-2.9014,-2.8233,-2.814,-2.8112,-2.8129,-2.8893,-2.8932,-2.8168,-2.8037,-2.7665,-2.6935,0.0,0.0,0.0,0.0,0.0,0.0,0.0,0.0,0.0,0.0,0.0,0.0,0.0,0.0,0.0,-2.8895,0.0,-3.174,-3.1965,0.0,0.0,0.0,-3.3683,-3.4422,-3.4542,-3.4565,-3.4519,0.0,0.0,-3.3295,-3.2448,-3.2143,-3.2904,-3.2358,-3.187,-3.1812,-3.0404,-2.9411,-2.9468,-2.943,-2.9416,-2.9578,-2.9562,-2.9368,-2.8747,-2.8301,-2.873,-2.9356,-2.9508,-3.013,-3.1418,-3.1781,-3.1955,-3.282,-3.2841,-3.2994,-3.2888,-3.3257,-3.3431,-3.3505,-3.349,-3.3423,-3.9268,-3.8543,-3.8582,-3.909,-3.9834,-3.9903,-3.9602,-3.9061,-3.9033,-3.9076,-3.9114,-3.9121,-3.9109,-3.9117,-3.9121,-3.9123,-3.9099,-3.8904,-3.8826,-3.8803,-3.8627,-3.851,-3.8512,-3.853,-3.8532,-3.8475,-3.7851,-3.7116,-3.6305,-3.5642,-3.4768,-3.3737,-3.3042,-3.2598,-3.2398,-3.2198,-3.1669,-3.0811,-3.0791,-3.0476,-2.9806,-2.9,-2.8445,-2.8202,-2.8198,-2.8172,-2.8162,-2.8359,-2.8398,-2.8182,-2.754,-2.7092,-2.6895,-2.6091,0.0,0.0,0.0,0.0,0.0,0.0,0.0,0.0,0.0,-2.8461,-2.7838,0.0,-2.9537,0.0,-2.8968,-3.0163,-3.1816,-3.1991,0.0,0.0,-3.3891,-3.4092,-3.3659,-3.4194,-3.4381,-3.377,-3.31,-3.2372,-3.1523,-3.0648,-2.997,-2.9603,-2.9887,-2.986,-2.9237,-2.887,-2.858,-2.858,-2.8604,-2.859,-2.8578,-2.8603,-2.8527,-2.8332,-2.8274,-2.8371,-2.8548,-2.8586,-2.8742,-2.9132,-2.9209,-2.9306,-2.956,-2.9502,-2.9561,-2.9696,-3.1563,-3.3389,-3.3383,-3.3351,-3.3139,-3.8263,-3.7868,-3.7889,-3.8027,-3.8254,-3.8725,-3.8704,-3.833,-3.8338,-3.8369,-3.842,-3.8486,-3.8524,-3.8514,-3.8521,-3.8521,-3.8484,-3.8094,-3.7724,-3.7373,-3.7002,-3.6612,-3.6222,-3.6222,-3.6222,-3.6202,-3.5734,-3.527,-3.4846,-3.4358,-3.3677,-3.2843,-3.2334,-3.1701,-3.0972,-3.1328,-3.1113,-3.0273,-2.9882,-2.9257,-2.8396,-2.7946,-2.7514,-2.71,-2.708,-2.7098,-2.7095,-2.7467,-2.7486,-2.7114,-2.6998,-2.6764,-2.6371,-2.5917,-2.5816,0.0,0.0,0.0,0.0,0.0,0.0,0.0,0.0,0.0,0.0,0.0,-3.0364,-2.946,-2.9796,-3.0611,-3.193,-3.2044,-3.2397,-3.3243,-3.3768,-3.3871,-3.34,-3.3775,-3.3607,-3.237,-3.1812,-3.1059,-2.986,-2.9275,-2.8498,-2.7312,-2.7522,-2.7926,-2.8179,-2.7969,-2.7718,-2.7738,-2.772,-2.7725,-2.7711,-2.7714,-2.7578,-2.7226,-2.7148,-2.7246,-2.7636,-2.7734,-2.785,-2.8202,-2.8298,-2.8296,-2.8296,-2.8296,-2.8296,-2.853,-2.9777,-3.0983,-3.1136,-3.1146,-3.0918,-3.7553,-3.7466,-3.7535,-3.7052,-3.6347,-3.7192,-3.7686,-3.7851,-3.7807,-3.7729,-3.7653,-3.7787,-3.7821,-3.7834,-3.7849,-3.7834,-3.7776,-3.7076,-3.6337,-3.5635,-3.4891,-3.4131,-3.3409,-3.3392,-3.339,-3.3388,-3.3388,-3.3329,-3.321,-3.321,-3.2742,-3.1804,-3.1785,-3.0948,-2.943,-3.0095,-3.0145,-2.9446,-2.8571,-2.7752,-2.7029,-2.6894,-2.6465,-2.5742,-2.5703,-2.5703,-2.5722,-2.6426,-2.6484,-2.5781,-2.6426,-2.6504,-2.5742,-2.5702,-2.6092,0.0,-2.7008,0.0,0.0,0.0,0.0,0.0,0.0,0.0,0.0,-3.0365,-3.0792,-3.0792,-3.0792,-3.1137,-3.2021,-3.2099,-3.2452,-3.328,-3.3377,-3.3345,-3.3101,-3.3062,-3.2402,-3.0675,-3.0383,-2.9705,-2.821,-2.79,-2.7159,-2.5698,-2.5405,-2.5892,-2.7159,-2.6849,-2.6363,-2.65,-2.65,-2.6326,-2.6523,-2.6601,-2.6443,-2.5856,-2.5818,-2.5973,-2.6735,-2.6835,-2.707,-2.7715,-2.7831,-2.7888,-2.7965,-2.7926,-2.7907,-2.7849,-2.8004,-2.8199,-2.8491,-2.8603,-2.8283,-3.6292,-3.5714,-3.5693,-3.5231,-3.4504,-3.4702,-3.5243,-3.5958,-3.5338,-3.4738,-3.4169,-3.4198,-3.4231,-3.427,-3.4294,-3.4283,-3.4286,-3.4179,-3.4028,-3.3875,-3.3717,-3.3561,-3.3405,-3.3385,-3.338,-3.3329,-3.3329,-3.2953,-3.2261,-3.2258,-3.1479,-3.0019,-3.0,-2.9482,-2.85,0.0,0.0,0.0,-2.7688,-2.7165,-2.6974,-2.6311,-2.5865,-2.5712,-2.5693,0.0,-2.5712,-2.5871,-2.5873,-2.5716,-2.5856,0.0,0.0,0.0,0.0,0.0,0.0,0.0,0.0,0.0,0.0,0.0,-3.0156,-3.0545,-3.0559,-3.0714,-3.0791,-3.0791,-3.0791,-3.1159,-3.201,-3.2108,-3.2437,-3.329,-3.3386,-3.2862,-3.1504,-3.1289,-3.0649,-2.8995,-2.8175,-2.7355,-2.64,-2.5581,-2.4781,-2.3844,-2.3591,-2.3709,-2.406,-2.408,-2.3885,-2.3846,-2.4043,-2.418,-2.4785,-2.492,-2.5151,-2.5482,-2.5698,-2.5757,-2.5931,-2.5992,-2.5975,-2.6249,-2.6172,-2.6211,-2.6211,-2.6191,-2.6191,-2.6172,-2.6191,-2.662,-2.7985,-2.8276,-2.8293,-3.4649,0.0,-3.3909,-3.3665,0.0,-3.3341,-3.3664,-3.4166,-3.3776,-3.3417,-3.3093,-3.3182,-3.3204,-3.325,-3.33,-3.33,-3.3303,-3.3334,-3.3123,-3.2714,-3.2714,-3.248,-3.2071,-3.2052,-3.2046,-3.1999,-3.161,-3.1198,-3.0761,-3.0336,-2.9694,-2.8877,-2.8857,-2.8412,-2.7564,-2.7125,-2.7164,-2.7659,-2.6801,-2.6353,-2.6337,-2.5923,-2.5689,-2.5693,0.0,0.0,0.0,0.0,0.0,0.0,0.0,0.0,0.0,0.0,0.0,-2.7525,-2.7647,-2.8214,-2.9441,-2.995,-3.0184,-3.0142,-3.0572,-3.0793,-3.08,-3.08,-3.08,-3.08,-3.08,-3.0976,-3.1406,-3.1444,-3.1463,-3.148,-3.1498,-3.0989,-2.9837,-2.9564,-2.9057,-2.7925,-2.7281,-2.6539,-2.5212,-2.4705,-2.3885,-2.2733,-2.2499,-2.2343,-2.205,-2.2636,-2.3144,-2.3144,-2.3125,-2.326,-2.365,-2.3764,-2.4053,-2.481,-2.5045,-2.5241,-2.5649,-2.5692,-2.5696,-2.566,-2.5368,-2.5057,-2.5019,-2.4726,-2.4414,-2.4434,-2.4414,-2.4629,-2.5625,-2.6405,-2.7009,-3.3154,-3.2599,-3.2583,-3.2523,-3.2378,-3.242,-3.2401,-3.2338,0.0,0.0,0.0,-3.2643,-3.2714,-3.2725,-3.2792,-3.284,-3.2837,-3.2837,-3.2451,-3.1793,-3.1773,-3.1384,-3.0722,-3.0544,-3.0464,-3.0441,-2.966,-2.9249,-2.9226,-2.8513,-2.8104,-2.7968,-2.7949,-2.7504,-2.6668,-2.5948,-2.597,-2.6685,-2.605,-2.568,-2.5678,-2.5689,-2.5681,-2.5679,-2.5632,-2.5609,-2.5609,-2.5638,-2.5681,-2.5683,-2.5696,-2.5683,-2.5683,-2.569,-2.6392,-2.7908,-2.8047,-2.8732,-3.0209,-3.0345,-3.0345,-3.0342,-3.0342,-3.0391,-3.055,-3.0566,-3.0505,-3.0374,-3.0335,-3.0337,-3.0323,-3.0346,-3.0055,-2.9353,-2.9315,-2.9043,-2.8222,-2.8066,-2.7772,-2.6951,-2.6579,-2.5954,-2.4394,-2.3984,-2.3418,-2.2051,-2.168,-2.1445,-2.0957,-2.1777,-2.2578,-2.2559,-2.246,-2.2633,-2.2867,-2.2882,-2.3226,-2.4002,-2.4177,-2.443,-2.5016,-2.5235,-2.5239,-2.5088,-2.4603,-2.4255,-2.4139,-2.3671,-2.3124,-2.3105,-2.3105,-2.3104,-2.3222,-2.4238,-2.5195,-3.2562,-3.2509,-3.258,-3.2159,-3.1492,-3.15,-3.11,-3.0578,-3.1402,-3.1367,-3.068,-3.075,-3.0823,-3.0893,-3.0942,-3.0995,-3.107,-3.108,-3.0999,0.0,-3.0878,-3.0817,-3.0661,-2.9932,-2.957,-2.9522,-2.8693,-2.8304,-2.829,-2.8154,-2.7743,-2.708,-2.7002,-2.6563,-2.5764,-2.557,-2.5573,-2.5721,-2.5659,-2.5612,-2.5617,-2.5615,-2.5626,-2.5615,-2.5615,-2.5613,-2.5613,-2.5604,-2.5612,-2.5612,-2.5619,-2.5632,-2.5613,-2.5621,-2.6055,-2.6995,-2.7092,-2.754,-2.8496,-2.8571,-2.8567,-2.8554,-2.8566,-2.887,-2.9604,-2.9684,-2.9368,-2.8679,-2.8659,-2.8565,-2.8556,-2.8622,-2.8609,-2.842,-2.8428,-2.8138,-2.728,-2.7186,-2.6855,-2.5996,-2.5215,-2.4472,-2.3476,-2.2754,-2.2051,-2.1094,-2.0937,-2.0762,-2.0703,-2.0781,-2.0937,-2.0957,-2.0956,-2.1266,-2.1871,-2.2061,-2.2406,-2.3143,-2.3282,-2.3361,-2.3631,-2.3674,-2.3679,-2.3526,-2.3429,-2.3315,-2.3278,-2.32,-2.2946,-2.2908,-2.2888,-2.2946,-2.2907,-2.326,-2.3475,-3.1399,-3.1054,-3.1113,-3.091,-3.0549,-3.0624,-3.0457,-3.0141,-3.0577,-3.0602,-3.0266,-3.0316,-3.0381,-3.0455,-3.053,-3.0586,-3.0645,-3.0634,-3.0645,-3.0625,-3.0198,-3.0007,-2.991,-2.9091,-2.8692,-2.865,-2.7805,-2.7387,-2.7357,-2.693,-2.6504,-2.6074,-2.5644,-2.5191,-2.4797,-2.4328,-2.4076,-2.4115,-2.5042,-2.5546,-2.5547,-2.5535,-2.5522,-2.5485,-2.5498,-2.549,-2.549,-2.5505,-2.5499,-2.5548,-2.5537,-2.5532,-2.5551,-2.5543,-2.5923,-2.6762,-2.6848,-2.7245,-2.815,-2.8194,-2.8194,-2.8209,-2.8196,-2.8154,-2.8089,-2.8532,-2.8634,-2.8238,-2.8199,-2.8201,-2.8208,-2.8197,-2.8032,-2.7555,-2.7527,-2.7204,-2.6471,-2.63,-2.5953,-2.5135,-2.4648,-2.3906,-2.2617,-2.2129,-2.1582,-2.078,-2.0604,-2.0604,-2.0603,-2.0604,-2.0604,-2.0604,-2.0602,-2.0757,-2.1147,-2.1202,-2.1548,-2.2264,-2.2382,-2.2598,-2.2947,-2.3087,-2.307,-2.3055,-2.2782,-2.249,-2.2435,-2.2026,-2.1812,-2.1734,-2.1734,-2.1734,-2.1753,-2.1753,-2.2066,-3.033,-2.9782,-2.9822,-2.9883,-2.9907,-3.0014,-3.0065,-3.0065,-3.008,-3.0098,-3.0157,-3.0228,-3.0304,-3.0358,-3.0417,-3.05,-3.0568,-3.0554,-3.0475,-3.0253,-2.9652,-2.9288,-2.902,-2.8225,-2.7799,-2.7702,-2.6939,-2.6509,-2.6408,-2.5808,-2.5355,-2.5135,-2.4504,-2.4076,-2.3875,-2.3211,-2.2856,-2.2925,-2.4157,-2.4937,-2.5147,-2.5167,-2.5201,-2.535,-2.5352,-2.5363,-2.5344,-2.5357,-2.5393,-2.5429,-2.5437,-2.5453,-2.5456,-2.5455,-2.576,-2.6407,-2.6479,-2.6809,-2.7491,-2.7604,-2.759,-2.759,-2.7587,-2.7303,-2.6744,-2.7193,-2.7596,-2.7596,-2.7518,-2.7537,-2.7501,-2.7551,-2.735,-2.6675,-2.6638,-2.6404,-2.5815,-2.5705,-2.536,-2.4568,-2.4237,-2.3514,-2.2303,-2.1737,-2.1326,-2.0759,-2.0601,-2.0601,-2.0601,-2.0601,-2.0601,-2.06,-2.0599,-2.0619,-2.0599,-2.0636,-2.0904,-2.1465,-2.1523,-2.1778,-2.2246,-2.2481,-2.2502,-2.235,-2.1998,-2.1667,-2.1534,-2.1125,-2.0755,-2.0775,-2.0814,-2.0715,-2.0755,-2.0754,-2.099,-2.9663,-2.9701,-2.9718,-2.9798,-2.9885,-2.9934,-2.9932,-2.9932,-2.9991,-2.9996,-3.0038,-3.0157,-3.0207,-3.0235,-3.0292,-3.0389,-3.049,-3.0495,-3.011,-2.9476,-2.9345,-2.8931,-2.8167,-2.7338,-2.6924,-2.6823,-2.6068,-2.5708,-2.567,-2.546,-2.5007,-2.4317,-2.4139,-2.3655,-2.299,-2.2812,-2.2704,-2.2613,-2.2791,-2.328,-2.4085,-2.4143,-2.4466,-2.52,-2.5194,-2.5214,-2.5118,-2.5214,-2.5219,-2.5238,-2.5206,-2.5231,-2.5308,-2.5321,-2.5387,-2.5543,-2.5541,-2.56,-2.5759,-2.5735,-2.5823,-2.5746,-2.5825,-2.5793,-2.5673,-2.5735,-2.5761,-2.5839,-2.58,-2.59,-2.5742,-2.5883,-2.594,-2.5868,-2.587,-2.5784,-2.5717,-2.5697,-2.5357,-2.4485,-2.3687,-2.2868,-2.195,-2.1247,-2.0758,-2.064,-2.0601,-2.0601,-2.0599,-2.0599,-2.0598,-2.0596,-2.0597,-2.0599,-2.0599,-2.0596,-2.0672,-2.0768,-2.0748,-2.0904,-2.11,-2.1061,-2.0886,-2.1296,-2.0964,-2.0867,-2.0808,-2.0614,-2.0614,-2.0596,-2.0595,-2.0594,-2.0594,-2.0516,-2.0694,-2.9392,-2.9531,-2.957,-2.9673,-2.978,-2.9876,-2.9901,-2.991,-2.9924,-2.9948,-2.9956,-3.0034,-3.0101,-3.014,-3.0195,-3.0299,-3.0334,-2.988,-2.9538,-2.9134,-2.825,-2.7572,-2.7221,-2.6388,-2.5978,-2.5948,-2.5603,-2.5451,-2.5335,-2.4913,-2.4416,-2.3947,-2.3092,-2.2325,-2.19,-2.1402,-2.1115,-2.1005,-2.0994,-2.1418,-2.2252,-2.2887,-2.3304,-2.3553,-2.3604,-2.361,-2.3585,-2.361,-2.3845,-2.4314,-2.4364,-2.4604,-2.5101,-2.5149,-2.5201,-2.5219,-2.5303,-2.534,-2.5388,-2.5404,-2.5429,-2.5448,-2.5437,-2.5445,-2.5445,-2.5445,-2.5445,-2.5449,-2.5476,-2.5513,-2.5513,-2.5508,-2.5541,-2.5547,-2.5599,-2.5627,-2.5634,-2.521,-2.4603,-2.3735,-2.2902,-2.2084,-2.1303,-2.0833,-2.0617,-2.0597,-2.0597,-2.0597,-2.0596,-2.0596,-2.0596,-2.0594,-2.0595,-2.0596,-2.0596,-2.0595,-2.0594,-2.0594,-2.0594,-2.0594,-2.0594,-2.0594,-2.0613,-2.0574,-2.0477,-2.0477,-2.0652,-2.0594,-2.0594,-2.0516,-2.0535,-2.0477,-1.9968,-1.9832,-1.9833,-2.9222,-2.9351,-2.9453,-2.9579,-2.9718,-2.9825,-2.9868,-2.9912,-2.9899,-2.9916,-2.9878,-2.972,-2.9661,-2.9752,-3.0021,-3.0084,-2.9864,-2.9301,-2.8816,-2.8398,-2.721,-2.6559,-2.6296,-2.5728,-2.5395,-2.54,-2.5406,-2.5369,-2.5254,-2.4489,-2.3909,-2.3429,-2.2144,-2.1254,-2.0896,-2.0256,-1.9942,-1.9864,-1.9847,-2.0107,-2.0734,-2.1406,-2.1977,-2.2387,-2.2438,-2.2444,-2.2444,-2.2438,-2.2741,-2.3334,-2.3391,-2.3746,-2.4518,-2.4638,-2.4772,-2.5018,-2.5143,-2.5212,-2.5217,-2.5279,-2.5332,-2.5332,-2.5346,-2.5379,-2.5379,-2.5364,-2.5369,-2.5373,-2.5412,-2.5456,-2.5472,-2.5461,-2.5479,-2.5511,-2.5554,-2.5513,-2.5221,-2.466,-2.3979,-2.2924,-2.227,-2.1553,-2.0831,-2.0595,-2.0594,-2.0594,-2.0594,-2.0594,-2.0594,-2.0594,-2.0594,-2.0594,-2.0594,-2.0594,-2.0594,-2.0594,-2.0594,-2.0594,-2.0594,-2.0594,-2.0535,-2.0457,-2.0242,-1.9988,-2.0028,-1.9832,-1.9559,-1.9696,-1.991,-1.9891,-1.9871,-1.9735,-1.907,-1.8953,-1.8933,-2.9078,-2.9222,-2.9412,-2.9569,-2.9701,-2.9773,-2.9834,-2.9904,-2.988,-2.9869,-2.9745,-2.9082,-2.876,-2.8821,-2.9597,-2.9651,-2.9007,-2.8829,-2.8069,-2.6937,-2.6621,-2.6174,-2.5487,-2.5391,-2.5402,-2.5374,-2.537,-2.5332,-2.5165,-2.4359,-2.3508,-2.2574,-2.1684,-2.0831,-2.0132,-1.994,-1.9843,-1.9707,-1.9712,-1.9729,-1.9692,-1.9766,-2.0646,-2.198,-2.2264,-2.217,-2.2233,-2.227,-2.2308,-2.2364,-2.2371,-2.2736,-2.3465,-2.3585,-2.3992,-2.4769,-2.4967,-2.5006,-2.5019,-2.5061,-2.5121,-2.5132,-2.5225,-2.5292,-2.5273,-2.5288,-2.5284,-2.5308,-2.5298,-2.5341,-2.5406,-2.5408,-2.5452,-2.5472,-2.5494,-2.5169,-2.4474,-2.4326,-2.3531,-2.2323,-2.1812,-2.1391,-2.0691,-2.0594,-2.0594,-2.0594,-2.0594,-2.0555,-2.0477,-2.0516,-2.0477,-2.0398,-2.0398,-2.0555,-2.0555,-2.0594,-2.0594,-2.0535,-2.0516,-2.0496,-2.0281,-2.0027,-1.9636,-1.9245,-1.8856,-1.8544,-1.8251,-1.8212,-1.8368,-1.8446,-1.8525,-1.831,-1.8133,-1.8076,-1.8055,-2.8905,-2.9096,-2.9294,-2.9421,-2.9521,-2.9683,-2.9764,-2.9796,-2.928,-2.9096,-2.8979,-2.8275,-2.7941,-2.7941,-2.8275,-2.8262,-2.797,-2.7523,-2.7006,-2.6422,-2.5951,-2.5566,-2.537,-2.5298,-2.5269,-2.5259,-2.5262,-2.5239,-2.4956,-2.3736,-2.284,-2.2278,-2.1049,-2.0172,-1.9845,-1.9763,-1.9712,-1.9587,-1.9527,-1.9504,-1.9464,-1.9424,-1.9749,-2.0322,-2.052,-2.0581,-2.0581,-2.0581,-2.0805,-2.1323,-2.1342,-2.1704,-2.2496,-2.3071,-2.3772,-2.4565,-2.4776,-2.4827,-2.487,-2.4881,-2.4929,-2.4974,-2.5019,-2.5075,-2.5111,-2.5138,-2.5176,-2.5212,-2.5228,-2.5234,-2.5279,-2.5346,-2.541,-2.5432,-2.5418,-2.5089,-2.4374,-2.3792,-2.3011,-2.2011,-2.1393,-2.09,-2.0725,-2.0591,-2.0594,-2.0594,-2.0594,-2.0339,-1.989,-1.9753,-1.9636,-1.911,-1.8934,-1.8934,-1.8934,-1.9989,-2.0535,-2.0398,-2.0261,-1.9871,-1.9577,-1.8992,-1.8543,-1.8446,-1.7978,-1.7763,-1.7646,-1.7666,-1.7666,-1.7744,-1.7763,-1.7392,-1.7275,-1.7197,-1.7177,-2.881,-2.8975,-2.913,-2.9272,-2.938,-2.955,-2.9532,-2.9348,-2.8831,-2.8482,-2.8191,-2.7449,-2.7088,-2.7013,-2.6804,-2.6686,-2.6695,-2.6434,-2.6231,-2.5951,-2.5419,-2.5204,-2.5225,-2.5195,-2.5154,-2.5132,-2.5116,-2.4967,-2.4487,-2.317,-2.2318,-2.1853,-2.0508,-1.9789,-1.9673,-1.9633,-1.9553,-1.9449,-1.9391,-1.9364,-1.9344,-1.9295,-1.9269,-1.9285,-1.9387,-1.9479,-1.9501,-1.9526,-1.9744,-2.027,-2.0359,-2.0745,-2.1561,-2.2659,-2.3529,-2.4102,-2.4439,-2.4637,-2.4668,-2.4696,-2.4734,-2.4783,-2.4816,-2.4879,-2.4934,-2.5,-2.5087,-2.5134,-2.5193,-2.5209,-2.5222,-2.5288,-2.5346,-2.5312,-2.5146,-2.4651,-2.384,-2.304,-2.2258,-2.1471,-2.0915,-2.0616,-2.0563,-2.0588,-2.059,-2.0591,-2.0398,-1.989,-1.944,-1.9012,-1.8739,-1.8154,-1.8134,-1.8173,-1.8232,-1.9013,-1.9383,-1.9286,-1.9324,-1.9011,-1.8699,-1.8055,-1.7627,-1.7549,-1.7413,-1.7256,-1.7178,-1.7178,-1.7197,-1.7256,-1.6924,-1.6494,-1.6397,-1.628,-1.6338,-2.8767,-2.8905,-2.8982,-2.913,-2.9304,-2.9358,-2.9102,-2.8627,-2.8474,-2.7982,-2.7377,-2.6577,-2.6216,-2.6084,-2.5572,-2.5124,-2.5339,-2.5866,-2.5837,-2.5234,-2.5126,-2.5093,-2.5103,-2.5109,-2.5062,-2.5,-2.4935,-2.4477,-2.3671,-2.281,-2.1965,-2.1032,-2.0187,-1.9679,-1.9583,-1.9482,-1.9372,-1.9305,-1.9295,-1.9266,-1.9192,-1.9192,-1.9211,-1.9202,-1.9192,-1.924,-1.9289,-1.9357,-1.9434,-1.9453,-1.9535,-1.9889,-2.0839,-2.2128,-2.3142,-2.3355,-2.3927,-2.4315,-2.4407,-2.4478,-2.4503,-2.4555,-2.4637,-2.4715,-2.4783,-2.4858,-2.4961,-2.5063,-2.5143,-2.5189,-2.519,-2.5116,-2.5093,-2.521,-2.4615,-2.3893,-2.2929,-2.2151,-2.1407,-2.076,-2.0513,-2.0504,-2.0515,-2.0543,-2.0586,-2.047,-1.9964,-1.9381,-1.9069,-1.8485,-1.8056,-1.7842,-1.7549,-1.7334,-1.7646,-1.7978,-1.7979,-1.7979,-1.8056,-1.7977,-1.7782,-1.7295,-1.6826,-1.6651,-1.6397,-1.6221,-1.6222,-1.6202,-1.6066,-1.6027,-1.5753,-1.5812,-1.5792,-1.5773,-1.5675,-2.8687,-2.8767,-2.8875,-2.9044,-2.9158,-2.8795,-2.8512,-2.8292,-2.7369,-2.6752,-2.6412,-2.571,-2.5363,-2.5325,-2.5079,-2.4984,-2.5022,-2.5282,-2.5252,-2.5076,-2.5082,-2.507,-2.5025,-2.5025,-2.4974,-2.4879,-2.4842,-2.435,-2.3445,-2.2642,-2.1798,-2.0872,-2.0029,-1.958,-1.9416,-1.9342,-1.9308,-1.924,-1.9182,-1.9158,-1.9134,-1.9086,-1.907,-1.9052,-1.9035,-1.9025,-1.9076,-1.92,-1.9259,-1.9266,-1.9282,-1.9664,-2.0431,-2.0979,-2.1804,-2.2849,-2.3208,-2.3667,-2.4201,-2.4275,-2.4311,-2.4366,-2.4455,-2.4549,-2.4655,-2.473,-2.4842,-2.4946,-2.5051,-2.5132,-2.5053,-2.4599,-2.4408,-2.4403,-2.4168,-2.3381,-2.2102,-2.1287,-2.0754,-2.0512,-2.0472,-2.0513,-2.0504,-2.0533,-2.0539,-2.0462,-1.9803,-1.9123,-1.8461,-1.7702,-1.6826,-1.6378,-1.6319,-1.6456,-1.6632,-1.6749,-1.6729,-1.6866,-1.6982,-1.708,-1.6885,-1.6651,-1.6182,-1.5889,-1.5597,-1.546,-1.5422,-1.5402,-1.5402,-1.5402,-1.5539,-1.552,-1.5441,-1.5402,-1.5402,-2.8625,-2.8687,-2.8822,-2.8769,-2.8633,-2.8248,-2.783,-2.7378,-2.6473,-2.591,-2.5603,-2.521,-2.4984,-2.4984,-2.4984,-2.4984,-2.4984,-2.4984,-2.4984,-2.4979,-2.4992,-2.4992,-2.4953,-2.4905,-2.4856,-2.4776,-2.4742,-2.4087,-2.2948,-2.2365,-2.1511,-2.0396,-1.9789,-1.9457,-1.9305,-1.9277,-1.9222,-1.9176,-1.9135,-1.9084,-1.9059,-1.9026,-1.8984,-1.8948,-1.8931,-1.8913,-1.8975,-1.906,-1.9101,-1.916,-1.9176,-1.9474,-1.9938,-2.0275,-2.0904,-2.1789,-2.2566,-2.3124,-2.3647,-2.395,-2.4135,-2.4191,-2.4266,-2.4358,-2.449,-2.4599,-2.4723,-2.4849,-2.4972,-2.5089,-2.4986,-2.4381,-2.3848,-2.348,-2.3145,-2.2465,-2.125,-2.0648,-2.042,-2.0407,-2.0443,-2.0492,-2.0511,-2.0503,-2.0511,-2.0377,-1.9525,-1.8729,-1.7891,-1.6976,-1.614,-1.5576,-1.5654,-1.5675,-1.552,-1.552,-1.55,-1.5734,-1.5987,-1.6124,-1.6105,-1.5948,-1.5617,-1.5636,-1.5441,-1.5441,-1.5402,-1.5402,-1.5402,-1.5402,-1.5402,-1.5402,-1.5402,-1.5402,-1.5421,-2.8455,-2.8485,-2.8573,-2.8195,-2.7695,-2.768,-2.7046,-2.6018,-2.5861,-2.551,-2.5047,-2.4995,-2.5003,-2.5003,-2.4984,-2.4984,-2.4984,-2.4984,-2.4964,-2.4931,-2.4924,-2.4891,-2.4863,-2.4776,-2.4734,-2.4676,-2.4621,-2.3769,-2.2498,-2.2125,-2.1187,-1.9893,-1.9597,-1.9375,-1.9292,-1.9232,-1.9184,-1.9125,-1.9094,-1.9062,-1.9019,-1.9002,-1.8966,-1.8913,-1.8887,-1.8887,-1.8913,-1.8922,-1.8982,-1.9082,-1.9134,-1.9196,-1.9348,-1.994,-2.0313,-2.0641,-2.189,-2.2537,-2.2902,-2.3432,-2.3878,-2.4008,-2.4133,-2.4228,-2.4321,-2.4471,-2.4629,-2.4749,-2.4903,-2.5011,-2.4936,-2.423,-2.3394,-2.2505,-2.1866,-2.1138,-2.0465,-2.0304,-2.034,-2.0396,-2.0451,-2.0502,-2.0498,-2.0511,-2.0461,-2.0077,-1.9032,-1.8237,-1.7556,-1.666,-1.5706,-1.5416,-1.5418,-1.542,-1.5421,-1.5402,-1.5402,-1.5461,-1.5617,-1.5636,-1.5675,-1.5519,-1.5402,-1.5402,-1.5421,-1.5421,-1.5402,-1.5422,-1.5402,-1.5402,-1.5402,-1.5402,-1.5421,-1.5421,-1.542,-2.6838,-2.6849,-2.6901,-2.6895,-2.6739,-2.6366,-2.6033,-2.5678,-2.5215,-2.5009,-2.4843,-2.4915,-2.4957,-2.4984,-2.5003,-2.4984,-2.4984,-2.5003,-2.4971,-2.491,-2.4856,-2.4787,-2.4761,-2.4718,-2.4647,-2.458,-2.4518,-2.3973,-2.293,-2.2274,-2.1419,-2.0392,-1.9686,-1.9344,-1.9232,-1.9208,-1.9152,-1.9094,-1.9043,-1.9027,-1.8984,-1.8949,-1.8914,-1.8905,-1.8852,-1.8852,-1.8878,-1.8887,-1.8948,-1.9026,-1.9035,-1.9087,-1.9157,-1.9383,-1.9736,-2.0281,-2.0735,-2.1579,-2.2504,-2.2925,-2.3299,-2.3873,-2.4054,-2.4161,-2.4218,-2.4358,-2.4507,-2.4637,-2.4768,-2.4898,-2.479,-2.3787,-2.2454,-2.1029,-2.069,-2.0503,-2.0323,-2.0273,-2.0307,-2.034,-2.0374,-2.0439,-2.0493,-2.0478,-2.0258,-1.9623,-1.8733,-1.7744,-1.714,-1.6345,-1.5411,-1.5413,-1.5416,-1.5418,-1.542,-1.5421,-1.5402,-1.5402,-1.546,-1.5479,-1.5499,-1.546,-1.5421,-1.5402,-1.542,-1.542,-1.5421,-1.5421,-1.5421,-1.542,-1.5421,-1.542,-1.542,-1.5419,-1.5416,-2.6186,-2.6204,-2.6284,-2.6151,-2.5888,-2.5586,-2.5337,-2.5078,-2.4779,-2.4668,-2.4757,-2.4843,-2.4908,-2.4957,-2.4917,-2.4943,-2.4938,-2.4943,-2.4889,-2.4872,-2.4795,-2.4742,-2.4695,-2.4639,-2.4564,-2.4522,-2.4505,-2.3987,-2.3165,-2.2346,-2.1517,-2.0646,-1.9799,-1.9303,-1.9208,-1.9192,-1.917,-1.9104,-1.9053,-1.9027,-1.8966,-1.8931,-1.8887,-1.8861,-1.8833,-1.8815,-1.8852,-1.8861,-1.8896,-1.8949,-1.8975,-1.901,-1.9053,-1.9062,-1.9287,-1.9793,-2.0101,-2.0898,-2.1948,-2.2467,-2.3049,-2.3694,-2.3966,-2.4064,-2.4152,-2.4294,-2.442,-2.458,-2.4715,-2.4856,-2.4688,-2.3539,-2.1925,-2.0552,-2.0131,-2.0159,-2.0196,-2.0229,-2.0262,-2.0297,-2.035,-2.0438,-2.0497,-2.0504,-2.0071,-1.9362,-1.8589,-1.7676,-1.686,-1.5988,-1.5408,-1.541,-1.5412,-1.5414,-1.5416,-1.5416,-1.5417,-1.5418,-1.5416,-1.5417,-1.5418,-1.5418,-1.5418,-1.5418,-1.5418,-1.5417,-1.5417,-1.5417,-1.5416,-1.5416,-1.5417,-1.5417,-1.5416,-1.5414,-1.5411,-2.583,-2.5842,-2.5993,-2.5641,-2.5055,-2.5165,-2.4881,-2.4404,-2.4464,-2.4561,-2.4684,-2.4776,-2.4832,-2.4903,-2.4842,-2.4823,-2.4877,-2.4849,-2.4824,-2.4798,-2.4737,-2.4682,-2.4674,-2.4564,-2.4522,-2.4505,-2.4517,-2.4101,-2.3343,-2.2459,-2.1594,-2.0823,-1.9876,-1.9314,-1.9224,-1.92,-1.917,-1.912,-1.9078,-1.9036,-1.8948,-1.8922,-1.8878,-1.8834,-1.8824,-1.8806,-1.8806,-1.8806,-1.8843,-1.8896,-1.8887,-1.8931,-1.8984,-1.901,-1.9046,-1.9287,-1.992,-2.0699,-2.1486,-2.231,-2.3017,-2.3653,-2.3858,-2.3937,-2.4075,-2.4219,-2.4366,-2.4539,-2.4703,-2.4702,-2.4277,-2.3233,-2.1807,-2.0456,-2.0117,-2.0126,-2.0173,-2.0197,-2.0231,-2.0283,-2.0334,-2.0418,-2.0478,-2.0431,-2.014,-1.889,-1.8195,-1.7496,-1.664,-1.5807,-1.546,-1.5406,-1.5408,-1.5409,-1.5409,-1.541,-1.541,-1.541,-1.5408,-1.5408,-1.5412,-1.5413,-1.5413,-1.5413,-1.5413,-1.5412,-1.541,-1.5409,-1.5408,-1.5408,-1.5408,-1.5408,-1.5407,-1.5405,-1.542,-2.3451,-2.3495,-2.4088,-2.4265,-2.4179,-2.4261,-2.4278,-2.4237,-2.4376,-2.4479,-2.4604,-2.4703,-2.478,-2.4808,-2.4794,-2.482,-2.4834,-2.4794,-2.4809,-2.4791,-2.4682,-2.4623,-2.4607,-2.4539,-2.4505,-2.4498,-2.4508,-2.4388,-2.3879,-2.2745,-2.1826,-2.1477,-2.0171,-1.9285,-1.9274,-1.9208,-1.9168,-1.9101,-1.906,-1.9027,-1.8984,-1.894,-1.8895,-1.886,-1.887,-1.8843,-1.8806,-1.8797,-1.8815,-1.8843,-1.887,-1.8914,-1.8931,-1.8957,-1.8992,-1.9199,-1.983,-2.0644,-2.145,-2.2246,-2.3006,-2.3679,-2.3847,-2.3927,-2.4016,-2.4153,-2.4275,-2.4452,-2.4591,-2.4296,-2.3316,-2.2272,-2.1277,-2.0418,-2.0112,-2.0112,-2.0126,-2.0167,-2.0199,-2.0239,-2.0278,-2.0356,-2.0418,-2.0473,-1.9836,-1.8572,-1.782,-1.724,-1.6443,-1.5606,-1.5472,-1.5418,-1.5419,-1.5419,-1.542,-1.5419,-1.5417,-1.5397,-1.5393,-1.5392,-1.5398,-1.5403,-1.5382,-1.5404,-1.5408,-1.5405,-1.5417,-1.5396,-1.5393,-1.5394,-1.5394,-1.5393,-1.5392,-1.5391,-1.539,-2.2355,-2.2735,-2.3125,-2.3508,-2.3829,-2.3935,-2.4026,-2.4142,-2.4266,-2.4412,-2.4532,-2.4596,-2.4668,-2.4761,-2.4768,-2.4768,-2.4783,-2.4749,-2.4738,-2.4718,-2.4639,-2.458,-2.4547,-2.4513,-2.4498,-2.45,-2.45,-2.45,-2.4129,-2.3225,-2.2331,-2.1855,-2.0555,-1.973,-1.9345,-1.9279,-1.9176,-1.9117,-1.9069,-1.9036,-1.901,-1.8975,-1.8931,-1.8904,-1.8896,-1.8878,-1.8843,-1.8852,-1.8852,-1.8861,-1.8878,-1.8896,-1.8895,-1.8958,-1.8975,-1.9171,-1.983,-2.0644,-2.1441,-2.2246,-2.3017,-2.3723,-2.3827,-2.3907,-2.4006,-2.4124,-2.4284,-2.4417,-2.4452,-2.4105,-2.2676,-2.1857,-2.1048,-2.0341,-2.0112,-2.0112,-2.0122,-2.0158,-2.0201,-2.0219,-2.0264,-2.0318,-2.038,-2.0439,-1.9608,-1.8403,-1.8022,-1.7404,-1.6161,-1.546,-1.5443,-1.5407,-1.5409,-1.541,-1.541,-1.5407,-1.5421,-1.5398,-1.5372,-1.535,-1.5353,-1.536,-1.5347,-1.537,-1.5393,-1.5404,-1.5417,-1.5396,-1.5374,-1.5351,-1.535,-1.5351,-1.5351,-1.5349,-1.5349,-2.1712,-2.2355,-2.259,-2.3071,-2.3606,-2.3803,-2.3966,-2.4074,-2.4161,-2.4303,-2.4446,-2.4488,-2.4596,-2.4676,-2.4707,-2.4723,-2.4749,-2.4734,-2.4703,-2.469,-2.4615,-2.4555,-2.4503,-2.4507,-2.4508,-2.45,-2.45,-2.45,-2.4286,-2.364,-2.2782,-2.2066,-2.1234,-2.0559,-1.9882,-1.9652,-1.9766,-1.9777,-1.9555,-1.9395,-1.9243,-1.9162,-1.8992,-1.894,-1.8913,-1.8913,-1.8887,-1.8887,-1.8895,-1.8922,-1.9012,-1.9084,-1.9093,-1.912,-1.9137,-1.9341,-2.0273,-2.1151,-2.1821,-2.25,-2.3206,-2.3777,-2.3806,-2.3876,-2.3996,-2.4133,-2.4284,-2.4321,-2.4275,-2.3714,-2.2606,-2.1585,-2.0857,-2.0308,-2.0112,-2.0117,-2.0131,-2.0182,-2.0205,-2.0211,-2.0249,-2.0305,-2.0365,-2.0382,-1.932,-1.8407,-1.8067,-1.7411,-1.6167,-1.539,-1.539,-1.5372,-1.5372,-1.5354,-1.5354,-1.5369,-1.5381,-1.5375,-1.5329,-1.5324,-1.5303,-1.5324,-1.5334,-1.5349,-1.5371,-1.5381,-1.5373,-1.5349,-1.5326,-1.5303,-1.5299,-1.5319,-1.5301,-1.5301,-1.5303,-2.0526,-2.0798,-2.2156,-2.2771,-2.297,-2.3552,-2.3876,-2.3955,-2.4074,-2.42,-2.433,-2.4444,-2.4564,-2.4663,-2.4692,-2.4707,-2.4707,-2.4703,-2.469,-2.4666,-2.4599,-2.4512,-2.4513,-2.4498,-2.45,-2.45,-2.45,-2.45,-2.4305,-2.364,-2.3188,-2.2811,-2.206,-2.143,-2.1268,-2.1283,-2.1048,-2.0812,-2.0387,-2.0062,-1.9909,-1.9403,-1.9053,-1.8974,-1.8984,-1.8957,-1.8913,-1.8913,-1.8886,-1.8958,-1.9534,-1.9858,-2.0002,-2.0029,-2.0056,-2.03,-2.1304,-2.2129,-2.2437,-2.3143,-2.3578,-2.3777,-2.3806,-2.3876,-2.3996,-2.4133,-2.4312,-2.4176,-2.3594,-2.2785,-2.2517,-2.1304,-2.0456,-2.0117,-2.015,-2.0187,-2.0177,-2.0184,-2.0195,-2.0199,-2.0261,-2.0295,-2.035,-2.0247,-1.9537,-1.8662,-1.8107,-1.7295,-1.609,-1.5507,-1.5313,-1.5313,-1.5294,-1.5294,-1.5294,-1.5306,-1.5317,-1.533,-1.5303,-1.5291,-1.5287,-1.528,-1.5311,-1.5311,-1.5322,-1.5319,-1.5309,-1.5319,-1.5293,-1.527,-1.5285,-1.528,-1.5265,-1.527,-1.5272,-1.9831,-2.0364,-2.1567,-2.2319,-2.2799,-2.3487,-2.3827,-2.3925,-2.4006,-2.4124,-2.4257,-2.4382,-2.452,-2.4631,-2.4676,-2.4681,-2.4692,-2.4687,-2.4674,-2.4631,-2.4537,-2.4513,-2.4515,-2.4508,-2.45,-2.45,-2.45,-2.45,-2.4481,-2.4111,-2.3621,-2.3169,-2.2693,-2.2335,-2.1924,-2.1718,-2.1804,-2.1613,-2.0985,-2.0458,-2.0342,-1.9545,-1.914,-1.907,-1.9071,-1.9036,-1.9018,-1.9009,-1.9226,-1.9614,-2.0011,-2.0409,-2.0824,-2.1213,-2.1295,-2.1204,-2.2037,-2.2727,-2.2835,-2.3379,-2.3759,-2.3788,-2.3827,-2.3896,-2.4006,-2.4134,-2.4339,-2.4238,-2.3356,-2.2504,-2.2505,-2.1057,-2.0322,-2.0159,-2.0196,-2.0214,-2.0203,-2.021,-2.0214,-2.0218,-2.0258,-2.0304,-2.0312,-2.0091,-1.9674,-1.901,-1.8246,-1.7198,-1.607,-1.5581,-1.5288,-1.5284,-1.5284,-1.5282,-1.5282,-1.5276,-1.527,-1.5283,-1.5274,-1.5262,-1.5253,-1.5248,-1.5253,-1.5248,-1.5255,-1.5283,-1.5274,-1.5279,-1.5275,-1.5253,-1.5251,-1.5248,-1.5231,-1.5234,-1.5238,-1.9336,-2.0011,-2.0851,-2.1684,-2.248,-2.3242,-2.3679,-2.3876,-2.3976,-2.4067,-2.4201,-2.4338,-2.4468,-2.4588,-2.466,-2.4681,-2.47,-2.4671,-2.4639,-2.4588,-2.453,-2.4507,-2.4508,-2.45,-2.45,-2.45,-2.45,-2.45,-2.45,-2.4417,-2.4074,-2.3732,-2.3474,-2.3152,-2.2639,-2.2606,-2.2314,-2.2049,-2.1455,-2.0918,-2.0328,-1.9759,-1.9253,-1.9201,-1.9247,-1.9411,-1.943,-1.9675,-2.001,-2.0436,-2.078,-2.1115,-2.1739,-2.2481,-2.259,-2.2202,-2.26,-2.2854,-2.3107,-2.3415,-2.3795,-2.3795,-2.3847,-2.3927,-2.4037,-2.4192,-2.4408,-2.4441,-2.3417,-2.2546,-2.2386,-2.1139,-2.0383,-2.0209,-2.0203,-2.0205,-2.0205,-2.0199,-2.023,-2.025,-2.0288,-2.031,-2.0311,-2.0218,-1.984,-1.909,-1.8304,-1.7454,-1.6384,-1.5588,-1.5274,-1.5269,-1.5265,-1.5262,-1.526,-1.5258,-1.5253,-1.5251,-1.5243,-1.5211,-1.5204,-1.5198,-1.5204,-1.5228,-1.5226,-1.525,-1.5242,-1.5248,-1.5231,-1.5228,-1.5201,-1.5198,-1.5209,-1.5211,-1.5214,-1.8914,-1.9147,-1.9948,-2.0722,-2.1524,-2.2403,-2.3182,-2.3756,-2.3909,-2.4084,-2.42,-2.4347,-2.4486,-2.4615,-2.4668,-2.4681,-2.4684,-2.4637,-2.4615,-2.4572,-2.4532,-2.4508,-2.45,-2.45,-2.45,-2.45,-2.45,-2.45,-2.45,-2.45,-2.4481,-2.4259,-2.4142,-2.4125,-2.3801,-2.3673,-2.4017,-2.3796,-2.3068,-2.194,-2.0789,-2.0338,-1.993,-1.9668,-1.9868,-2.0206,-2.0262,-2.0617,-2.1125,-2.1342,-2.2021,-2.2401,-2.2662,-2.327,-2.3578,-2.3588,-2.3643,-2.3679,-2.3643,-2.3733,-2.3806,-2.3827,-2.3868,-2.3945,-2.4095,-2.4321,-2.4553,-2.4674,-2.3379,-2.2513,-2.2211,-2.1091,-2.043,-2.0203,-2.021,-2.0203,-2.0207,-2.023,-2.0257,-2.0269,-2.0296,-2.0304,-2.0295,-2.0208,-2.0002,-1.9171,-1.836,-1.7548,-1.6678,-1.5867,-1.5246,-1.5241,-1.5233,-1.5228,-1.5245,-1.5242,-1.524,-1.5218,-1.5212,-1.5204,-1.5202,-1.5199,-1.5188,-1.521,-1.5226,-1.5215,-1.5226,-1.5212,-1.521,-1.5204,-1.5199,-1.5202,-1.5207,-1.519,-1.519,-1.8751,-1.8932,-1.9767,-2.0289,-2.0766,-2.2014,-2.2793,-2.3185,-2.3753,-2.4066,-2.42,-2.4347,-2.4485,-2.4637,-2.4692,-2.4681,-2.4684,-2.4639,-2.4599,-2.4582,-2.4524,-2.45,-2.45,-2.45,-2.45,-2.45,-2.45,-2.45,-2.45,-2.45,-2.45,-2.4491,-2.4474,-2.4399,-2.4436,-2.4428,-2.4391,-2.4132,-2.3514,-2.2477,-2.1564,-2.1183,-2.0975,-2.0568,-2.0905,-2.1015,-2.1143,-2.128,-2.1826,-2.2116,-2.2662,-2.2998,-2.3343,-2.3735,-2.3907,-2.3917,-2.3917,-2.3868,-2.3798,-2.3837,-2.3847,-2.3886,-2.3947,-2.4056,-2.4191,-2.44,-2.4385,-2.405,-2.3139,-2.2458,-2.1916,-2.0857,-2.0433,-2.021,-2.0226,-2.0234,-2.0238,-2.0265,-2.0288,-2.0292,-2.03,-2.0285,-2.0296,-2.0245,-2.0169,-1.9764,-1.8934,-1.8104,-1.7081,-1.6036,-1.5532,-1.5198,-1.5207,-1.5215,-1.5215,-1.5212,-1.5215,-1.5212,-1.5212,-1.5207,-1.5207,-1.5201,-1.5195,-1.5195,-1.5198,-1.5207,-1.5196,-1.5196,-1.5193,-1.5207,-1.5201,-1.5207,-1.5193,-1.519,-1.519,-1.8629,-1.8822,-1.9478,-1.9875,-2.0207,-2.166,-2.2411,-2.2702,-2.3598,-2.4074,-2.42,-2.4347,-2.4537,-2.4668,-2.4692,-2.4681,-2.4681,-2.4639,-2.4607,-2.4574,-2.4524,-2.4508,-2.45,-2.45,-2.45,-2.45,-2.45,-2.45,-2.45,-2.45,-2.45,-2.45,-2.449,-2.4488,-2.4495,-2.4495,-2.4495,-2.4422,-2.3916,-2.309,-2.2321,-2.214,-2.1914,-2.177,-2.1807,-2.1944,-2.1954,-2.2246,-2.2675,-2.2948,-2.3121,-2.3439,-2.384,-2.3931,-2.3968,-2.3968,-2.3968,-2.3947,-2.3907,-2.3907,-2.3935,-2.3966,-2.4054,-2.4162,-2.4275,-2.4452,-2.4506,-2.405,-2.3031,-2.2338,-2.1668,-2.0866,-2.0312,-2.0222,-2.0261,-2.0285,-2.0288,-2.0288,-2.0288,-2.0292,-2.0292,-2.0292,-2.0304,-2.0304,-2.0237,-2.0164,-1.9528,-1.8622,-1.7443,-1.6187,-1.5625,-1.5237,-1.5193,-1.5201,-1.5198,-1.5198,-1.5195,-1.5192,-1.5192,-1.5192,-1.5192,-1.5195,-1.5195,-1.5195,-1.5192,-1.5198,-1.5207,-1.5198,-1.5195,-1.5195,-1.5198,-1.5195,-1.5195,-1.5195,-1.5195,-1.8559,-1.8625,-1.8822,-1.9333,-2.0031,-2.0997,-2.181,-2.2489,-2.3515,-2.3963,-2.4033,-2.4328,-2.4425,-2.4551,-2.4496,-2.4561,-2.4643,-2.4639,-2.4607,-2.4574,-2.4532,-2.4508,-2.45,-2.45,-2.45,-2.45,-2.45,-2.45,-2.45,-2.45,-2.45,-2.45,-2.4515,-2.4513,-2.452,-2.4572,-2.4564,-2.452,-2.4283,-2.3898,-2.3292,-2.2972,-2.2689,-2.224,-2.2518,-2.2895,-2.285,-2.3344,-2.3645,-2.3789,-2.3752,-2.377,-2.3999,-2.4026,-2.4026,-2.4026,-2.4026,-2.4006,-2.3996,-2.3986,-2.3996,-2.4026,-2.4113,-2.4219,-2.4294,-2.4479,-2.4543,-2.4313,-2.3163,-2.2505,-2.1934,-2.1283,-2.0323,-2.0222,-2.0238,-2.0265,-2.0285,-2.0288,-2.0288,-2.0288,-2.0288,-2.0288,-2.0288,-2.0289,-2.0292,-2.0219,-1.9526,-1.8621,-1.7404,-1.6227,-1.5644,-1.5256,-1.5217,-1.5195,-1.5195,-1.5192,-1.5189,-1.5186,-1.5183,-1.5183,-1.5167,-1.5186,-1.5189,-1.5189,-1.5209,-1.5192,-1.5192,-1.5186,-1.5167,-1.5192,-1.5195,-1.5195,-1.5195,-1.5195,-1.5195,-1.8388,-1.8542,-1.8639,-1.8902,-1.9324,-2.0188,-2.1036,-2.184,-2.2777,-2.3306,-2.3493,-2.3604,-2.3494,-2.3386,-2.3742,-2.3892,-2.3978,-2.4444,-2.4497,-2.4539,-2.4515,-2.45,-2.45,-2.45,-2.45,-2.45,-2.45,-2.45,-2.45,-2.45,-2.45,-2.4508,-2.4505,-2.4539,-2.4572,-2.4613,-2.4613,-2.4572,-2.4549,-2.4283,-2.4087,-2.3913,-2.372,-2.3464,-2.3456,-2.3713,-2.374,-2.3969,-2.4114,-2.4141,-2.4113,-2.4113,-2.4103,-2.4103,-2.4103,-2.4103,-2.4122,-2.4103,-2.4103,-2.4084,-2.4084,-2.4123,-2.42,-2.4275,-2.4312,-2.4479,-2.4279,-2.3799,-2.3097,-2.2425,-2.1662,-2.0833,-2.0139,-2.019,-2.0215,-2.0257,-2.0265,-2.0285,-2.0288,-2.0288,-2.0288,-2.0288,-2.0288,-2.0292,-2.0292,-2.0235,-1.9446,-1.8584,-1.7411,-1.6388,-1.5808,-1.5305,-1.5209,-1.5186,-1.5186,-1.5186,-1.5203,-1.518,-1.5155,-1.5155,-1.5155,-1.5177,-1.52,-1.52,-1.52,-1.518,-1.5177,-1.5155,-1.5155,-1.5183,-1.5189,-1.5195,-1.5195,-1.5192,-1.5189,-1.8266,-1.8426,-1.8526,-1.8631,-1.8877,-1.9712,-2.0424,-2.102,-2.194,-2.2474,-2.2708,-2.2763,-2.2601,-2.2425,-2.2701,-2.3262,-2.3509,-2.3926,-2.4267,-2.442,-2.4507,-2.45,-2.45,-2.45,-2.45,-2.45,-2.45,-2.45,-2.45,-2.45,-2.45,-2.4508,-2.4505,-2.4547,-2.4588,-2.4663,-2.4671,-2.4623,-2.4574,-2.4541,-2.441,-2.4393,-2.4347,-2.421,-2.4183,-2.4118,-2.409,-2.4172,-2.4171,-2.419,-2.419,-2.419,-2.419,-2.4199,-2.4199,-2.4199,-2.4199,-2.419,-2.4181,-2.4171,-2.4162,-2.4219,-2.4275,-2.4321,-2.4357,-2.4471,-2.4337,-2.3978,-2.3067,-2.2155,-2.1512,-2.0797,-2.0174,-2.0128,-2.0186,-2.0222,-2.0257,-2.0265,-2.0288,-2.0288,-2.0288,-2.0288,-2.0288,-2.0288,-2.0288,-2.0135,-1.9481,-1.8677,-1.7718,-1.6772,-1.6019,-1.5555,-1.5206,-1.518,-1.5177,-1.5171,-1.5146,-1.5149,-1.5124,-1.512,-1.5124,-1.5162,-1.5165,-1.5146,-1.5146,-1.5165,-1.5159,-1.5127,-1.514,-1.5171,-1.5177,-1.5158,-1.5158,-1.5155,-1.5158,-1.8148,-1.8218,-1.8426,-1.8565,-1.8768,-1.9692,-2.0099,-2.038,-2.1196,-2.1689,-2.1821,-2.1896,-2.1882,-2.1857,-2.1969,-2.2507,-2.3142,-2.3372,-2.3795,-2.4375,-2.4498,-2.45,-2.45,-2.45,-2.45,-2.45,-2.45,-2.45,-2.45,-2.45,-2.45,-2.4508,-2.4505,-2.4547,-2.4588,-2.4666,-2.4658,-2.458,-2.4539,-2.4497,-2.4481,-2.4482,-2.4447,-2.4375,-2.4321,-2.4257,-2.4201,-2.42,-2.4199,-2.4199,-2.4199,-2.4199,-2.4199,-2.4199,-2.4199,-2.4199,-2.4201,-2.4201,-2.4201,-2.4201,-2.4238,-2.4275,-2.433,-2.4385,-2.4402,-2.4444,-2.4518,-2.4201,-2.3281,-2.2512,-2.1808,-2.1086,-2.0497,-2.0098,-2.0143,-2.0197,-2.0233,-2.0249,-2.0253,-2.0269,-2.0281,-2.0288,-2.0288,-2.0288,-2.0288,-2.0038,-1.9458,-1.8708,-1.7865,-1.7189,-1.6455,-1.5581,-1.5171,-1.5159,-1.5133,-1.513,-1.5108,-1.5111,-1.5101,-1.5088,-1.5092,-1.5117,-1.5101,-1.5108,-1.5101,-1.5114,-1.5123,-1.5117,-1.5113,-1.5113,-1.5127,-1.5114,-1.5117,-1.5114,-1.5114,-1.7988,-1.8148,-1.8307,-1.8438,-1.8627,-1.9027,-1.9541,-2.0209,-2.1006,-2.1289,-2.0992,-2.0976,-2.0712,-2.0652,-2.1083,-2.1708,-2.248,-2.3233,-2.3731,-2.4405,-2.449,-2.45,-2.45,-2.45,-2.45,-2.45,-2.45,-2.45,-2.45,-2.45,-2.45,-2.4508,-2.4515,-2.4539,-2.458,-2.4623,-2.4599,-2.4528,-2.4503,-2.4505,-2.4508,-2.4509,-2.4465,-2.4384,-2.4339,-2.4248,-2.421,-2.42,-2.4199,-2.4199,-2.4199,-2.4199,-2.4209,-2.42,-2.4201,-2.421,-2.422,-2.4284,-2.4303,-2.433,-2.4303,-2.4321,-2.4358,-2.4403,-2.4412,-2.4462,-2.4522,-2.4404,-2.3604,-2.2903,-2.2211,-2.1448,-2.0796,-2.0179,-2.0093,-2.0168,-2.019,-2.0216,-2.0225,-2.0225,-2.0233,-2.0245,-2.0249,-2.0249,-2.0253,-2.0273,-1.9807,-1.892,-1.8056,-1.7579,-1.6941,-1.5773,-1.513,-1.5117,-1.5104,-1.5091,-1.508,-1.5099,-1.5063,-1.5041,-1.5052,-1.5054,-1.5077,-1.5096,-1.5077,-1.5073,-1.5052,-1.503,-1.5034,-1.5042,-1.5045,-1.5077,-1.5091,-1.5091,-1.5113,-1.7867,-1.8027,-1.8191,-1.8345,-1.8448,-1.8668,-1.9138,-1.9759,-2.0346,-2.0389,-2.0101,-2.0067,-1.995,-1.9822,-2.0121,-2.0812,-2.1689,-2.2478,-2.3279,-2.4026,-2.4425,-2.4462,-2.45,-2.45,-2.45,-2.45,-2.45,-2.45,-2.45,-2.45,-2.45,-2.4508,-2.4507,-2.4505,-2.4557,-2.4566,-2.4555,-2.4503,-2.4505,-2.4507,-2.4508,-2.4491,-2.4474,-2.4412,-2.4339,-2.4248,-2.4229,-2.4209,-2.4199,-2.4199,-2.4209,-2.42,-2.4191,-2.4219,-2.422,-2.4238,-2.4294,-2.4358,-2.4421,-2.443,-2.4402,-2.4403,-2.4402,-2.4438,-2.4438,-2.4481,-2.4497,-2.4323,-2.3849,-2.3323,-2.2675,-2.1897,-2.1071,-2.0432,-2.0172,-2.0246,-2.0112,-2.0116,-2.0167,-2.0167,-2.0195,-2.0193,-2.0205,-2.021,-2.021,-2.0229,-2.0171,-1.9242,-1.8313,-1.7777,-1.7232,-1.61,-1.5179,-1.5066,-1.5068,-1.5072,-1.5065,-1.508,-1.5042,-1.4999,-1.5015,-1.5038,-1.5057,-1.5061,-1.5057,-1.5027,-1.4976,-1.4971,-1.4955,-1.4947,-1.4936,-1.4976,-1.5065,-1.5076,-1.5057,-1.7738,-1.7822,-1.8076,-1.8229,-1.8338,-1.8584,-1.8797,-1.8949,-1.9029,-1.9159,-1.9247,-1.9368,-1.9426,-1.9512,-1.9563,-2.01,-2.0983,-2.1762,-2.258,-2.3386,-2.4156,-2.4361,-2.45,-2.45,-2.45,-2.45,-2.45,-2.45,-2.45,-2.45,-2.45,-2.45,-2.4508,-2.4498,-2.4525,-2.4524,-2.4495,-2.4505,-2.4507,-2.4508,-2.45,-2.4491,-2.4447,-2.4394,-2.4321,-2.4257,-2.421,-2.42,-2.4209,-2.419,-2.4191,-2.4192,-2.422,-2.4248,-2.4284,-2.4312,-2.4367,-2.4438,-2.4474,-2.4482,-2.4482,-2.4465,-2.4482,-2.45,-2.45,-2.4481,-2.4498,-2.4356,-2.3979,-2.3657,-2.3199,-2.2257,-2.1336,-2.0847,-2.0437,-2.0272,-2.0067,-2.005,-2.0108,-2.0141,-2.0178,-2.0173,-2.0186,-2.019,-2.0162,-2.0149,-2.0102,-1.9792,-1.8847,-1.7898,-1.7274,-1.6364,-1.5556,-1.5061,-1.5003,-1.4983,-1.4967,-1.4959,-1.4982,-1.4951,-1.4986,-1.4986,-1.4978,-1.4959,-1.499,-1.4974,-1.4917,-1.4886,-1.4887,-1.4883,-1.4868,-1.4881,-1.4955,-1.4967,-1.4971,-1.764,-1.776,-1.7911,-1.8063,-1.8267,-1.8512,-1.8732,-1.8896,-1.8976,-1.9053,-1.9147,-1.9202,-1.9306,-1.9431,-1.9483,-2.0041,-2.0793,-2.1643,-2.2442,-2.3248,-2.4036,-2.4369,-2.45,-2.45,-2.45,-2.45,-2.45,-2.45,-2.45,-2.45,-2.45,-2.45,-2.45,-2.45,-2.45,-2.4508,-2.4498,-2.4498,-2.4508,-2.45,-2.4482,-2.4465,-2.4412,-2.4339,-2.4294,-2.4229,-2.4209,-2.4201,-2.4201,-2.421,-2.4247,-2.4257,-2.4275,-2.4339,-2.4394,-2.4429,-2.4446,-2.4482,-2.45,-2.45,-2.45,-2.45,-2.45,-2.45,-2.45,-2.45,-2.4508,-2.4339,-2.4217,-2.3952,-2.3604,-2.2821,-2.1873,-2.1241,-2.0809,-2.0435,-2.021,-1.9958,-2.0019,-2.0054,-2.0088,-2.0131,-2.0127,-2.0146,-2.0112,-2.0079,-1.9978,-1.9801,-1.9263,-1.826,-1.746,-1.6584,-1.5601,-1.5003,-1.4902,-1.4881,-1.4863,-1.4845,-1.4877,-1.4886,-1.4877,-1.4873,-1.4868,-1.4873,-1.4905,-1.4868,-1.4827,-1.4827,-1.4823,-1.4832,-1.4818,-1.4823,-1.4832,-1.4873,-1.4886,-1.7542,-1.7647,-1.7794,-1.7999,-1.826,-1.85,-1.8694,-1.8833,-1.8905,-1.9009,-1.9104,-1.916,-1.9248,-1.9375,-1.9479,-1.9778,-2.0311,-2.1476,-2.2274,-2.2739,-2.3989,-2.4351,-2.45,-2.45,-2.45,-2.45,-2.45,-2.45,-2.45,-2.45,-2.45,-2.45,-2.45,-2.45,-2.45,-2.45,-2.45,-2.45,-2.45,-2.45,-2.4474,-2.4438,-2.4385,-2.4312,-2.4238,-2.421,-2.4209,-2.4201,-2.421,-2.4229,-2.4294,-2.4339,-2.4348,-2.4412,-2.4447,-2.4491,-2.4491,-2.4491,-2.45,-2.45,-2.45,-2.45,-2.45,-2.45,-2.45,-2.45,-2.45,-2.4452,-2.4424,-2.431,-2.3917,-2.3438,-2.2499,-2.1613,-2.1139,-2.0659,-2.0319,-1.9972,-1.9936,-1.9961,-2.0007,-2.0052,-2.0062,-2.0062,-2.0052,-1.9988,-1.9947,-1.9882,-1.9252,-1.8302,-1.7658,-1.6966,-1.5824,-1.4859,-1.4822,-1.4809,-1.4813,-1.4809,-1.4832,-1.4832,-1.4794,-1.4813,-1.4827,-1.4823,-1.4818,-1.4799,-1.477,-1.476,-1.4769,-1.4759,-1.4773,-1.4769,-1.4775,-1.4799,-1.4823,-1.7484,-1.7524,-1.7704,-1.7982,-1.8297,-1.8483,-1.8609,-1.8706,-1.8843,-1.8966,-1.9087,-1.9162,-1.9222,-1.9326,-1.9413,-1.9479,-2.0178,-2.1246,-2.2033,-2.2145,-2.3785,-2.4481,-2.45,-2.45,-2.45,-2.45,-2.45,-2.45,-2.45,-2.45,-2.45,-2.45,-2.45,-2.45,-2.45,-2.45,-2.45,-2.45,-2.4518,-2.4509,-2.4474,-2.443,-2.4358,-2.4284,-2.4229,-2.4201,-2.4201,-2.422,-2.4229,-2.4294,-2.4358,-2.4393,-2.443,-2.4456,-2.4491,-2.45,-2.45,-2.45,-2.45,-2.45,-2.45,-2.45,-2.45,-2.45,-2.45,-2.45,-2.45,-2.45,-2.4471,-2.4461,-2.4153,-2.3864,-2.318,-2.2327,-2.1725,-2.1081,-2.0458,-2.0101,-1.9836,-1.9853,-1.9913,-1.9955,-1.996,-1.996,-1.993,-1.9889,-1.9853,-1.9842,-1.9378,-1.8448,-1.7826,-1.7302,-1.617,-1.5131,-1.4785,-1.4775,-1.4779,-1.4793,-1.4849,-1.4793,-1.4764,-1.4783,-1.4807,-1.4783,-1.4759,-1.4736,-1.4726,-1.4739,-1.4748,-1.4737,-1.4727,-1.4717,-1.4732,-1.4768,-1.4759,-1.7477,-1.7512,-1.7721,-1.7944,-1.8148,-1.8307,-1.8465,-1.8619,-1.8769,-1.8861,-1.8957,-1.9084,-1.9208,-1.928,-1.9331,-1.9398,-1.9859,-2.113,-2.185,-2.2542,-2.3729,-2.4481,-2.45,-2.45,-2.45,-2.45,-2.45,-2.45,-2.45,-2.45,-2.45,-2.45,-2.45,-2.45,-2.45,-2.45,-2.45,-2.45,-2.45,-2.4465,-2.4421,-2.4367,-2.4294,-2.4257,-2.4201,-2.4201,-2.4229,-2.4294,-2.4339,-2.4375,-2.4447,-2.4474,-2.4474,-2.4491,-2.45,-2.45,-2.45,-2.45,-2.45,-2.45,-2.45,-2.45,-2.45,-2.45,-2.45,-2.45,-2.45,-2.45,-2.45,-2.45,-2.4444,-2.4173,-2.382,-2.3026,-2.2211,-2.1428,-2.0622,-2.0169,-1.9776,-1.9782,-1.9819,-1.985,-1.9856,-1.985,-1.9813,-1.9782,-1.977,-1.9695,-1.9476,-1.8833,-1.8126,-1.7491,-1.6514,-1.5636,-1.5221,-1.508,-1.5274,-1.5152,-1.5152,-1.4998,-1.4849,-1.5078,-1.5306,-1.4881,-1.4722,-1.4932,-1.5011,-1.4759,-1.4749,-1.4725,-1.4706,-1.4706,-1.4762,-1.4807,-1.4764,-1.7001,-1.708,-1.7552,-1.7867,-1.8053,-1.8225,-1.8398,-1.8579,-1.8741,-1.8833,-1.8869,-1.9017,-1.9134,-1.9224,-1.9259,-1.932,-1.9741,-2.1237,-2.1816,-2.2508,-2.3479,-2.4295,-2.45,-2.45,-2.45,-2.45,-2.45,-2.45,-2.45,-2.45,-2.45,-2.45,-2.45,-2.45,-2.45,-2.45,-2.45,-2.45,-2.45,-2.4456,-2.4385,-2.4321,-2.4275,-2.422,-2.4201,-2.421,-2.4275,-2.4348,-2.4412,-2.4438,-2.4482,-2.4491,-2.4491,-2.45,-2.45,-2.45,-2.45,-2.45,-2.45,-2.45,-2.45,-2.45,-2.45,-2.45,-2.45,-2.45,-2.45,-2.45,-2.45,-2.45,-2.45,-2.4314,-2.3859,-2.3198,-2.2322,-2.147,-2.0593,-1.9886,-1.9725,-1.9738,-1.977,-1.9776,-1.9776,-1.9782,-1.9745,-1.9738,-1.97,-1.9662,-1.9436,-1.9286,-1.8553,-1.7919,-1.71,-1.6542,-1.6233,-1.6079,-1.6073,-1.5858,-1.5574,-1.5821,-1.598,-1.59,-1.5802,-1.5653,-1.5561,-1.5616,-1.5579,-1.5314,-1.4874,-1.4781,-1.4744,-1.4706,-1.4836,-1.5072,-1.5208,-1.6486,-1.6669,-1.7367,-1.7805,-1.8005,-1.8184,-1.8365,-1.8522,-1.8686,-1.8779,-1.8824,-1.9002,-1.9069,-1.9142,-1.9222,-1.9259,-1.975,-2.0923,-2.1581,-2.2388,-2.3553,-2.4156,-2.4444,-2.45,-2.45,-2.45,-2.45,-2.45,-2.45,-2.45,-2.45,-2.45,-2.45,-2.45,-2.45,-2.45,-2.45,-2.45,-2.4482,-2.4438,-2.4367,-2.4294,-2.4266,-2.422,-2.421,-2.4257,-2.4303,-2.4375,-2.4447,-2.4474,-2.4509,-2.45,-2.45,-2.45,-2.45,-2.45,-2.45,-2.45,-2.45,-2.45,-2.45,-2.45,-2.45,-2.45,-2.45,-2.45,-2.45,-2.4491,-2.4491,-2.45,-2.45,-2.4407,-2.3925,-2.3378,-2.2476,-2.1388,-2.0476,-1.9709,-1.9685,-1.9698,-1.9698,-1.9698,-1.9698,-1.9698,-1.9698,-1.9673,-1.966,-1.9621,-1.9564,-1.9457,-1.9085,-1.8676,-1.8161,-1.7665,-1.7114,-1.6929,-1.6762,-1.6613,-1.6427,-1.6817,-1.7003,-1.6656,-1.6545,-1.6768,-1.6706,-1.6502,-1.6316,-1.6093,-1.5611,-1.5202,-1.5431,-1.5635,-1.5635,-1.5852,-1.5982,-1.6763,-1.7301,-1.7539,-1.7726,-1.7933,-1.8074,-1.826,-1.8433,-1.8579,-1.8694,-1.8788,-1.8878,-1.8984,-1.9104,-1.9129,-1.9176,-1.9457,-2.0573,-2.139,-2.215,-2.3139,-2.3832,-2.4305,-2.45,-2.45,-2.45,-2.45,-2.45,-2.45,-2.45,-2.45,-2.45,-2.45,-2.45,-2.45,-2.45,-2.45,-2.4491,-2.4482,-2.4429,-2.4375,-2.4321,-2.4266,-2.4247,-2.4257,-2.4303,-2.4367,-2.4429,-2.4482,-2.45,-2.45,-2.45,-2.45,-2.45,-2.45,-2.45,-2.45,-2.45,-2.45,-2.45,-2.45,-2.45,-2.45,-2.4509,-2.4491,-2.4482,-2.4482,-2.4482,-2.4482,-2.4491,-2.4491,-2.45,-2.4156,-2.3572,-2.28,-2.1324,-2.0113,-1.9766,-1.9625,-1.9625,-1.9625,-1.9625,-1.9625,-1.9625,-1.9625,-1.9625,-1.9625,-1.9585,-1.9592,-1.956,-1.9509,-1.9249,-1.8933,-1.8191,-1.7411,-1.743,-1.7318,-1.7226,-1.7263,-1.7578,-1.7578,-1.7133,-1.7133,-1.7585,-1.743,-1.7133,-1.6966,-1.6885,-1.6657,-1.6379,-1.6613,-1.6762,-1.665,-1.6638,-1.6775]},{"header":{"parameterUnit":"m.s-1","parameterCategory":1,"la1":31.0,"la2":29.5877,"lo1":-88.7671,"lo2":-86.6584,"dy":0.0162,"dx":0.0185,"nx":115,"ny":88,"refTime":"2025-11-12T00:00:00:Z","depth":0,"parameterNumber":3,"parameterNumberName":"V-component_of_WINDS"},"data":[0.0,0.0,0.0,0.0,0.0,0.0,0.0,0.0,0.0,0.0,0.0,0.0,0.0,0.0,0.0,0.0,0.0,0.0,0.0,0.0,0.0,0.0,0.0,0.0,0.0,0.0,0.0,0.0,0.0,0.0,0.0,0.0,0.0,0.0,0.0,0.0,0.0,0.0,0.0,0.0,0.0,0.0,0.0,0.0,0.0,0.0,0.0,0.0,0.0,0.0,0.0,0.0,0.0,0.0,0.0,0.0,0.0,0.0,0.0,0.0,0.0,0.0,0.0,0.0,0.0,0.0,0.0,0.0,0.0,0.0,0.0,0.0,0.0,0.0,0.0,0.0,0.0,0.0,0.0,0.0,0.0,0.0,0.0,0.0,0.0,0.0,0.0,0.0,0.0,0.0,0.0,0.0,0.0,0.0,0.0,0.0,0.0,0.0,0.0,0.0,0.0,0.0,0.0,0.0,0.0,0.0,0.0,0.0,0.0,0.0,0.0,0.0,0.0,0.0,0.0,0.0,0.0,0.0,0.0,0.0,0.0,0.0,0.0,0.0,0.0,0.0,0.0,0.0,0.0,0.0,0.0,0.0,0.0,0.0,0.0,0.0,0.0,0.0,0.0,0.0,0.0,0.0,0.0,0.0,0.0,0.0,0.0,0.0,0.0,0.0,0.0,0.0,0.0,0.0,0.0,0.0,0.0,0.0,0.0,0.0,0.0,0.0,0.0,0.0,0.0,0.0,0.0,0.0,0.0,0.0,0.0,0.0,0.0,0.0,0.0,0.0,0.0,0.0,0.0,0.0,0.0,0.0,0.0,0.0,0.0,0.0,0.0,0.0,0.0,0.0,0.0,0.0,0.0,0.0,0.0,0.0,0.0,0.0,0.0,0.0,0.0,0.0,0.0,0.0,0.0,0.0,0.0,0.0,0.0,0.0,0.0,0.0,0.0,0.0,0.0,0.0,0.0,0.0,0.0,0.0,0.0,0.0,0.0,0.0,0.0,0.0,0.0,0.0,0.0,0.0,0.0,0.0,0.0,0.0,0.0,0.0,0.0,0.0,0.0,0.0,0.0,0.0,0.0,0.0,0.0,0.0,0.0,0.0,0.0,0.0,0.0,0.0,0.0,0.0,0.0,0.0,0.0,0.0,0.0,0.0,0.0,0.0,0.0,0.0,0.0,0.0,0.0,0.0,0.0,0.0,0.0,0.0,0.0,0.0,0.0,0.0,0.0,0.0,0.0,0.0,0.0,0.0,0.0,0.0,0.0,0.0,0.0,0.0,0.0,0.0,0.0,0.0,0.0,0.0,0.0,0.0,0.0,0.0,0.0,0.0,0.0,0.0,0.0,0.0,0.0,0.0,0.0,0.0,0.0,0.0,0.0,0.0,0.0,0.0,0.0,0.0,0.0,0.0,0.0,0.0,0.0,0.0,0.0,0.0,0.0,0.0,0.0,0.0,0.0,0.0,0.0,0.0,0.0,0.0,0.0,0.0,0.0,0.0,0.0,0.0,0.0,0.0,0.0,0.0,0.0,0.0,0.0,0.0,0.0,0.0,0.0,0.0,0.0,0.0,0.0,0.0,0.0,0.0,0.0,0.0,0.0,0.0,0.0,0.0,0.0,0.0,0.0,0.0,0.0,0.0,0.0,0.0,0.0,0.0,0.0,0.0,0.0,0.0,0.0,0.0,0.0,0.0,0.0,0.0,0.0,0.0,0.0,0.0,0.0,0.0,0.0,0.0,0.0,0.0,0.0,0.0,0.0,0.0,0.0,0.0,0.0,0.0,0.0,0.0,0.0,0.0,0.0,0.0,0.0,0.0,0.0,0.0,0.0,0.0,0.0,0.0,0.0,0.0,0.0,0.0,0.0,0.0,0.0,0.0,0.0,0.0,0.0,0.0,0.0,0.0,0.0,0.0,0.0,0.0,0.0,0.0,0.0,0.0,0.0,0.0,0.0,0.0,0.0,0.0,0.0,0.0,0.0,0.0,0.0,0.0,0.0,0.0,0.0,0.0,0.0,0.0,0.0,0.0,0.0,0.0,0.0,0.0,0.0,0.0,0.0,0.0,0.0,0.0,0.0,0.0,0.0,0.0,0.0,0.0,0.0,0.0,0.0,0.0,0.0,0.0,0.0,0.0,0.0,0.0,0.0,0.0,0.0,0.0,0.0,0.0,0.0,0.0,0.0,0.0,0.0,0.0,0.0,0.0,0.0,0.0,0.0,0.0,0.0,0.0,0.0,0.0,0.0,0.0,0.0,0.0,0.0,0.0,0.0,0.0,0.0,0.0,0.0,0.0,0.0,0.0,0.0,0.0,0.0,0.0,0.0,0.0,0.0,0.0,0.0,0.0,0.0,0.0,0.0,0.0,0.0,0.0,0.0,0.0,0.0,0.0,0.0,0.0,0.0,0.0,0.0,0.0,0.0,0.0,0.0,0.0,0.0,0.0,0.0,0.0,0.0,0.0,0.0,0.0,0.0,0.0,0.0,0.0,0.0,0.0,0.0,0.0,0.0,0.0,0.0,0.0,0.0,0.0,0.0,0.0,0.0,0.0,0.0,0.0,0.0,0.0,0.0,0.0,0.0,0.0,0.0,0.0,0.0,0.0,0.0,0.0,0.0,0.0,0.0,0.0,0.0,0.0,0.0,0.0,0.0,0.0,0.0,0.0,0.0,0.0,0.0,0.0,0.0,0.0,0.0,0.0,0.0,0.0,0.0,0.0,0.0,0.0,0.0,0.0,0.0,0.0,0.0,0.0,0.0,0.0,0.0,0.0,0.0,0.0,0.0,0.0,0.0,0.0,0.0,0.0,0.0,0.0,0.0,0.0,0.0,0.0,0.0,0.0,0.0,0.0,0.0,0.0,0.0,0.0,0.0,0.0,0.0,0.0,0.0,0.0,0.0,0.0,0.0,0.0,0.0,0.0,0.0,0.0,0.0,0.0,0.0,0.0,0.0,0.0,0.0,0.0,0.0,0.0,0.0,0.0,0.0,0.0,0.0,0.0,0.0,0.0,0.0,0.0,0.0,0.0,0.0,0.0,0.0,0.0,0.0,0.0,0.0,0.0,0.0,0.0,0.0,0.0,0.0,0.0,0.0,0.0,0.0,0.0,0.0,0.0,0.0,0.0,0.0,0.0,0.0,0.0,0.0,0.0,0.0,0.0,0.0,0.0,0.0,0.0,0.0,0.0,0.0,0.0,0.0,0.0,0.0,0.0,0.0,0.0,0.0,0.0,0.0,0.0,0.0,0.0,0.0,0.0,0.0,0.0,0.0,0.0,0.0,0.0,0.0,0.0,0.0,0.0,0.0,0.0,0.0,0.0,0.0,0.0,0.0,0.0,0.0,0.0,0.0,0.0,0.0,0.0,0.0,0.0,0.0,0.0,0.0,0.0,0.0,0.0,0.0,0.0,0.0,0.0,0.0,0.0,0.0,0.0,0.0,0.0,0.0,0.0,0.0,0.0,0.0,0.0,0.0,0.0,0.0,0.0,0.0,0.0,0.0,0.0,0.0,0.0,0.0,0.0,0.0,0.0,0.0,0.0,0.0,0.0,0.0,0.0,0.0,0.0,0.0,0.0,0.0,0.0,0.0,0.0,0.0,0.0,0.0,0.0,0.0,0.0,0.0,0.0,0.0,0.0,0.0,0.0,0.0,0.0,0.0,0.0,0.0,0.0,0.0,0.0,0.0,0.0,0.0,0.0,0.0,0.0,0.0,0.0,0.0,0.0,0.0,0.0,0.0,0.0,0.0,0.0,0.0,0.0,0.0,0.0,0.0,0.0,0.0,0.0,0.0,0.0,0.0,0.0,0.0,0.0,0.0,0.0,0.0,0.0,0.0,0.0,0.0,0.0,0.0,0.0,0.0,0.0,0.0,0.0,0.0,0.0,0.0,0.0,0.0,0.0,0.0,0.0,0.0,0.0,0.0,0.0,0.0,0.0,0.0,0.0,0.0,0.0,0.0,0.0,0.0,0.0,0.0,0.0,0.0,0.0,0.0,0.0,0.0,0.0,0.0,0.0,0.0,0.0,0.0,0.0,0.0,0.0,0.0,0.0,0.0,0.0,0.0,0.0,0.0,0.0,0.0,0.0,0.0,0.0,0.0,0.0,0.0,0.0,0.0,0.0,0.0,0.0,0.0,0.0,0.0,0.0,0.0,0.0,0.0,0.0,0.0,0.0,0.0,0.0,0.0,0.0,0.0,0.0,0.0,0.0,0.0,0.0,0.0,0.0,0.0,0.0,0.0,0.0,0.0,0.0,0.0,0.0,0.0,0.0,-1.0838,0.0,0.0,0.0,0.0,0.0,0.0,0.0,0.0,0.0,0.0,0.0,0.0,0.0,0.0,0.0,0.0,0.0,0.0,0.0,0.0,0.0,0.0,0.0,0.0,0.0,0.0,0.0,0.0,0.0,0.0,0.0,0.0,0.0,0.0,0.0,0.0,0.0,0.0,0.0,0.0,0.0,0.0,0.0,0.0,0.0,0.0,0.0,0.0,0.0,0.0,0.0,0.0,0.0,0.0,0.0,0.0,0.0,0.0,0.0,0.0,0.0,0.0,0.0,0.0,0.0,0.0,0.0,0.0,0.0,0.0,0.0,0.0,0.0,0.0,0.0,0.0,0.0,0.0,0.0,0.0,0.0,0.0,0.0,0.0,0.0,0.0,0.0,0.0,0.0,0.0,0.0,0.0,0.0,0.0,0.0,0.0,0.0,0.0,0.0,0.0,0.0,0.0,0.0,0.0,0.0,0.0,0.0,0.0,0.0,0.0,-0.9476,-0.9602,-0.9611,-0.9817,-1.0293,0.0,0.0,0.0,0.0,0.0,0.0,0.0,0.0,0.0,0.0,0.0,0.0,0.0,0.0,0.0,0.0,0.0,0.0,0.0,0.0,0.0,0.0,0.0,0.0,0.0,0.0,0.0,0.0,0.0,0.0,0.0,0.0,0.0,0.0,0.0,0.0,0.0,0.0,0.0,0.0,0.0,0.0,0.0,0.0,0.0,0.0,0.0,0.0,0.0,0.0,0.0,0.0,0.0,0.0,0.0,0.0,0.0,0.0,0.0,0.0,0.0,0.0,0.0,0.0,0.0,0.0,0.0,0.0,0.0,0.0,0.0,0.0,0.0,0.0,0.0,0.0,0.0,0.0,0.0,0.0,0.0,0.0,0.0,0.0,0.0,0.0,0.0,0.0,0.0,0.0,0.0,0.0,0.0,0.0,0.0,0.0,0.0,0.0,0.0,0.0,0.0,0.0,0.0,0.0,0.0,0.0,0.0,0.0,0.0,0.0,0.0,0.0,-0.933,-0.9557,-0.9875,0.0,0.0,0.0,0.0,0.0,0.0,0.0,0.0,0.0,0.0,0.0,0.0,0.0,0.0,0.0,0.0,0.0,0.0,0.0,0.0,0.0,0.0,0.0,0.0,0.0,0.0,0.0,0.0,0.0,0.0,0.0,0.0,0.0,0.0,0.0,0.0,0.0,0.0,0.0,0.0,0.0,0.0,0.0,0.0,0.0,0.0,0.0,0.0,0.0,0.0,0.0,0.0,0.0,0.0,0.0,0.0,0.0,0.0,0.0,0.0,0.0,0.0,0.0,0.0,0.0,0.0,0.0,0.0,0.0,0.0,0.0,0.0,0.0,0.0,0.0,0.0,0.0,0.0,0.0,0.0,0.0,0.0,0.0,0.0,0.0,0.0,0.0,0.0,0.0,0.0,0.0,0.0,0.0,0.0,0.0,0.0,0.0,0.0,0.0,0.0,0.0,0.0,0.0,0.0,0.0,0.0,0.0,0.0,0.0,0.0,-0.8652,-0.8652,-0.885,0.0,-0.9717,0.0,0.0,0.0,0.0,0.0,0.0,0.0,0.0,0.0,0.0,0.0,0.0,0.0,0.0,0.0,0.0,0.0,0.0,0.0,0.0,0.0,0.0,0.0,0.0,0.0,0.0,0.0,0.0,0.0,0.0,0.0,0.0,0.0,0.0,0.0,0.0,0.0,0.0,0.0,0.0,0.0,0.0,0.0,0.0,0.0,0.0,0.0,0.0,0.0,0.0,0.0,0.0,0.0,0.0,0.0,0.0,0.0,0.0,0.0,0.0,0.0,0.0,0.0,0.0,0.0,0.0,0.0,0.0,0.0,0.0,0.0,0.0,0.0,0.0,0.0,0.0,0.0,0.0,0.0,0.0,0.0,0.0,0.0,0.0,0.0,0.0,0.0,0.0,0.0,0.0,0.0,0.0,0.0,0.0,0.0,0.0,0.0,0.0,0.0,0.0,0.0,0.0,0.0,0.0,0.0,0.0,0.0,0.0,0.0,0.0,-0.8616,-0.8616,-0.8785,-0.9131,0.0,0.0,0.0,0.0,0.0,0.0,0.0,0.0,0.0,0.0,0.0,0.0,0.0,0.0,0.0,0.0,0.0,0.0,0.0,0.0,0.0,0.0,0.0,0.0,0.0,0.0,0.0,0.0,0.0,0.0,0.0,0.0,0.0,0.0,0.0,0.0,0.0,0.0,0.0,0.0,0.0,0.0,0.0,0.0,0.0,0.0,0.0,0.0,0.0,0.0,0.0,0.0,0.0,0.0,0.0,0.0,0.0,0.0,0.0,0.0,0.0,0.0,0.0,0.0,0.0,0.0,0.0,0.0,0.0,0.0,0.0,0.0,0.0,0.0,0.0,0.0,0.0,0.0,0.0,0.0,0.0,0.0,0.0,0.0,0.0,0.0,0.0,0.0,0.0,0.0,0.0,0.0,0.0,0.0,0.0,0.0,0.0,0.0,0.0,0.0,0.0,0.0,0.0,0.0,0.0,0.0,0.0,0.0,0.0,0.0,-0.8616,0.0,-0.8679,-0.8837,-0.9084,-0.9544,0.0,0.0,0.0,0.0,0.0,0.0,0.0,0.0,0.0,0.0,0.0,0.0,0.0,0.0,0.0,0.0,0.0,0.0,0.0,0.0,0.0,0.0,0.0,0.0,0.0,0.0,0.0,0.0,0.0,0.0,0.0,0.0,0.0,0.0,0.0,0.0,0.0,0.0,0.0,0.0,0.0,0.0,0.0,0.0,0.0,0.0,0.0,0.0,0.0,0.0,0.0,0.0,0.0,0.0,0.0,0.0,0.0,0.0,0.0,0.0,0.0,0.0,0.0,0.0,0.0,0.0,0.0,0.0,0.0,0.0,0.0,0.0,0.0,0.0,0.0,0.0,0.0,0.0,0.0,0.0,0.0,0.0,0.0,0.0,0.0,0.0,0.0,0.0,0.0,0.0,0.0,0.0,0.0,0.0,0.0,0.0,0.0,0.0,0.0,0.0,0.0,0.0,0.0,0.0,0.0,0.0,0.0,0.0,0.0,-0.8612,-0.8696,-0.8855,-0.8875,-0.8964,0.0,0.0,0.0,0.0,0.0,0.0,0.0,0.0,0.0,0.0,0.0,0.0,0.0,0.0,0.0,0.0,0.0,0.0,0.0,0.0,0.0,0.0,0.0,0.0,0.0,0.0,0.0,0.0,0.0,0.0,0.0,0.0,0.0,0.0,0.0,0.0,0.0,0.0,0.0,0.0,0.0,0.0,0.0,0.0,0.0,0.0,0.0,0.0,0.0,0.0,0.0,0.0,0.0,0.0,0.0,0.0,0.0,0.0,0.0,0.0,0.0,0.0,0.0,0.0,0.0,0.0,0.0,0.0,0.0,0.0,0.0,0.0,0.0,0.0,0.0,0.0,0.0,0.0,0.0,0.0,0.0,0.0,0.0,0.0,0.0,0.0,0.0,0.0,0.0,0.0,0.0,0.0,0.0,0.0,0.0,0.0,0.0,0.0,0.0,0.0,0.0,0.0,0.0,0.0,0.0,0.0,0.0,0.0,0.0,-0.8424,-0.8507,-0.8551,-0.8515,-0.8647,-0.871,0.0,0.0,0.0,0.0,0.0,0.0,0.0,0.0,0.0,0.0,0.0,0.0,0.0,0.0,0.0,0.0,0.0,0.0,0.0,0.0,0.0,0.0,0.0,0.0,0.0,0.0,0.0,0.0,0.0,0.0,0.0,0.0,0.0,0.0,0.0,0.0,0.0,0.0,0.0,0.0,0.0,0.0,0.0,0.0,0.0,0.0,0.0,0.0,0.0,0.0,0.0,0.0,0.0,0.0,0.0,0.0,0.0,0.0,0.0,0.0,0.0,0.0,0.0,0.0,0.0,0.0,0.0,0.0,0.0,0.0,0.0,0.0,0.0,0.0,0.0,0.0,0.0,0.0,0.0,0.0,0.0,0.0,0.0,0.0,0.0,0.0,0.0,0.0,0.0,0.0,0.0,0.0,0.0,0.0,0.0,0.0,0.0,0.0,0.0,0.0,0.0,0.0,0.0,0.0,0.0,0.0,0.0,0.0,0.0,-0.8279,0.0,-0.8388,0.0,-0.8321,-0.8396,0.0,0.0,0.0,0.0,0.0,0.0,0.0,0.0,0.0,0.0,0.0,0.0,0.0,0.0,0.0,0.0,0.0,0.0,0.0,0.0,0.0,0.0,0.0,0.0,0.0,0.0,0.0,0.0,0.0,0.0,0.0,0.0,0.0,0.0,0.0,0.0,0.0,0.0,0.0,0.0,0.0,0.0,0.0,0.0,0.0,0.0,0.0,0.0,0.0,0.0,0.0,0.0,0.0,0.0,0.0,0.0,0.0,0.0,0.0,0.0,0.0,0.0,0.0,0.0,0.0,0.0,0.0,0.0,0.0,0.0,0.0,0.0,0.0,0.0,0.0,0.0,0.0,0.0,0.0,0.0,0.0,0.0,0.0,0.0,0.0,0.0,0.0,0.0,0.0,0.0,0.0,0.0,0.0,0.0,0.0,0.0,0.0,0.0,0.0,0.0,0.0,0.0,0.0,0.0,0.0,0.0,0.0,0.0,-0.806,-0.8181,-0.8201,-0.8123,-0.7913,-0.7984,-0.8118,0.0,0.0,0.0,0.0,0.0,0.0,0.0,0.0,0.0,0.0,0.0,0.0,0.0,0.0,0.0,0.0,0.0,0.0,0.0,0.0,0.0,0.0,0.0,0.0,0.0,0.0,0.0,0.0,0.0,0.0,0.0,0.0,0.0,0.0,0.0,0.0,0.0,0.0,0.0,0.0,0.0,0.0,0.0,0.0,0.0,0.0,0.0,0.0,0.0,0.0,0.0,0.0,0.0,0.0,0.0,0.0,0.0,0.0,0.0,0.0,0.0,0.0,0.0,0.0,0.0,0.0,0.0,0.0,0.0,0.0,0.0,0.0,0.0,0.0,0.0,0.0,0.0,0.0,0.0,0.0,0.0,0.0,0.0,0.0,0.0,0.0,0.0,0.0,0.0,0.0,0.0,0.0,0.0,0.0,0.0,0.0,0.0,0.0,0.0,0.0,0.0,0.0,0.0,0.0,0.0,0.0,0.0,0.0,0.0,-0.7973,-0.7984,-0.7905,-0.7695,-0.7901,-0.7999,0.0,0.0,0.0,0.0,0.0,0.0,0.0,0.0,0.0,0.0,0.0,0.0,0.0,0.0,0.0,0.0,0.0,0.0,0.0,0.0,0.0,0.0,0.0,0.0,0.0,0.0,0.0,0.0,0.0,0.0,0.0,0.0,0.0,0.0,0.0,0.0,0.0,0.0,0.0,0.0,0.0,0.0,0.0,0.0,0.0,0.0,0.0,0.0,0.0,0.0,0.0,0.0,0.0,0.0,0.0,0.0,0.0,0.0,0.0,0.0,0.0,0.0,0.0,0.0,0.0,0.0,0.0,0.0,0.0,0.0,0.0,0.0,0.0,0.0,0.0,0.0,0.0,0.0,0.0,0.0,0.0,0.0,0.0,0.0,0.0,0.0,0.0,0.0,0.0,0.0,0.0,0.0,0.0,0.0,0.0,0.0,0.0,0.0,0.0,0.0,0.0,0.0,0.0,0.0,0.0,0.0,0.0,0.0,0.0,-0.757,-0.768,-0.7643,-0.7435,-0.7651,-0.7837,-0.8047,0.0,0.0,0.0,0.0,0.0,0.0,0.0,0.0,0.0,0.0,0.0,0.0,0.0,0.0,0.0,0.0,0.0,0.0,0.0,0.0,0.0,0.0,0.0,0.0,0.0,0.0,0.0,0.0,0.0,0.0,0.0,0.0,0.0,0.0,0.0,0.0,0.0,0.0,0.0,0.0,0.0,0.0,0.0,0.0,0.0,0.0,0.0,0.0,0.0,0.0,0.0,0.0,0.0,0.0,0.0,0.0,0.0,0.0,0.0,0.0,0.0,0.0,0.0,0.0,0.0,0.0,0.0,0.0,0.0,0.0,0.0,0.0,0.0,0.0,0.0,0.0,0.0,0.0,0.0,0.0,0.0,0.0,0.0,0.0,0.0,0.0,0.0,0.0,0.0,0.0,0.0,0.0,0.0,0.0,0.0,0.0,0.0,0.0,0.0,0.0,0.0,0.0,0.0,0.0,0.0,0.0,0.0,0.0,-0.7092,-0.7367,-0.7388,-0.72,-0.7286,-0.7612,0.0,0.0,0.0,0.0,0.0,0.0,0.0,0.0,0.0,0.0,0.0,0.0,0.0,0.0,0.0,0.0,0.0,0.0,0.0,0.0,0.0,0.0,0.0,0.0,0.0,0.0,0.0,0.0,0.0,0.0,0.0,0.0,0.0,0.0,0.0,0.0,0.0,0.0,0.0,0.0,0.0,0.0,0.0,0.0,0.0,0.0,0.0,0.0,0.0,0.0,0.0,0.0,0.0,0.0,0.0,0.0,0.0,0.0,0.0,0.0,0.0,0.0,0.0,0.0,0.0,0.0,0.0,0.0,0.0,0.0,0.0,0.0,0.0,0.0,0.0,0.0,0.0,0.0,0.0,0.0,0.0,0.0,0.0,0.0,0.0,0.0,0.0,0.0,0.0,0.0,0.0,0.0,0.0,0.0,0.0,0.0,0.0,0.0,0.0,0.0,0.0,0.0,0.0,0.0,0.0,0.0,0.0,0.0,0.0,-0.7082,-0.7187,-0.7166,-0.7125,-0.7256,-0.7589,0.0,0.0,0.0,0.0,0.0,0.0,0.0,0.0,0.0,0.0,0.0,0.0,0.0,0.0,0.0,0.0,0.0,0.0,0.0,0.0,0.0,0.0,0.0,0.0,0.0,0.0,0.0,0.0,0.0,0.0,0.0,0.0,0.0,0.0,0.0,0.0,0.0,0.0,0.0,0.0,0.0,0.0,0.0,0.0,0.0,0.0,0.0,0.0,0.0,0.0,0.0,0.0,0.0,0.0,0.0,0.0,0.0,0.0,0.0,0.0,0.0,0.0,0.0,0.0,0.0,0.0,0.0,0.0,0.0,0.0,0.0,0.0,0.0,0.0,0.0,0.0,0.0,0.0,0.0,0.0,0.0,0.0,0.0,0.0,0.0,0.0,0.0,0.0,0.0,0.0,0.0,0.0,0.0,0.0,0.0,0.0,0.0,0.0,0.0,0.0,0.0,0.0,0.0,0.0,0.0,0.0,0.0,0.0,-0.6719,-0.6949,-0.6913,-0.6913,-0.691,-0.7168,-0.7603,0.0,0.0,0.0,0.0,0.0,0.0,0.0,0.0,0.0,0.0,0.0,0.0,0.0,0.0,0.0,0.0,0.0,0.0,0.0,0.0,0.0,0.0,0.0,0.0,0.0,0.0,0.0,0.0,0.0,0.0,0.0,0.0,0.0,0.0,0.0,0.0,0.0,0.0,0.0,0.0,0.0,0.0,0.0,0.0,0.0,0.0,0.0,0.0,0.0,0.0,0.0,0.0,0.0,0.0,0.0,0.0,0.0,0.0,0.0,0.0,0.0,0.0,0.0,0.0,0.0,0.0,0.0,0.0,0.0,0.0,0.0,0.0,0.0,0.0,0.0,0.0,0.0,0.0,0.0,0.0,0.0,0.0,0.0,0.0,0.0,0.0,0.0,0.0,0.0,0.0,0.0,0.0,0.0,0.0,0.0,0.0,0.0,0.0,0.0,0.0,0.0,0.0,0.0,0.0,0.0,0.0,0.0,0.0,-0.6505,-0.6654,-0.6657,-0.6698,-0.6698,-0.7098,-0.7663,0.0,0.0,0.0,0.0,0.0,0.0,0.0,0.0,0.0,0.0,0.0,0.0,0.0,0.0,0.0,0.0,0.0,0.0,0.0,0.0,0.0,0.0,0.0,0.0,0.0,0.0,0.0,0.0,0.0,0.0,0.0,0.0,0.0,0.0,0.0,0.0,0.0,0.0,0.0,0.0,0.0,0.0,0.0,0.0,0.0,0.0,0.0,0.0,0.0,0.0,0.0,0.0,0.0,0.0,0.0,0.0,0.0,0.0,0.0,0.0,0.0,0.0,0.0,0.0,0.0,0.0,0.0,0.0,0.0,0.0,0.0,0.0,0.0,0.0,0.0,0.0,0.0,0.0,0.0,0.0,0.0,0.0,0.0,0.0,0.0,0.0,0.0,0.0,0.0,0.0,0.0,0.0,0.0,0.0,0.0,0.0,0.0,0.0,0.0,0.0,0.0,0.0,0.0,0.0,0.0,0.0,0.0,0.0,-0.6178,-0.644,-0.6484,-0.6529,-0.6698,-0.6993,-0.7448,0.0,0.0,0.0,0.0,0.0,0.0,0.0,0.0,0.0,0.0,0.0,0.0,0.0,0.0,0.0,0.0,0.0,0.0,0.0,0.0,0.0,0.0,0.0,0.0,0.0,0.0,0.0,0.0,0.0,0.0,0.0,0.0,0.0,0.0,0.0,0.0,0.0,0.0,0.0,0.0,0.0,0.0,0.0,0.0,0.0,0.0,0.0,0.0,-0.6246,0.0,0.0,0.0,0.0,0.0,0.0,0.0,0.0,0.0,0.0,0.0,0.0,0.0,0.0,0.0,0.0,0.0,0.0,0.0,0.0,0.0,0.0,0.0,0.0,0.0,0.0,0.0,0.0,0.0,0.0,0.0,0.0,0.0,0.0,0.0,0.0,0.0,0.0,0.0,0.0,0.0,0.0,0.0,0.0,0.0,0.0,0.0,0.0,0.0,0.0,0.0,0.0,0.0,0.0,0.0,0.0,0.0,0.0,0.0,-0.5854,-0.6,-0.6123,-0.6204,-0.6324,-0.6767,-0.727,0.0,0.0,0.0,0.0,0.0,0.0,0.0,0.0,0.0,0.0,0.0,0.0,0.0,0.0,0.0,0.0,0.0,0.0,0.0,0.0,0.0,0.0,0.0,0.0,0.0,0.0,0.0,0.0,0.0,0.0,0.0,0.0,0.0,0.0,0.0,0.0,0.0,0.0,0.0,0.0,0.0,0.0,0.0,0.0,0.0,0.0,0.0,0.0,0.0,0.0,0.0,0.0,0.0,0.0,0.0,0.0,0.0,0.0,0.0,0.0,0.0,0.0,0.0,0.0,0.0,0.0,0.0,0.0,0.0,0.0,0.0,0.0,0.0,0.0,0.0,0.0,0.0,0.0,0.0,0.0,0.0,0.0,0.0,0.0,0.0,0.0,0.0,0.0,0.0,0.0,0.0,0.0,0.0,0.0,0.0,0.0,0.0,0.0,0.0,0.0,0.0,0.0,0.0,0.0,0.0,0.0,0.0,-0.55,-0.5491,-0.5526,-0.5716,-0.587,-0.5867,-0.6479,-0.7076,-0.7576,0.0,0.0,0.0,0.0,0.0,0.0,0.0,0.0,0.0,0.0,0.0,0.0,0.0,0.0,0.0,0.0,0.0,0.0,0.0,0.0,0.0,0.0,0.0,0.0,0.0,0.0,0.0,0.0,0.0,0.0,0.0,0.0,0.0,0.0,0.0,0.0,0.0,0.0,-0.6146,-0.5764,0.0,0.0,0.0,0.0,0.0,0.0,0.0,0.0,-0.6173,0.0,0.0,0.0,0.0,0.0,0.0,0.0,0.0,0.0,0.0,0.0,0.0,0.0,0.0,0.0,0.0,0.0,0.0,0.0,0.0,0.0,0.0,0.0,0.0,0.0,0.0,0.0,0.0,0.0,0.0,0.0,0.0,0.0,0.0,0.0,0.0,0.0,0.0,0.0,0.0,0.0,0.0,0.0,0.0,0.0,0.0,0.0,0.0,0.0,0.0,0.0,0.0,0.0,0.0,0.0,0.0,-0.5315,-0.5067,-0.5011,-0.5197,-0.5428,-0.5654,-0.5836,-0.6207,-0.6663,-0.7214,0.0,0.0,0.0,0.0,0.0,0.0,0.0,0.0,0.0,0.0,0.0,0.0,0.0,0.0,0.0,0.0,0.0,0.0,0.0,0.0,0.0,0.0,0.0,0.0,0.0,0.0,0.0,0.0,0.0,0.0,0.0,0.0,0.0,0.0,0.0,0.0,0.0,0.0,0.0,-0.5463,-0.5571,0.0,0.0,0.0,0.0,0.0,0.0,0.0,0.0,-0.6367,0.0,0.0,0.0,0.0,0.0,0.0,0.0,0.0,0.0,0.0,0.0,0.0,0.0,0.0,0.0,0.0,0.0,0.0,0.0,0.0,0.0,0.0,0.0,0.0,0.0,0.0,0.0,0.0,0.0,0.0,0.0,0.0,0.0,0.0,0.0,0.0,0.0,0.0,0.0,0.0,0.0,0.0,0.0,0.0,0.0,0.0,0.0,0.0,0.0,0.0,0.0,0.0,0.0,0.0,0.0,-0.4966,-0.4871,-0.4838,-0.4888,-0.5179,-0.5399,-0.5506,-0.6127,-0.663,0.0,0.0,0.0,0.0,0.0,0.0,0.0,0.0,0.0,0.0,0.0,0.0,0.0,0.0,0.0,0.0,0.0,0.0,0.0,0.0,0.0,0.0,0.0,0.0,0.0,0.0,0.0,0.0,0.0,0.0,0.0,0.0,0.0,0.0,0.0,0.0,0.0,0.0,0.0,0.0,-0.5367,-0.5414,-0.5623,0.0,0.0,0.0,0.0,0.0,0.0,-0.6361,-0.6424,0.0,0.0,0.0,0.0,0.0,0.0,0.0,0.0,0.0,0.0,0.0,0.0,0.0,0.0,0.0,0.0,0.0,0.0,0.0,0.0,0.0,0.0,0.0,0.0,0.0,0.0,0.0,0.0,0.0,0.0,0.0,0.0,0.0,0.0,0.0,0.0,0.0,0.0,0.0,0.0,0.0,0.0,0.0,0.0,0.0,0.0,0.0,0.0,0.0,0.0,0.0,0.0,0.0,0.0,0.0,-0.4692,-0.4724,-0.4713,-0.4693,-0.4938,-0.5149,-0.5185,-0.5973,-0.6585,0.0,0.0,0.0,0.0,0.0,0.0,0.0,0.0,0.0,0.0,0.0,0.0,0.0,0.0,0.0,0.0,0.0,0.0,0.0,0.0,0.0,0.0,0.0,0.0,0.0,0.0,0.0,0.0,0.0,0.0,0.0,0.0,0.0,0.0,0.0,0.0,0.0,0.0,0.0,0.0,0.0,-0.5245,-0.5523,-0.5712,0.0,0.0,0.0,0.0,-0.624,-0.6321,0.0,0.0,0.0,0.0,0.0,0.0,0.0,0.0,0.0,0.0,0.0,0.0,0.0,0.0,0.0,0.0,0.0,0.0,0.0,0.0,0.0,0.0,0.0,0.0,0.0,0.0,0.0,0.0,0.0,0.0,0.0,0.0,0.0,0.0,0.0,0.0,0.0,0.0,0.0,0.0,0.0,0.0,0.0,0.0,0.0,0.0,0.0,0.0,0.0,0.0,0.0,0.0,0.0,0.0,0.0,0.0,-0.4718,-0.4594,-0.4542,-0.4528,-0.474,-0.4914,-0.5117,-0.5603,-0.6218,0.0,0.0,0.0,0.0,0.0,0.0,0.0,0.0,0.0,0.0,0.0,0.0,0.0,0.0,0.0,0.0,0.0,0.0,0.0,0.0,0.0,0.0,0.0,0.0,0.0,0.0,0.0,0.0,0.0,0.0,0.0,0.0,0.0,0.0,0.0,0.0,0.0,0.0,0.0,0.0,0.0,-0.5156,-0.53,-0.5518,-0.5677,0.0,0.0,-0.5904,-0.5848,-0.6021,0.0,0.0,0.0,0.0,0.0,0.0,0.0,0.0,0.0,0.0,0.0,0.0,0.0,0.0,0.0,0.0,0.0,0.0,0.0,0.0,0.0,0.0,0.0,0.0,0.0,0.0,0.0,0.0,0.0,0.0,0.0,0.0,0.0,0.0,0.0,0.0,0.0,0.0,0.0,0.0,0.0,0.0,0.0,0.0,0.0,0.0,0.0,0.0,0.0,0.0,0.0,0.0,0.0,0.0,0.0,-0.4498,-0.4455,-0.4498,-0.4439,-0.441,-0.4577,-0.4778,-0.4913,-0.5417,-0.6022,0.0,0.0,0.0,0.0,0.0,0.0,0.0,0.0,0.0,0.0,0.0,0.0,0.0,0.0,0.0,0.0,0.0,0.0,0.0,0.0,0.0,0.0,0.0,0.0,0.0,0.0,0.0,0.0,0.0,0.0,0.0,0.0,0.0,0.0,0.0,0.0,0.0,0.0,0.0,0.0,0.0,0.0,-0.5112,-0.5285,0.0,0.0,0.0,-0.5845,-0.5692,0.0,0.0,0.0,0.0,0.0,0.0,0.0,0.0,0.0,0.0,0.0,0.0,0.0,0.0,0.0,0.0,0.0,0.0,0.0,0.0,0.0,0.0,0.0,0.0,0.0,0.0,0.0,0.0,0.0,0.0,0.0,0.0,0.0,0.0,0.0,0.0,0.0,0.0,0.0,0.0,0.0,0.0,0.0,0.0,0.0,0.0,0.0,0.0,0.0,0.0,0.0,0.0,0.0,0.0,0.0,0.0,0.0,-0.4303,-0.4416,-0.4387,-0.4306,-0.4464,-0.4595,-0.4794,-0.5253,0.0,0.0,0.0,0.0,0.0,0.0,0.0,0.0,0.0,0.0,0.0,0.0,0.0,0.0,0.0,0.0,0.0,0.0,0.0,0.0,0.0,0.0,0.0,0.0,0.0,0.0,0.0,-0.7252,0.0,0.0,0.0,0.0,0.0,0.0,0.0,0.0,0.0,0.0,0.0,0.0,0.0,0.0,-0.4797,-0.4924,-0.5049,-0.5176,0.0,0.0,-0.5676,-0.5544,-0.5649,-0.575,0.0,0.0,0.0,0.0,0.0,0.0,0.0,0.0,0.0,0.0,0.0,0.0,0.0,0.0,0.0,0.0,0.0,0.0,0.0,0.0,0.0,0.0,0.0,0.0,0.0,0.0,0.0,0.0,0.0,0.0,0.0,0.0,0.0,0.0,0.0,0.0,0.0,0.0,0.0,0.0,0.0,0.0,0.0,0.0,0.0,0.0,0.0,0.0,0.0,0.0,0.0,0.0,0.0,0.0,0.0,-0.4303,-0.4308,-0.4311,-0.4303,-0.4334,-0.4464,-0.4794,-0.5024,-0.5484,0.0,0.0,0.0,0.0,0.0,0.0,0.0,0.0,0.0,0.0,0.0,0.0,0.0,0.0,0.0,0.0,0.0,0.0,0.0,0.0,0.0,0.0,0.0,0.0,0.0,0.0,0.0,0.0,0.0,0.0,0.0,0.0,0.0,0.0,0.0,0.0,0.0,0.0,0.0,0.0,0.0,-0.4691,-0.4698,-0.474,-0.4776,0.0,0.0,-0.5224,-0.5216,-0.5385,-0.5471,-0.5341,0.0,0.0,0.0,0.0,0.0,0.0,0.0,0.0,0.0,0.0,0.0,0.0,0.0,0.0,0.0,0.0,0.0,0.0,0.0,0.0,0.0,0.0,0.0,0.0,0.0,0.0,0.0,0.0,0.0,0.0,0.0,0.0,0.0,0.0,0.0,0.0,0.0,0.0,0.0,0.0,0.0,0.0,0.0,0.0,0.0,0.0,0.0,0.0,0.0,0.0,0.0,0.0,0.0,-0.4303,-0.4303,-0.4303,-0.4303,-0.4303,-0.4303,-0.4434,-0.4658,-0.4827,-0.5223,0.0,0.0,0.0,0.0,0.0,0.0,0.0,0.0,0.0,0.0,0.0,0.0,0.0,0.0,0.0,0.0,0.0,0.0,0.0,0.0,0.0,0.0,0.0,0.0,0.0,0.0,0.0,0.0,-0.6148,-0.5994,-0.5784,0.0,0.0,0.0,0.0,0.0,0.0,0.0,0.0,0.0,0.0,-0.4543,-0.4504,-0.4504,0.0,0.0,-0.4644,-0.476,-0.4881,-0.4962,-0.5027,-0.5101,-0.5174,0.0,0.0,0.0,0.0,0.0,0.0,0.0,0.0,0.0,0.0,0.0,0.0,0.0,0.0,0.0,0.0,0.0,0.0,0.0,0.0,0.0,0.0,0.0,0.0,0.0,0.0,0.0,0.0,0.0,0.0,0.0,0.0,0.0,0.0,0.0,0.0,0.0,0.0,0.0,0.0,0.0,0.0,0.0,0.0,0.0,0.0,0.0,0.0,0.0,0.0,0.0,0.0,-0.4303,-0.4303,-0.4303,-0.4303,-0.4303,-0.4303,-0.44,-0.4595,-0.4728,-0.5027,0.0,0.0,0.0,0.0,0.0,0.0,0.0,0.0,0.0,0.0,0.0,0.0,0.0,0.0,0.0,0.0,0.0,0.0,0.0,0.0,0.0,0.0,0.0,0.0,0.0,0.0,0.0,0.0,-0.5516,-0.5289,-0.5108,0.0,0.0,0.0,0.0,0.0,0.0,0.0,0.0,0.0,0.0,-0.4309,-0.4309,-0.4309,-0.4309,-0.4309,-0.4345,-0.4462,-0.4582,-0.4621,-0.4662,-0.4781,0.0,0.0,0.0,0.0,0.0,0.0,0.0,0.0,0.0,0.0,0.0,0.0,0.0,0.0,0.0,0.0,0.0,0.0,0.0,0.0,0.0,0.0,0.0,0.0,0.0,0.0,0.0,0.0,0.0,0.0,-0.3347,0.0,0.0,0.0,0.0,0.0,0.0,0.0,0.0,0.0,0.0,0.0,0.0,0.0,0.0,0.0,0.0,0.0,0.0,0.0,0.0,0.0,0.0,-0.4303,-0.4303,-0.4303,-0.4303,-0.4303,-0.4303,-0.44,-0.4595,-0.4728,-0.4997,-0.5392,0.0,0.0,0.0,0.0,0.0,0.0,0.0,0.0,0.0,0.0,0.0,0.0,0.0,0.0,0.0,0.0,0.0,0.0,0.0,0.0,0.0,0.0,0.0,0.0,0.0,0.0,-0.5135,-0.4941,-0.4705,0.0,0.0,0.0,0.0,0.0,0.0,0.0,0.0,0.0,0.0,-0.4229,-0.4118,-0.4116,-0.4116,-0.4114,-0.4116,-0.4268,-0.4382,-0.4384,-0.4423,-0.4423,0.0,0.0,0.0,0.0,0.0,0.0,0.0,0.0,0.0,0.0,0.0,0.0,0.0,0.0,0.0,0.0,0.0,0.0,0.0,0.0,0.0,0.0,0.0,0.0,0.0,0.0,0.0,-0.1994,-0.2083,0.0,0.0,0.0,0.0,0.0,0.0,0.0,0.0,0.0,0.0,0.0,-0.1682,-0.1682,0.0,0.0,0.0,0.0,0.0,0.0,0.0,0.0,0.0,0.0,0.0,0.0,-0.4209,-0.4102,-0.4233,-0.4303,-0.4303,-0.4303,-0.4331,-0.44,-0.4561,-0.4894,-0.5392,0.0,0.0,0.0,0.0,0.0,0.0,0.0,0.0,0.0,0.0,0.0,0.0,0.0,0.0,0.0,0.0,0.0,0.0,0.0,0.0,0.0,0.0,0.0,0.0,0.0,-0.482,0.0,0.0,0.0,0.0,0.0,0.0,0.0,0.0,0.0,0.0,0.0,-0.4119,-0.4031,-0.3958,-0.3859,-0.3796,-0.3787,-0.3789,0.0,0.0,0.0,0.0,0.0,0.0,0.0,0.0,0.0,0.0,0.0,0.0,0.0,0.0,-0.4077,-0.4851,-0.5124,-0.5201,-0.5201,0.0,0.0,0.0,0.0,0.0,0.0,0.0,0.0,0.0,0.0,0.0,0.0,0.0,0.0,-0.0876,0.0,-0.1213,0.0,0.0,0.0,0.0,0.0,0.0,0.0,0.0,-0.1114,-0.086,-0.0774,-0.0774,-0.0856,0.0,-0.1446,-0.2143,0.0,0.0,0.0,0.0,0.0,0.0,0.0,0.0,-0.4037,-0.3933,-0.4064,-0.4131,-0.4131,-0.4131,-0.4167,-0.42,-0.4461,-0.4794,-0.5196,-0.5458,-0.5535,0.0,0.0,0.0,0.0,0.0,0.0,0.0,0.0,0.0,0.0,0.0,0.0,0.0,0.0,0.0,0.0,0.0,0.0,0.0,0.0,0.0,0.0,0.0,-0.4273,0.0,0.0,0.0,0.0,0.0,0.0,0.0,0.0,0.0,-0.3882,-0.3882,-0.3804,-0.3569,-0.3542,-0.3503,-0.341,0.0,0.0,0.0,0.0,0.0,0.0,0.0,-0.3745,-0.3897,-0.3933,-0.3859,-0.3747,-0.3478,-0.3257,-0.3284,0.0,0.0,-0.4031,-0.4192,-0.4231,-0.427,-0.4309,-0.4387,-0.4387,-0.4543,-0.4774,0.0,0.0,0.0,0.0,0.0,0.0,0.0,0.0,0.0169,0.0084,0.0,-0.0379,0.0,0.0,0.0,0.0,0.0,-0.0945,0.0,0.0,-0.0355,-0.0224,0.0045,0.0045,-0.0177,-0.0522,-0.0564,-0.0934,-0.1628,-0.2798,0.0,0.0,0.0,0.0,0.0,0.0,-0.3834,-0.3761,-0.3758,-0.3792,-0.3758,-0.3792,-0.3861,-0.3997,-0.4361,-0.4628,-0.4764,-0.499,-0.4993,-0.4791,-0.4831,0.0,0.0,0.0,0.0,0.0,0.0,0.0,0.0,0.0,0.0,0.0,0.0,0.0,0.0,0.0,0.0,0.0,0.0,0.0,0.0,-0.393,0.0,0.0,0.0,0.0,0.0,0.0,0.0,0.0,0.0,0.0,-0.3441,-0.348,-0.3407,-0.3136,0.0,0.0,0.0,0.0,-0.302,-0.2983,-0.2982,-0.2985,-0.3025,-0.299,-0.2989,-0.2989,0.0,0.0,-0.2989,-0.2951,-0.2941,-0.2936,-0.2948,-0.2969,-0.3037,-0.3248,-0.3368,-0.3368,-0.3563,-0.3724,-0.3763,-0.3921,-0.4194,0.4356,0.0,0.0,0.0,0.0,0.1325,0.1014,0.0881,0.0617,0.0524,0.0517,0.0259,0.0,0.0,0.0,0.0,0.0,0.0,0.0044,0.0222,0.0537,0.0718,0.0762,0.0807,0.0715,0.0622,0.0219,-0.0214,-0.0708,-0.1391,-0.1999,-0.2525,0.0,0.0,0.0,0.0,-0.3344,-0.3234,-0.3326,-0.336,-0.336,-0.3393,-0.346,-0.3629,-0.3894,-0.4092,-0.4228,-0.4422,-0.4465,-0.4313,-0.4216,0.0,0.0,0.0,0.0,0.0,0.0,0.0,0.0,0.0,0.0,0.0,0.0,0.0,0.0,0.0,0.0,0.0,0.0,0.0,-0.3923,-0.3857,-0.3825,0.0,0.0,0.0,0.0,0.0,0.0,0.0,0.0,0.0,-0.2833,-0.2981,-0.3133,0.0,0.0,-0.2963,-0.2873,-0.2846,-0.2868,-0.2868,-0.2868,0.0,0.0,-0.2804,-0.2731,-0.2584,-0.244,-0.237,-0.2369,-0.2225,-0.2156,-0.2135,-0.2139,-0.2144,-0.2198,-0.2493,-0.2698,-0.2588,-0.2588,-0.2705,-0.2862,-0.3137,-0.3511,0.5921,0.4964,0.3894,0.3226,0.2825,0.2241,0.1883,0.1615,0.1391,0.1292,0.1278,0.0925,0.0787,0.0778,0.0475,0.0,0.0,0.0,0.0701,0.0796,0.1054,0.1181,0.1182,0.1181,0.1138,0.105,0.0735,0.0382,0.0042,-0.0286,-0.0719,-0.1239,0.0,0.0,-0.2151,-0.2452,-0.253,-0.2459,-0.252,-0.2587,-0.2688,-0.2795,-0.2927,-0.3026,-0.3215,-0.3374,-0.3439,-0.3573,-0.3579,-0.3513,-0.3416,-0.3334,0.0,0.0,0.0,0.0,0.0,0.0,0.0,0.0,0.0,0.0,0.0,-0.4157,0.0,0.0,0.0,0.0,-0.3655,-0.3761,-0.3702,-0.3685,0.0,0.0,0.0,0.0,0.0,0.0,0.0,-0.3202,-0.3016,-0.2722,-0.2394,-0.244,-0.2507,-0.2533,-0.2479,-0.2461,-0.235,0.0,-0.2304,-0.234,-0.2338,-0.2283,-0.2182,-0.2154,-0.2077,-0.1918,-0.1815,-0.1686,-0.1702,-0.1634,-0.1612,-0.1641,-0.1723,-0.1766,-0.1673,-0.1908,-0.2097,-0.2058,-0.2059,-0.2096,-0.2212,-0.2518,-0.2958,0.7203,0.6716,0.5164,0.4321,0.3927,0.3304,0.2858,0.2545,0.2365,0.2232,0.2188,0.1696,0.1473,0.1428,0.0981,0.0,0.1159,0.1095,0.1214,0.1429,0.136,0.1348,0.1348,0.1348,0.1263,0.1094,0.1093,0.0913,0.069,0.0486,0.0395,0.034,-0.0978,-0.156,-0.1344,-0.149,-0.1591,-0.1514,-0.1513,-0.1612,-0.181,-0.212,-0.2252,-0.2222,-0.24,-0.249,-0.2523,-0.2528,-0.2531,-0.2526,-0.2453,-0.2451,-0.2505,0.0,0.0,0.0,0.0,0.0,0.0,0.0,0.0,0.0,0.0,0.0,0.0,0.0,0.0,0.0,-0.3292,0.0,-0.3511,-0.343,0.0,0.0,0.0,-0.3132,-0.2974,-0.2946,-0.291,-0.2755,0.0,0.0,-0.2073,-0.1843,-0.1685,-0.1724,-0.1696,-0.167,-0.1667,-0.166,-0.1574,-0.1609,-0.1575,-0.1477,-0.1356,-0.1291,-0.125,-0.1129,-0.105,-0.1066,-0.1057,-0.1159,-0.125,-0.1303,-0.1492,-0.1535,-0.1433,-0.1398,-0.1477,-0.1652,-0.1707,-0.1752,-0.1829,-0.2085,-0.2484,0.7411,0.7143,0.6586,0.5755,0.4759,0.4326,0.3813,0.3289,0.2901,0.2561,0.2264,0.2136,0.2007,0.1836,0.1751,0.1708,0.1793,0.1784,0.178,0.1864,0.1855,0.185,0.1808,0.1851,0.1809,0.1764,0.1735,0.1539,0.1307,0.1245,0.11,0.092,0.0577,0.0071,-0.053,-0.0773,-0.0829,-0.0773,-0.0773,-0.0865,-0.1041,-0.1171,-0.1335,-0.1509,-0.157,-0.1692,-0.1846,-0.1828,-0.183,-0.1847,-0.1775,-0.1746,-0.1763,-0.1796,0.0,0.0,0.0,0.0,0.0,0.0,0.0,0.0,0.0,-0.3306,-0.3079,0.0,-0.317,0.0,-0.2789,-0.2805,-0.2958,-0.2975,0.0,0.0,-0.3002,-0.2945,-0.2723,-0.2654,-0.2517,-0.2287,-0.2061,-0.1803,-0.1583,-0.1472,-0.1341,-0.1228,-0.1436,-0.1598,-0.1532,-0.145,-0.1373,-0.1373,-0.128,-0.1155,-0.0936,-0.078,-0.0685,-0.0649,-0.0648,-0.065,-0.0623,-0.0655,-0.069,-0.0699,-0.0765,-0.0767,-0.0774,-0.074,-0.0742,-0.081,-0.1102,-0.1385,-0.1531,-0.1784,-0.2063,0.7568,0.7447,0.7236,0.6705,0.5931,0.527,0.4667,0.4156,0.3692,0.3357,0.2982,0.2607,0.2314,0.2145,0.2019,0.2019,0.1975,0.1955,0.1936,0.1918,0.1899,0.1879,0.1859,0.1859,0.1859,0.1858,0.1834,0.1733,0.1598,0.1575,0.1507,0.1362,0.1376,0.1072,0.0507,0.0171,0.0,-0.0066,-0.013,-0.0255,-0.0341,-0.0427,-0.057,-0.071,-0.0709,-0.0769,-0.0887,-0.0869,-0.087,-0.0888,-0.0854,-0.0847,-0.0921,-0.1018,-0.1099,0.0,0.0,0.0,0.0,0.0,0.0,0.0,0.0,0.0,0.0,0.0,-0.2523,-0.2319,-0.228,-0.2376,-0.2548,-0.2592,-0.2585,-0.2543,-0.2584,-0.2517,-0.2262,-0.2214,-0.2092,-0.1838,-0.1667,-0.1458,-0.1173,-0.1118,-0.0995,-0.0805,-0.0961,-0.1128,-0.1169,-0.1038,-0.0938,-0.0938,-0.0877,-0.0726,-0.0484,-0.0242,-0.012,-0.0119,-0.0118,-0.0089,-0.0121,-0.0182,-0.0273,-0.0277,-0.0401,-0.0494,-0.0494,-0.0494,-0.0494,-0.0529,-0.0682,-0.0913,-0.1019,-0.1258,-0.1553,0.7726,0.7665,0.7424,0.7244,0.6983,0.614,0.5506,0.5025,0.46,0.4257,0.3874,0.3057,0.2603,0.2397,0.2149,0.2066,0.2062,0.1984,0.1904,0.1868,0.1867,0.1826,0.1787,0.175,0.1786,0.1823,0.1823,0.182,0.1849,0.1849,0.1823,0.1806,0.1805,0.1723,0.1575,0.115,0.0822,0.0643,0.0436,0.0333,0.0324,0.0205,0.0115,0.0112,0.0112,0.0112,0.0112,0.0086,0.0087,0.0084,0.0058,0.0,-0.0112,-0.0224,-0.0313,0.0,-0.0442,0.0,0.0,0.0,0.0,0.0,0.0,0.0,0.0,-0.1658,-0.1715,-0.1715,-0.1715,-0.1836,-0.2099,-0.2104,-0.2091,-0.1999,-0.2005,-0.1893,-0.1699,-0.1697,-0.1592,-0.1306,-0.1293,-0.1135,-0.0831,-0.0761,-0.0682,-0.0533,-0.0499,-0.0565,-0.0682,-0.0586,-0.0489,-0.0463,-0.0434,-0.0316,-0.0058,0.0203,0.0375,0.0395,0.0366,0.0425,0.0408,0.0205,0.003,0.0,-0.0213,-0.0395,-0.0427,-0.0427,-0.0426,-0.0395,-0.0428,-0.0461,-0.0559,-0.0749,-0.0988,0.7838,0.7551,0.7465,0.7288,0.6942,0.6745,0.6294,0.5695,0.536,0.4728,0.3931,0.3481,0.3145,0.2923,0.2624,0.251,0.2473,0.2315,0.223,0.2183,0.221,0.22,0.2189,0.2188,0.2261,0.244,0.244,0.2485,0.2574,0.261,0.2547,0.2428,0.2427,0.2288,0.2055,0.0,0.0,0.0,0.1209,0.1097,0.1001,0.0948,0.0847,0.0729,0.0729,0.0,0.0729,0.0621,0.0565,0.0561,0.0423,0.0,0.0,0.0,0.0,0.0,0.0,0.0,0.0,0.0,0.0,0.0,0.0,-0.03,-0.0667,-0.0737,-0.0773,-0.0773,-0.0773,-0.0884,-0.1153,-0.1156,-0.1239,-0.1417,-0.1458,-0.1363,-0.11,-0.1093,-0.097,-0.0696,-0.0676,-0.0657,-0.0576,-0.0502,-0.046,-0.0416,-0.0335,-0.0259,-0.0315,-0.0289,-0.0261,-0.026,-0.0105,0.0079,0.0135,0.0299,0.0494,0.0556,0.0505,0.0478,0.0594,0.0454,0.0283,0.02,0.0114,0.0029,-0.0086,-0.0114,-0.0114,-0.0086,-0.0086,-0.0174,-0.0427,-0.0555,-0.0648,0.7761,0.0,0.7401,0.7233,0.0,0.6973,0.6658,0.6217,0.5842,0.5255,0.4504,0.3964,0.36,0.3348,0.3023,0.2804,0.2767,0.2623,0.257,0.2539,0.2539,0.2521,0.2489,0.2487,0.2557,0.2659,0.2627,0.2627,0.2691,0.2621,0.2565,0.2495,0.2493,0.2423,0.226,0.2105,0.184,0.1419,0.1375,0.1323,0.1265,0.133,0.1318,0.1234,0.0,0.0,0.0,0.0,0.0,0.0,0.0,0.0,0.0,0.0,0.0,0.0871,0.0724,0.0708,0.0835,0.0817,0.0823,0.0921,0.0934,0.0706,0.0202,0.0235,0.0235,0.0134,0.0134,0.0034,-0.0171,-0.0274,-0.0378,-0.0549,-0.0619,-0.0642,-0.0618,-0.0613,-0.0571,-0.0518,-0.0476,-0.0463,-0.0385,-0.0323,-0.0287,-0.0223,-0.0147,-0.0122,-0.012,-0.0099,-0.0101,-0.0101,0.0126,0.0279,0.031,0.0493,0.0656,0.0839,0.082,0.0799,0.0868,0.0757,0.0589,0.0476,0.036,0.0246,0.0136,0.0108,0.008,0.0027,0.0053,0.0054,-0.014,-0.0259,-0.0383,0.773,0.7526,0.7335,0.7247,0.7178,0.7076,0.6887,0.6616,0.0,0.0,0.0,0.4479,0.4089,0.3837,0.341,0.3126,0.2945,0.2945,0.2875,0.2781,0.278,0.2746,0.2688,0.2706,0.2732,0.2764,0.2725,0.272,0.275,0.262,0.2582,0.257,0.2568,0.2497,0.2421,0.2356,0.2101,0.1691,0.1508,0.1486,0.1514,0.1656,0.1768,0.1796,0.1905,0.1959,0.1959,0.1821,0.1768,0.174,0.1543,0.143,0.143,0.129,0.1325,0.1524,0.147,0.1474,0.1649,0.1657,0.1657,0.1723,0.1723,0.1526,0.1,0.1101,0.1165,0.0994,0.0993,0.0927,0.0728,0.0563,0.0459,0.0352,0.0224,0.0063,-0.0092,-0.0184,-0.0242,-0.0353,-0.0377,-0.0368,-0.0186,-0.0183,-0.0128,0.0,0.0,0.0,0.0023,0.0024,0.0,0.0,0.0196,0.0395,0.0424,0.0624,0.0862,0.1022,0.1029,0.1067,0.1065,0.0964,0.0854,0.0684,0.0537,0.0397,0.0263,0.0232,0.0202,0.0101,0.0151,0.0227,0.0203,0.0079,-0.0082,0.7855,0.7655,0.7522,0.7351,0.7198,0.7164,0.7073,0.6814,0.6317,0.5884,0.5513,0.5111,0.4779,0.4445,0.3936,0.3497,0.3163,0.3061,0.2883,0.0,0.2701,0.273,0.2716,0.275,0.2847,0.294,0.2984,0.3131,0.3254,0.3239,0.3222,0.3175,0.3166,0.3056,0.2822,0.28,0.2772,0.2675,0.2301,0.2156,0.2326,0.2354,0.2439,0.2551,0.2551,0.2579,0.2579,0.2465,0.2382,0.2382,0.2073,0.1905,0.1903,0.1792,0.1736,0.174,0.1746,0.1775,0.1836,0.1873,0.1935,0.2122,0.2217,0.2082,0.1616,0.1588,0.1636,0.1723,0.1721,0.1653,0.1465,0.1312,0.1155,0.0992,0.0744,0.0583,0.0536,0.0297,0.0117,0.0085,0.0,-0.008,-0.0026,-0.0025,-0.0024,0.0,0.0,0.0068,0.0136,0.0091,0.0,0.0,0.0229,0.0371,0.0429,0.0626,0.0831,0.0985,0.094,0.0918,0.1006,0.0904,0.0775,0.0642,0.0614,0.0509,0.0381,0.038,0.035,0.0325,0.035,0.0375,0.0375,0.0304,0.0256,0.8157,0.7851,0.7613,0.7457,0.737,0.714,0.6996,0.6889,0.6639,0.633,0.602,0.555,0.5186,0.4858,0.4495,0.4095,0.3627,0.3558,0.3458,0.3286,0.3241,0.3187,0.3177,0.3122,0.3174,0.3201,0.3199,0.3241,0.3329,0.3277,0.3225,0.3201,0.3177,0.3177,0.3182,0.3149,0.3116,0.3121,0.277,0.2657,0.2826,0.2938,0.3049,0.3186,0.3244,0.3299,0.3299,0.3188,0.3074,0.2996,0.274,0.2599,0.2601,0.2488,0.2411,0.2459,0.2378,0.2324,0.2277,0.2219,0.2219,0.2282,0.2436,0.2463,0.2303,0.2152,0.2096,0.216,0.2157,0.2127,0.2034,0.191,0.1745,0.1535,0.1322,0.1099,0.0838,0.0689,0.0481,0.0247,0.0161,0.0104,0.0099,0.0097,0.0141,0.0204,0.0225,0.0247,0.0292,0.027,0.0202,0.0225,0.036,0.043,0.0461,0.0601,0.08,0.0972,0.0953,0.0937,0.1002,0.0932,0.0856,0.073,0.0721,0.0663,0.0539,0.0481,0.0452,0.0403,0.0427,0.0451,0.0451,0.0451,0.0433,0.8447,0.8084,0.7782,0.7624,0.7526,0.7171,0.7045,0.7045,0.6979,0.6811,0.6548,0.6013,0.5617,0.5319,0.509,0.4694,0.4228,0.4192,0.4046,0.3782,0.3706,0.3629,0.3563,0.3466,0.3413,0.3401,0.3367,0.3343,0.336,0.3283,0.3282,0.3309,0.3308,0.341,0.3568,0.3521,0.3518,0.358,0.3395,0.3311,0.3366,0.3509,0.3682,0.3873,0.3987,0.4045,0.4042,0.3959,0.3852,0.3744,0.3547,0.3436,0.3408,0.3267,0.3191,0.3213,0.3105,0.2966,0.2829,0.2688,0.2626,0.2626,0.2656,0.2749,0.284,0.2678,0.2566,0.2566,0.2559,0.2561,0.2527,0.241,0.2243,0.2099,0.1804,0.147,0.1127,0.0954,0.0747,0.0348,0.0264,0.0257,0.0243,0.0237,0.0279,0.0362,0.0405,0.0405,0.0405,0.0405,0.045,0.0472,0.0494,0.0495,0.0517,0.0608,0.0753,0.0914,0.0916,0.0903,0.0923,0.0932,0.0884,0.078,0.0768,0.0733,0.0634,0.0576,0.0543,0.0499,0.0522,0.0565,0.0543,0.0566,0.0504,0.8787,0.8447,0.8242,0.7949,0.7694,0.7498,0.7428,0.7428,0.7269,0.7167,0.7073,0.6548,0.6214,0.598,0.5683,0.5256,0.4761,0.4728,0.4399,0.3848,0.3798,0.3648,0.3459,0.3478,0.3485,0.3502,0.3548,0.3584,0.3579,0.3663,0.3793,0.3906,0.3904,0.3959,0.4028,0.4022,0.4182,0.4549,0.4559,0.4394,0.4112,0.4121,0.4314,0.4756,0.4783,0.4787,0.4769,0.4787,0.4759,0.4763,0.4615,0.4477,0.4377,0.4181,0.4021,0.3903,0.3789,0.3655,0.3506,0.3388,0.3314,0.3304,0.3142,0.3081,0.3095,0.3074,0.3021,0.303,0.3025,0.3008,0.3018,0.2806,0.2641,0.2576,0.2121,0.169,0.1517,0.115,0.083,0.0588,0.0439,0.0399,0.0383,0.0371,0.0385,0.0428,0.045,0.045,0.0494,0.0494,0.0539,0.0607,0.0584,0.0517,0.0517,0.0607,0.0699,0.0748,0.0747,0.0753,0.076,0.0758,0.0707,0.0744,0.0732,0.0706,0.0704,0.0675,0.0675,0.0629,0.0652,0.0674,0.0674,0.0672,0.061,0.9338,0.8958,0.8759,0.8404,0.8014,0.7727,0.7629,0.7596,0.7461,0.7363,0.733,0.7003,0.6708,0.6441,0.6178,0.5855,0.5451,0.5101,0.4777,0.4452,0.4159,0.3936,0.3765,0.3797,0.3767,0.3704,0.3769,0.386,0.3843,0.389,0.4031,0.4222,0.4124,0.4188,0.4431,0.4427,0.456,0.4873,0.4919,0.4994,0.5112,0.4865,0.4874,0.5114,0.5152,0.5126,0.5148,0.5126,0.515,0.5196,0.5151,0.5146,0.525,0.5117,0.4956,0.4759,0.4405,0.4184,0.4135,0.391,0.3744,0.3747,0.3688,0.3633,0.3633,0.3633,0.3633,0.3605,0.3411,0.3274,0.3274,0.316,0.3051,0.2826,0.2521,0.2214,0.1877,0.1487,0.1128,0.0829,0.0625,0.0506,0.0465,0.0523,0.0585,0.0584,0.0584,0.0584,0.0629,0.0629,0.0629,0.0697,0.0652,0.0629,0.0607,0.0652,0.0697,0.0697,0.0697,0.0697,0.0697,0.0697,0.0697,0.0696,0.0693,0.0693,0.0699,0.0697,0.0697,0.0694,0.0695,0.0693,0.0697,0.0693,0.0649,0.9919,0.9466,0.9145,0.8727,0.8242,0.7922,0.7759,0.7666,0.7559,0.7493,0.7484,0.7307,0.7053,0.6835,0.6621,0.6326,0.594,0.5563,0.5178,0.4848,0.4492,0.4236,0.4018,0.3989,0.3965,0.3938,0.4024,0.4132,0.4226,0.4181,0.4323,0.4554,0.4405,0.4469,0.4824,0.4816,0.4949,0.5253,0.5318,0.5552,0.5848,0.5611,0.5505,0.5556,0.5594,0.557,0.557,0.5594,0.5591,0.5629,0.5643,0.5756,0.5971,0.5887,0.5747,0.5546,0.5144,0.4901,0.4873,0.4543,0.4353,0.4353,0.427,0.419,0.419,0.4159,0.4132,0.4104,0.3855,0.3691,0.358,0.3522,0.3383,0.3132,0.294,0.2597,0.2151,0.1806,0.1467,0.1076,0.0826,0.0635,0.0591,0.0652,0.0697,0.0697,0.0697,0.0697,0.0697,0.0697,0.0697,0.0697,0.0697,0.0697,0.0697,0.0697,0.0697,0.0697,0.0697,0.0697,0.0695,0.0692,0.0707,0.0698,0.0678,0.0671,0.0662,0.0666,0.0674,0.0673,0.0672,0.0668,0.0666,0.0662,0.0682,1.0333,0.9919,0.9274,0.8829,0.8447,0.8117,0.7889,0.7699,0.7554,0.7517,0.7451,0.7285,0.7204,0.7119,0.6901,0.6573,0.6133,0.6029,0.5552,0.481,0.4694,0.4409,0.4008,0.3993,0.4052,0.4218,0.4245,0.4467,0.4835,0.468,0.4756,0.5108,0.4882,0.4929,0.523,0.5273,0.548,0.5884,0.5933,0.6079,0.6327,0.6351,0.6287,0.6251,0.6253,0.6226,0.6218,0.6228,0.6239,0.6255,0.623,0.6305,0.6452,0.6458,0.6373,0.6176,0.6023,0.5859,0.5719,0.5441,0.5254,0.5199,0.4932,0.4688,0.4684,0.4601,0.4515,0.4491,0.4432,0.4298,0.4024,0.3882,0.3719,0.358,0.3272,0.2868,0.2384,0.2075,0.1723,0.1341,0.1024,0.0817,0.07,0.0697,0.0697,0.0697,0.0697,0.0695,0.0693,0.0694,0.0693,0.069,0.0712,0.0695,0.0695,0.0697,0.0697,0.0695,0.0694,0.0693,0.0708,0.0699,0.0707,0.0693,0.0638,0.0627,0.0617,0.0616,0.0621,0.0624,0.0627,0.0619,0.0633,0.0611,0.0631,1.0807,1.0339,0.9766,0.9312,0.899,0.8511,0.8149,0.7879,0.7538,0.7389,0.7293,0.705,0.6934,0.6934,0.6886,0.6687,0.6393,0.5976,0.5587,0.5226,0.4986,0.471,0.4473,0.4546,0.4598,0.4653,0.4739,0.4963,0.5276,0.5099,0.5168,0.5426,0.5272,0.5311,0.569,0.5761,0.5933,0.627,0.6392,0.6526,0.6702,0.6759,0.6776,0.6726,0.6495,0.6366,0.6366,0.6366,0.6435,0.6545,0.655,0.6635,0.6851,0.6971,0.7013,0.7015,0.6842,0.6652,0.649,0.629,0.61,0.5996,0.5805,0.5559,0.5395,0.5171,0.4979,0.4901,0.4818,0.4677,0.4543,0.427,0.3996,0.3858,0.3685,0.3359,0.2939,0.2527,0.2089,0.1612,0.1191,0.0867,0.0837,0.0764,0.0697,0.0697,0.0697,0.071,0.0695,0.0711,0.0686,0.0646,0.0641,0.0641,0.0641,0.0676,0.0695,0.0712,0.0708,0.0694,0.0705,0.0663,0.0648,0.0644,0.0608,0.0601,0.0597,0.0598,0.0598,0.06,0.0601,0.0588,0.0603,0.0601,0.06,1.1059,1.0618,1.0244,0.983,0.944,0.8894,0.8398,0.7967,0.7557,0.7267,0.7062,0.6812,0.6723,0.6704,0.6652,0.6561,0.644,0.6012,0.5755,0.5575,0.5258,0.5042,0.4932,0.4983,0.5089,0.5199,0.5367,0.5592,0.5766,0.5563,0.559,0.583,0.5639,0.5744,0.6062,0.619,0.6377,0.6626,0.6795,0.6929,0.7041,0.7118,0.7133,0.7091,0.6865,0.666,0.6596,0.6581,0.6606,0.6758,0.6738,0.6816,0.7084,0.7308,0.7475,0.7541,0.7443,0.7327,0.7219,0.7052,0.6918,0.6815,0.662,0.6376,0.6159,0.58,0.5504,0.5285,0.5097,0.5014,0.4846,0.4601,0.4384,0.4236,0.4039,0.3794,0.3404,0.2906,0.2364,0.1761,0.1325,0.108,0.0965,0.0854,0.0787,0.0764,0.0712,0.0695,0.07,0.0664,0.0654,0.0614,0.0613,0.0615,0.0617,0.0643,0.0656,0.0652,0.0675,0.0685,0.0673,0.0631,0.0596,0.0594,0.057,0.0584,0.0581,0.0581,0.0582,0.0565,0.0554,0.0558,0.0555,0.0551,0.0553,1.1115,1.0807,1.0656,1.0244,0.9734,0.9186,0.8551,0.7939,0.753,0.7172,0.6858,0.6596,0.6506,0.6473,0.6346,0.6206,0.623,0.621,0.5995,0.5652,0.5599,0.5477,0.5336,0.5308,0.5527,0.58,0.6073,0.6216,0.6287,0.6032,0.6014,0.6155,0.6051,0.611,0.641,0.659,0.6789,0.6979,0.7118,0.7251,0.7391,0.7391,0.7398,0.7419,0.7391,0.7265,0.7021,0.695,0.6906,0.6912,0.6798,0.6848,0.715,0.7484,0.7715,0.7758,0.7832,0.79,0.7871,0.7777,0.7696,0.7595,0.7327,0.7058,0.6815,0.6458,0.605,0.57,0.543,0.5211,0.5011,0.4882,0.4792,0.4701,0.4368,0.4079,0.3683,0.3212,0.2581,0.1816,0.1479,0.1321,0.1142,0.0987,0.0899,0.0871,0.0806,0.0719,0.0708,0.0646,0.0611,0.0584,0.0574,0.0586,0.0597,0.0608,0.0589,0.0589,0.0611,0.0628,0.0621,0.0585,0.0569,0.0563,0.0555,0.0549,0.0531,0.053,0.0526,0.0525,0.0516,0.0518,0.0517,0.0516,0.0513,1.1373,1.1115,1.0832,1.0428,0.9862,0.9217,0.8615,0.8046,0.743,0.7012,0.6769,0.644,0.6294,0.6285,0.6224,0.62,0.621,0.6216,0.6092,0.5905,0.5791,0.5759,0.5778,0.5778,0.5996,0.6376,0.6598,0.6696,0.6668,0.6493,0.6457,0.6481,0.6363,0.648,0.6781,0.6873,0.7027,0.7265,0.7363,0.7426,0.7489,0.7663,0.7753,0.7746,0.7787,0.7759,0.7635,0.737,0.7272,0.7251,0.7209,0.7303,0.7537,0.7688,0.7936,0.8204,0.8304,0.841,0.8481,0.8388,0.8282,0.8182,0.7975,0.7681,0.7333,0.7004,0.6598,0.6191,0.5841,0.5572,0.5382,0.5173,0.4938,0.4661,0.4534,0.4281,0.3773,0.3181,0.2617,0.2156,0.1746,0.1479,0.1321,0.1166,0.1054,0.1028,0.0908,0.0814,0.0766,0.0676,0.0588,0.0536,0.0534,0.0539,0.0544,0.0548,0.0548,0.0552,0.0574,0.0578,0.0571,0.0563,0.0547,0.0538,0.0528,0.0506,0.0488,0.0487,0.0487,0.0487,0.0492,0.0491,0.0489,0.0487,0.0487,1.1529,1.1373,1.1028,1.0613,1.0069,0.9383,0.8708,0.8045,0.7373,0.6912,0.6621,0.6344,0.62,0.62,0.62,0.62,0.62,0.62,0.62,0.6141,0.6087,0.6087,0.6164,0.6354,0.6544,0.6842,0.7036,0.7049,0.6907,0.6811,0.6731,0.6627,0.6597,0.6723,0.6979,0.7112,0.7259,0.7433,0.7538,0.7614,0.7676,0.7808,0.7912,0.7946,0.7987,0.7979,0.7933,0.7725,0.7572,0.7475,0.7433,0.7475,0.7629,0.7732,0.7946,0.8201,0.8465,0.8646,0.8753,0.8776,0.8784,0.8685,0.8533,0.8268,0.7869,0.7521,0.7031,0.6571,0.6168,0.585,0.5597,0.5349,0.5042,0.4697,0.4578,0.4291,0.3771,0.3224,0.2756,0.2393,0.2059,0.1748,0.1502,0.1344,0.121,0.1157,0.1002,0.0879,0.082,0.0741,0.0634,0.0561,0.0547,0.053,0.0491,0.0491,0.049,0.0515,0.0523,0.0545,0.0527,0.0522,0.0511,0.0512,0.0505,0.0505,0.0487,0.0487,0.0487,0.0487,0.0487,0.0487,0.0487,0.0487,0.0505,1.1533,1.1509,1.1183,1.0753,1.0251,0.9599,0.8788,0.7955,0.7385,0.6895,0.6507,0.6319,0.6205,0.6205,0.62,0.62,0.62,0.62,0.6282,0.6332,0.6359,0.6408,0.6517,0.6842,0.7063,0.7192,0.7381,0.7295,0.704,0.7056,0.691,0.6656,0.6796,0.6956,0.707,0.7286,0.7412,0.751,0.7642,0.7774,0.7878,0.7919,0.7953,0.8028,0.8041,0.8041,0.8028,0.7959,0.7814,0.7565,0.7489,0.7489,0.7476,0.7679,0.7797,0.7923,0.8375,0.8651,0.8791,0.8936,0.9136,0.9126,0.8903,0.8699,0.8374,0.7863,0.7354,0.6864,0.644,0.6091,0.5728,0.5399,0.5106,0.4784,0.4498,0.4157,0.3724,0.3398,0.304,0.264,0.2353,0.2064,0.1681,0.1502,0.1386,0.1272,0.1081,0.0956,0.0882,0.08,0.072,0.0656,0.0589,0.0538,0.0522,0.0487,0.0487,0.0489,0.0511,0.0512,0.0513,0.0508,0.0487,0.0487,0.0505,0.0505,0.0487,0.0488,0.0487,0.0487,0.0487,0.0487,0.0505,0.0505,0.0555,1.0843,1.0814,1.0631,1.0324,0.9964,0.9272,0.8679,0.8127,0.7439,0.7024,0.6744,0.6472,0.6309,0.62,0.6205,0.62,0.62,0.6205,0.6255,0.6413,0.6544,0.6729,0.6896,0.7117,0.7359,0.7515,0.7584,0.7559,0.7423,0.7291,0.7141,0.6947,0.6899,0.7041,0.7286,0.7349,0.7496,0.7642,0.7767,0.7857,0.7912,0.8044,0.8126,0.8147,0.8221,0.8221,0.816,0.8041,0.7946,0.7808,0.7787,0.7712,0.7643,0.7708,0.7824,0.804,0.822,0.8582,0.895,0.9002,0.9119,0.9313,0.9113,0.8883,0.8725,0.8268,0.7815,0.7327,0.6869,0.6381,0.5923,0.541,0.4927,0.4494,0.4304,0.4148,0.395,0.3689,0.3376,0.304,0.266,0.2284,0.1951,0.1679,0.1483,0.1329,0.1166,0.1027,0.0973,0.0857,0.0757,0.0707,0.0656,0.0589,0.0538,0.0505,0.0487,0.0487,0.0506,0.0524,0.0524,0.0506,0.0505,0.0487,0.0538,0.0555,0.0522,0.0505,0.0505,0.0538,0.0522,0.0538,0.0555,0.0572,0.0639,1.058,1.0587,1.0387,1.0137,0.984,0.925,0.8724,0.8269,0.7665,0.7219,0.6982,0.6744,0.65,0.6309,0.6386,0.6364,0.6305,0.6364,0.6495,0.6635,0.6847,0.7036,0.7198,0.7386,0.7568,0.7702,0.7756,0.7707,0.7583,0.745,0.7278,0.7109,0.6987,0.7097,0.7349,0.7391,0.7503,0.767,0.7795,0.7857,0.7953,0.8036,0.8188,0.825,0.836,0.8353,0.827,0.8201,0.8118,0.7995,0.7933,0.7899,0.7795,0.7774,0.7842,0.7997,0.8121,0.8443,0.8868,0.8992,0.9166,0.9393,0.929,0.9087,0.885,0.8513,0.8082,0.7515,0.7058,0.6544,0.6013,0.5353,0.4785,0.4392,0.421,0.417,0.4086,0.3818,0.3527,0.3192,0.2837,0.2464,0.2109,0.1839,0.1624,0.1418,0.1279,0.1178,0.1087,0.0943,0.0824,0.0774,0.074,0.069,0.0656,0.0639,0.0623,0.0606,0.0639,0.0623,0.0589,0.0589,0.0589,0.0589,0.0606,0.0623,0.0623,0.0623,0.0656,0.0656,0.0623,0.0623,0.0656,0.069,0.0757,1.0469,1.0441,1.0272,1.01,0.9775,0.9378,0.8903,0.8433,0.7949,0.7509,0.7166,0.6987,0.6712,0.644,0.6598,0.6593,0.6463,0.6571,0.6739,0.6906,0.7122,0.7311,0.7338,0.7568,0.7702,0.7756,0.7848,0.7802,0.7669,0.7542,0.7356,0.7195,0.7063,0.7125,0.7307,0.737,0.7503,0.7628,0.7732,0.7836,0.7946,0.8008,0.8111,0.8262,0.8332,0.8373,0.8373,0.8373,0.8291,0.807,0.8041,0.7987,0.7912,0.7899,0.7865,0.7842,0.8048,0.8363,0.8708,0.9014,0.9299,0.9496,0.9458,0.9309,0.9001,0.8666,0.8182,0.7649,0.7171,0.659,0.5885,0.5204,0.4685,0.4371,0.4276,0.4232,0.4104,0.388,0.359,0.3281,0.2948,0.262,0.2288,0.199,0.174,0.1445,0.1312,0.1223,0.1145,0.1019,0.0929,0.0858,0.0824,0.0808,0.0791,0.0774,0.0774,0.0774,0.0824,0.0824,0.074,0.0723,0.0707,0.0723,0.0723,0.074,0.0774,0.0791,0.0824,0.0824,0.0824,0.0824,0.0841,0.0875,0.0943,0.9475,0.9522,0.9671,0.965,0.9494,0.9283,0.9017,0.8672,0.8275,0.7836,0.7434,0.7171,0.6901,0.6647,0.6701,0.668,0.6625,0.6701,0.6793,0.6933,0.7311,0.744,0.7494,0.7649,0.7756,0.7842,0.7875,0.7865,0.7788,0.761,0.7462,0.7395,0.7168,0.7091,0.723,0.7349,0.7454,0.7572,0.7725,0.7857,0.7912,0.7966,0.8021,0.8103,0.818,0.8291,0.8373,0.8394,0.8353,0.8291,0.818,0.8077,0.7987,0.7925,0.7891,0.7903,0.8062,0.8341,0.8693,0.9016,0.9324,0.9537,0.9484,0.9335,0.9159,0.8791,0.8329,0.7857,0.7343,0.6596,0.5624,0.4938,0.4547,0.4363,0.4298,0.4298,0.4232,0.4034,0.3766,0.3546,0.3189,0.2793,0.2462,0.2152,0.1845,0.1502,0.1344,0.1243,0.1168,0.1091,0.1048,0.0977,0.096,0.096,0.0943,0.096,0.0994,0.1009,0.106,0.1076,0.0992,0.0908,0.0924,0.0892,0.0824,0.0875,0.0994,0.1026,0.106,0.1043,0.1043,0.106,0.1076,0.1093,0.111,0.906,0.9214,0.9343,0.9438,0.9477,0.9368,0.9133,0.8877,0.8593,0.8168,0.7735,0.7461,0.7219,0.6896,0.6869,0.6869,0.6815,0.6864,0.6977,0.7117,0.7386,0.7515,0.7622,0.7729,0.7842,0.7901,0.7901,0.7901,0.784,0.7715,0.7553,0.7499,0.7254,0.7181,0.7209,0.7328,0.7433,0.753,0.7704,0.7836,0.7899,0.7933,0.7987,0.8,0.807,0.816,0.8193,0.8221,0.8221,0.8201,0.816,0.807,0.8021,0.7974,0.7933,0.7868,0.8062,0.8341,0.8663,0.9016,0.9299,0.9585,0.9536,0.9387,0.9185,0.887,0.8421,0.7904,0.733,0.6628,0.5444,0.4821,0.4498,0.4347,0.4298,0.4298,0.4254,0.4078,0.3858,0.3656,0.3278,0.2923,0.2615,0.2284,0.1974,0.165,0.1517,0.1408,0.1272,0.1217,0.1182,0.1145,0.1111,0.1094,0.1094,0.1145,0.1214,0.1263,0.1328,0.136,0.1326,0.1243,0.1157,0.1108,0.106,0.1179,0.1264,0.1279,0.1311,0.1343,0.136,0.1343,0.1343,0.1377,0.1377,0.8827,0.906,0.9156,0.9321,0.9508,0.9436,0.929,0.9061,0.8883,0.8487,0.8002,0.7809,0.7461,0.7192,0.7085,0.7031,0.7009,0.7063,0.7171,0.7284,0.7467,0.7595,0.7696,0.7815,0.7875,0.7901,0.7901,0.7901,0.7862,0.7767,0.7623,0.7544,0.7441,0.7356,0.7335,0.7446,0.7587,0.7666,0.7752,0.7836,0.7897,0.7888,0.7891,0.7966,0.7979,0.8028,0.8041,0.8041,0.8021,0.8008,0.8046,0.8076,0.8055,0.8042,0.8,0.7864,0.8217,0.8546,0.8816,0.9119,0.9405,0.9607,0.9588,0.9465,0.9211,0.8903,0.8421,0.7756,0.7104,0.6354,0.5401,0.4785,0.4457,0.4317,0.4298,0.4276,0.421,0.406,0.3836,0.37,0.3366,0.3012,0.2726,0.2435,0.2095,0.1813,0.168,0.1562,0.1432,0.1346,0.1346,0.1328,0.1328,0.131,0.131,0.1362,0.1447,0.1514,0.1577,0.1628,0.1642,0.1628,0.1527,0.1377,0.1345,0.1447,0.1531,0.1579,0.1611,0.1642,0.1676,0.1678,0.1659,0.1659,0.1642,0.8424,0.8429,0.898,0.9229,0.931,0.9486,0.9465,0.9316,0.9061,0.8718,0.8289,0.7883,0.7568,0.7306,0.7139,0.7085,0.7085,0.7171,0.7284,0.7365,0.7521,0.767,0.7729,0.7842,0.7901,0.7901,0.7901,0.7901,0.7868,0.7767,0.7702,0.766,0.7623,0.7589,0.7636,0.7825,0.7896,0.7859,0.7877,0.7903,0.7918,0.7815,0.7795,0.7884,0.7912,0.7925,0.7979,0.7979,0.7992,0.8023,0.8266,0.8353,0.8362,0.8348,0.8333,0.8357,0.8689,0.8941,0.9065,0.9351,0.9526,0.9607,0.9588,0.9465,0.9211,0.8903,0.8401,0.7565,0.6571,0.5655,0.5354,0.4699,0.4371,0.4276,0.4214,0.413,0.4082,0.3946,0.3788,0.3766,0.3413,0.3078,0.2837,0.2576,0.2269,0.2003,0.1863,0.1742,0.162,0.1562,0.1542,0.1542,0.154,0.154,0.154,0.1609,0.1694,0.1747,0.1811,0.1911,0.1945,0.1995,0.1914,0.1744,0.1644,0.1678,0.1761,0.1847,0.1895,0.1926,0.1961,0.1995,0.1959,0.1926,0.1909,0.8214,0.8357,0.8768,0.9046,0.9211,0.949,0.9536,0.9394,0.9185,0.887,0.8441,0.801,0.7643,0.7413,0.7192,0.7106,0.7139,0.7225,0.7338,0.7413,0.7589,0.7729,0.7788,0.7875,0.7901,0.7901,0.7901,0.7901,0.7895,0.7834,0.776,0.7696,0.7703,0.7663,0.7656,0.7771,0.7936,0.7947,0.7898,0.7853,0.7885,0.7724,0.7685,0.7753,0.7802,0.7836,0.7829,0.785,0.7939,0.8074,0.8238,0.8401,0.8572,0.8705,0.8712,0.8675,0.896,0.9182,0.9226,0.9446,0.9599,0.9581,0.9536,0.9413,0.9185,0.8844,0.8262,0.7295,0.6258,0.5325,0.5144,0.4548,0.425,0.417,0.4086,0.3998,0.395,0.3814,0.3792,0.377,0.3435,0.3148,0.2968,0.2712,0.2437,0.2229,0.2039,0.1921,0.1813,0.1792,0.1776,0.1809,0.1809,0.1826,0.1826,0.1876,0.1926,0.1978,0.2045,0.2128,0.2195,0.2228,0.2195,0.2092,0.2042,0.1978,0.2045,0.2147,0.2181,0.2195,0.2211,0.2228,0.2208,0.2192,0.2159,0.8133,0.834,0.8557,0.8844,0.9168,0.942,0.9537,0.9465,0.9263,0.8968,0.86,0.8143,0.7744,0.7488,0.7246,0.7106,0.7112,0.7279,0.7386,0.7488,0.7676,0.7815,0.7875,0.7901,0.7901,0.7901,0.7901,0.7901,0.7901,0.7904,0.7822,0.7797,0.7769,0.7747,0.774,0.7895,0.7902,0.7889,0.7809,0.7743,0.7702,0.7659,0.756,0.7636,0.7679,0.7744,0.7801,0.7924,0.8085,0.8283,0.8422,0.8531,0.8811,0.9112,0.9156,0.897,0.9131,0.9233,0.9336,0.946,0.9614,0.9614,0.9484,0.9335,0.9047,0.8626,0.7931,0.6951,0.5947,0.5231,0.4963,0.4445,0.4147,0.402,0.395,0.3836,0.3836,0.3766,0.3704,0.3593,0.3372,0.3239,0.3103,0.2932,0.2678,0.2534,0.2369,0.224,0.2139,0.2052,0.2045,0.2078,0.2111,0.2128,0.2145,0.2161,0.2195,0.2211,0.2261,0.2341,0.2391,0.2424,0.2391,0.2361,0.2377,0.2347,0.2397,0.2364,0.2344,0.2361,0.2408,0.2424,0.2358,0.2341,0.2325,0.8224,0.8078,0.839,0.8716,0.9026,0.9251,0.9514,0.9658,0.9328,0.9035,0.8718,0.8176,0.775,0.7467,0.7219,0.7106,0.7166,0.7327,0.7467,0.7542,0.7735,0.7875,0.7901,0.7901,0.7901,0.7901,0.7901,0.7901,0.7901,0.7901,0.7895,0.7882,0.799,0.8101,0.7964,0.8036,0.8299,0.8281,0.8112,0.7904,0.7695,0.7731,0.765,0.7624,0.7701,0.7858,0.7981,0.8147,0.8401,0.8596,0.8897,0.9051,0.9185,0.9402,0.9526,0.95,0.9522,0.9537,0.9522,0.9559,0.9588,0.9536,0.9432,0.9342,0.8949,0.8256,0.7536,0.6988,0.5937,0.5198,0.4848,0.4387,0.411,0.395,0.3814,0.3744,0.3722,0.3704,0.3663,0.3597,0.3442,0.3398,0.3328,0.3133,0.2922,0.2801,0.2682,0.2564,0.2437,0.2318,0.2245,0.2278,0.2328,0.2361,0.238,0.2397,0.2414,0.2427,0.246,0.251,0.2527,0.2543,0.261,0.2596,0.2616,0.2563,0.2497,0.246,0.2477,0.251,0.2543,0.2527,0.2494,0.2474,0.2474,0.8496,0.8232,0.8416,0.8586,0.8761,0.9119,0.9383,0.9456,0.9297,0.9028,0.8718,0.8176,0.7691,0.7327,0.7139,0.7106,0.7166,0.7386,0.7521,0.7574,0.7762,0.7901,0.7901,0.7901,0.7901,0.7901,0.7901,0.7901,0.7901,0.7901,0.7901,0.7928,0.7981,0.7957,0.7969,0.7996,0.7984,0.7958,0.7896,0.7849,0.7795,0.7815,0.7868,0.7895,0.7998,0.8093,0.8195,0.8275,0.8488,0.8656,0.887,0.903,0.9166,0.929,0.9387,0.9361,0.9361,0.9432,0.9555,0.951,0.9484,0.9439,0.9283,0.9054,0.8685,0.8017,0.7281,0.6754,0.593,0.5262,0.4734,0.4267,0.3995,0.3814,0.3726,0.3682,0.366,0.3619,0.36,0.3578,0.3534,0.3508,0.3442,0.3274,0.3127,0.3064,0.2935,0.2807,0.2648,0.2504,0.2443,0.2424,0.2494,0.2563,0.2563,0.258,0.2563,0.258,0.258,0.2613,0.2613,0.2646,0.2679,0.2679,0.2663,0.2613,0.256,0.256,0.2577,0.2613,0.2646,0.2613,0.2577,0.2593,0.2593,0.8761,0.8528,0.8495,0.8513,0.8629,0.9055,0.9283,0.9346,0.9266,0.9061,0.8718,0.8176,0.7589,0.7219,0.7139,0.7106,0.7106,0.7386,0.7494,0.7601,0.7762,0.7875,0.7901,0.7901,0.7901,0.7901,0.7901,0.7901,0.7901,0.7901,0.7901,0.7901,0.7869,0.7809,0.7723,0.7723,0.7723,0.7759,0.78,0.781,0.7822,0.7867,0.7976,0.8085,0.8208,0.8287,0.8372,0.8484,0.8619,0.878,0.8875,0.9027,0.9181,0.9216,0.923,0.923,0.923,0.9283,0.9387,0.9387,0.9368,0.929,0.9113,0.8824,0.8448,0.7857,0.7288,0.6754,0.5956,0.526,0.468,0.4222,0.3902,0.3748,0.3641,0.3622,0.36,0.36,0.36,0.3578,0.3578,0.3578,0.3512,0.3398,0.3319,0.3284,0.318,0.3033,0.286,0.2672,0.2597,0.255,0.2577,0.2646,0.2663,0.2663,0.2679,0.2696,0.2696,0.2696,0.2696,0.2679,0.2679,0.2679,0.2696,0.2663,0.2613,0.2663,0.2679,0.2679,0.2663,0.2679,0.2679,0.2679,0.2679,0.8952,0.8859,0.8528,0.8582,0.884,0.8967,0.9202,0.9402,0.9263,0.9079,0.8777,0.8111,0.7555,0.7272,0.7111,0.7101,0.7095,0.7386,0.7494,0.7601,0.7735,0.7875,0.7901,0.7901,0.7901,0.7901,0.7901,0.7901,0.7901,0.7901,0.7901,0.7901,0.7788,0.7729,0.7643,0.7542,0.7568,0.7643,0.7744,0.7794,0.7822,0.7854,0.7896,0.7876,0.8029,0.8248,0.8543,0.8728,0.887,0.9042,0.9028,0.9035,0.9093,0.9133,0.9133,0.9133,0.9133,0.9185,0.9211,0.9237,0.9211,0.9133,0.8956,0.8666,0.8395,0.7836,0.7299,0.6828,0.6071,0.5403,0.4838,0.433,0.395,0.3748,0.366,0.3619,0.3622,0.36,0.36,0.36,0.36,0.36,0.36,0.3486,0.3464,0.3429,0.3311,0.3158,0.2971,0.2788,0.2723,0.2673,0.2666,0.2679,0.2679,0.2696,0.2712,0.2729,0.2746,0.2746,0.2726,0.2729,0.2712,0.2712,0.2716,0.2696,0.2696,0.2729,0.2726,0.2696,0.2679,0.2679,0.2679,0.2679,0.2679,0.9168,0.8943,0.8692,0.8589,0.8603,0.8674,0.8875,0.913,0.9058,0.8772,0.8377,0.7812,0.7323,0.7011,0.6976,0.7021,0.7074,0.7357,0.7519,0.7649,0.7788,0.7901,0.7901,0.7901,0.7901,0.7901,0.7901,0.7901,0.7901,0.7901,0.7901,0.7875,0.7756,0.7649,0.7542,0.7408,0.7408,0.7542,0.7681,0.7744,0.803,0.8059,0.8081,0.8165,0.8306,0.8456,0.8611,0.8783,0.8896,0.8936,0.8956,0.8956,0.8982,0.8982,0.8982,0.8982,0.8989,0.8982,0.8982,0.9035,0.9035,0.8929,0.8718,0.8507,0.8342,0.7836,0.7365,0.6852,0.6243,0.5565,0.4976,0.4476,0.4074,0.381,0.3678,0.3663,0.3619,0.3622,0.36,0.36,0.36,0.36,0.36,0.3578,0.3578,0.3568,0.3429,0.3256,0.305,0.289,0.2805,0.2733,0.2716,0.2729,0.2729,0.2729,0.2749,0.2762,0.2792,0.2792,0.2792,0.2779,0.2766,0.2766,0.2766,0.2762,0.2779,0.2792,0.2792,0.2746,0.2712,0.2679,0.2679,0.2696,0.2712,0.9408,0.9136,0.8886,0.8663,0.8454,0.8545,0.8669,0.8814,0.8836,0.8487,0.7958,0.7617,0.7235,0.6883,0.6778,0.6946,0.7075,0.7315,0.7535,0.77,0.7815,0.7901,0.7901,0.7901,0.7901,0.7901,0.7901,0.7901,0.7901,0.7901,0.7901,0.7875,0.7756,0.7622,0.7488,0.7306,0.7279,0.744,0.7601,0.7708,0.8049,0.8103,0.8176,0.8277,0.8415,0.8541,0.862,0.8738,0.8798,0.8804,0.8804,0.8804,0.8804,0.8778,0.8778,0.8778,0.8778,0.8745,0.8771,0.8798,0.8824,0.8666,0.8507,0.8374,0.8209,0.7863,0.7441,0.7074,0.6424,0.5756,0.5189,0.473,0.4288,0.4027,0.3832,0.3748,0.3663,0.3619,0.36,0.36,0.36,0.36,0.36,0.36,0.36,0.3573,0.3457,0.3293,0.3104,0.2957,0.2843,0.2778,0.2732,0.2762,0.2779,0.2812,0.2841,0.2825,0.2854,0.2871,0.2854,0.2861,0.2845,0.2841,0.2841,0.2845,0.2878,0.294,0.2874,0.2812,0.2779,0.2775,0.2775,0.2792,0.2775,0.9675,0.9459,0.9136,0.8805,0.8553,0.8639,0.8635,0.8572,0.8591,0.8353,0.7888,0.762,0.7295,0.6996,0.6769,0.6881,0.7075,0.7257,0.7474,0.7715,0.7842,0.7901,0.7901,0.7901,0.7901,0.7901,0.7901,0.7901,0.7901,0.7901,0.7901,0.7875,0.7756,0.7622,0.7488,0.7365,0.7392,0.7515,0.7649,0.7783,0.7895,0.7955,0.8062,0.8215,0.8374,0.8501,0.86,0.8718,0.8778,0.8778,0.8778,0.8778,0.8778,0.8778,0.8778,0.8778,0.8659,0.86,0.86,0.86,0.8553,0.8448,0.8348,0.8248,0.8135,0.7883,0.7584,0.7284,0.6676,0.6085,0.5538,0.5038,0.4638,0.4272,0.4052,0.388,0.3796,0.3707,0.3685,0.3711,0.3644,0.36,0.36,0.36,0.36,0.3556,0.3475,0.3341,0.317,0.307,0.2957,0.2853,0.2812,0.2878,0.2907,0.2924,0.2937,0.292,0.297,0.3035,0.3019,0.299,0.297,0.2937,0.297,0.3006,0.306,0.3093,0.3109,0.3109,0.294,0.2904,0.2887,0.2904,0.2904,0.9971,0.9675,0.9328,0.9068,0.881,0.8596,0.8497,0.8526,0.8487,0.8252,0.7823,0.7583,0.7157,0.6785,0.6723,0.6819,0.7034,0.7242,0.7482,0.7812,0.7869,0.7901,0.7901,0.7901,0.7901,0.7901,0.7901,0.7901,0.7901,0.7901,0.7901,0.7875,0.7788,0.7649,0.7515,0.744,0.7521,0.7616,0.7696,0.7756,0.7875,0.7934,0.8008,0.8189,0.8321,0.8468,0.8573,0.8718,0.8778,0.8778,0.8778,0.8778,0.8752,0.8718,0.8659,0.8633,0.8547,0.8421,0.8368,0.8348,0.8368,0.8315,0.8268,0.8195,0.8168,0.7889,0.7702,0.749,0.6964,0.6432,0.6003,0.5447,0.4993,0.4543,0.4294,0.4126,0.4016,0.3884,0.384,0.384,0.3796,0.3729,0.3707,0.3707,0.3685,0.3689,0.3626,0.3485,0.3326,0.3218,0.3121,0.2995,0.2924,0.299,0.3056,0.3122,0.3171,0.3175,0.3253,0.3352,0.3303,0.32,0.3187,0.3192,0.3187,0.3204,0.3303,0.3401,0.3471,0.3438,0.3335,0.3187,0.3122,0.3122,0.3109,1.0186,0.9941,0.9596,0.9297,0.9047,0.8631,0.8396,0.8336,0.8298,0.8032,0.7641,0.7453,0.7089,0.6681,0.6586,0.6737,0.6943,0.7168,0.7424,0.7778,0.7877,0.7889,0.7901,0.7901,0.7901,0.7901,0.7901,0.7901,0.7901,0.7901,0.7901,0.7875,0.7815,0.7756,0.7655,0.7628,0.7595,0.7696,0.7756,0.7815,0.7875,0.7928,0.7981,0.8168,0.8321,0.8468,0.858,0.8692,0.8778,0.8778,0.8752,0.8718,0.8685,0.8606,0.8547,0.8494,0.8395,0.8268,0.8141,0.8115,0.8135,0.8195,0.8135,0.8088,0.8088,0.7895,0.7783,0.7553,0.7234,0.6881,0.6448,0.5893,0.5425,0.5,0.4657,0.4512,0.4298,0.4184,0.4034,0.4034,0.3994,0.3902,0.3836,0.3814,0.3814,0.3818,0.3807,0.3675,0.3539,0.3435,0.3369,0.3257,0.3175,0.3237,0.3323,0.3393,0.3426,0.3447,0.3525,0.3618,0.3553,0.3455,0.3459,0.3442,0.3459,0.3504,0.363,0.3733,0.3798,0.3831,0.3793,0.363,0.3426,0.3377,0.3372,1.037,1.0264,0.9891,0.9565,0.9268,0.8765,0.8345,0.8044,0.7955,0.7741,0.7412,0.7314,0.7046,0.6742,0.6593,0.6652,0.6843,0.7097,0.7364,0.7599,0.782,0.7886,0.7901,0.7901,0.7901,0.7901,0.7901,0.7901,0.7901,0.7901,0.7901,0.7901,0.7875,0.7842,0.7821,0.7762,0.7723,0.7756,0.7815,0.7875,0.7901,0.7928,0.8062,0.8221,0.8374,0.8501,0.8633,0.8718,0.8752,0.8745,0.8685,0.8626,0.8547,0.8468,0.8421,0.8342,0.8242,0.8088,0.7981,0.7955,0.7955,0.8008,0.7955,0.7901,0.7901,0.7895,0.7842,0.7709,0.7474,0.7261,0.6954,0.6487,0.6017,0.5586,0.5143,0.4914,0.4679,0.4491,0.432,0.4258,0.4174,0.4104,0.4038,0.4016,0.4056,0.4122,0.4158,0.4207,0.4049,0.3723,0.3652,0.3609,0.3556,0.3529,0.3602,0.3684,0.3749,0.3782,0.377,0.3814,0.3754,0.3754,0.3787,0.3782,0.3737,0.3803,0.3945,0.4058,0.4129,0.4145,0.4123,0.4005,0.3798,0.3749,0.3733,1.0573,1.0332,1.0108,0.9833,0.9534,0.9004,0.8537,0.8167,0.7981,0.7795,0.7615,0.7419,0.7146,0.6857,0.6708,0.6706,0.6857,0.7085,0.7346,0.7582,0.781,0.7859,0.7901,0.7901,0.7901,0.7901,0.7901,0.7901,0.7901,0.7901,0.7901,0.7901,0.7901,0.7901,0.7901,0.7875,0.7842,0.7842,0.7875,0.7901,0.7955,0.8008,0.8168,0.8321,0.8454,0.858,0.8692,0.8659,0.8659,0.8633,0.8527,0.8441,0.8448,0.8321,0.8221,0.8055,0.8002,0.7955,0.7901,0.7901,0.7901,0.7901,0.7901,0.7901,0.7901,0.7901,0.7875,0.7762,0.7694,0.7495,0.7301,0.6923,0.6479,0.6066,0.5649,0.5309,0.5086,0.4884,0.4714,0.4561,0.4499,0.4394,0.4324,0.4328,0.439,0.4451,0.4543,0.4617,0.4514,0.4174,0.3991,0.3962,0.3872,0.3845,0.3923,0.4005,0.407,0.4134,0.4091,0.4058,0.4091,0.4107,0.4123,0.4107,0.4064,0.4123,0.4269,0.4339,0.4355,0.4393,0.4372,0.4285,0.4183,0.4107,0.4058,1.0697,1.0525,1.0273,0.9951,0.9506,0.9073,0.8667,0.8311,0.8049,0.785,0.767,0.7475,0.7245,0.6956,0.6779,0.669,0.6698,0.703,0.7291,0.7443,0.7766,0.7853,0.7901,0.7901,0.7901,0.7901,0.7901,0.7901,0.7901,0.7901,0.7901,0.7901,0.7901,0.7901,0.7901,0.7901,0.7901,0.7901,0.7901,0.7901,0.7981,0.8088,0.8248,0.8401,0.8553,0.8633,0.8692,0.86,0.8573,0.8521,0.8395,0.8321,0.8295,0.8168,0.8062,0.7928,0.7928,0.7928,0.7901,0.7901,0.7901,0.7901,0.7901,0.7901,0.7901,0.7901,0.7901,0.7857,0.7818,0.7723,0.7541,0.7306,0.6906,0.653,0.6136,0.5754,0.5516,0.5305,0.5133,0.4954,0.4849,0.4745,0.4701,0.4701,0.4745,0.4845,0.4927,0.5026,0.4889,0.4584,0.4423,0.4368,0.4258,0.4156,0.4215,0.4264,0.4318,0.4334,0.4323,0.4323,0.4382,0.4388,0.4339,0.4355,0.4372,0.4436,0.4463,0.4495,0.4533,0.4565,0.4587,0.4533,0.4447,0.4366,0.4355,1.0793,1.0765,1.0428,0.9942,0.9348,0.9065,0.8802,0.85,0.8193,0.7904,0.7712,0.7524,0.7259,0.7034,0.6851,0.666,0.6727,0.698,0.7212,0.7249,0.7699,0.7895,0.7901,0.7901,0.7901,0.7901,0.7901,0.7901,0.7901,0.7901,0.7901,0.7901,0.7901,0.7901,0.7901,0.7901,0.7901,0.7901,0.7907,0.7934,0.7981,0.8115,0.8268,0.8421,0.8521,0.86,0.86,0.8547,0.8521,0.8395,0.8268,0.8162,0.8115,0.8035,0.7928,0.7901,0.7901,0.7901,0.7901,0.7901,0.7901,0.7901,0.7901,0.7901,0.7901,0.7901,0.7901,0.7901,0.7863,0.783,0.7702,0.7581,0.7281,0.6933,0.6564,0.6195,0.589,0.5645,0.5431,0.5296,0.5219,0.5137,0.5116,0.5116,0.5154,0.5236,0.5296,0.541,0.5329,0.5029,0.486,0.4778,0.4618,0.4482,0.4415,0.4447,0.4501,0.4523,0.454,0.4523,0.4549,0.4555,0.4544,0.4555,0.4565,0.4576,0.4608,0.463,0.4668,0.47,0.4732,0.4764,0.4716,0.4603,0.4565,1.0841,1.0784,1.0438,1.0049,0.9675,0.9328,0.9056,0.8781,0.8455,0.8152,0.7925,0.7614,0.7349,0.716,0.6964,0.6774,0.6693,0.7019,0.7205,0.7352,0.7681,0.7895,0.7901,0.7901,0.7901,0.7901,0.7901,0.7901,0.7901,0.7901,0.7901,0.7901,0.7901,0.7901,0.7901,0.7901,0.7901,0.7901,0.7901,0.8008,0.8141,0.8242,0.8395,0.8501,0.86,0.86,0.8521,0.8395,0.8321,0.8215,0.8062,0.7981,0.7981,0.7928,0.7901,0.7901,0.7901,0.7901,0.7901,0.7901,0.7901,0.7901,0.7901,0.7901,0.7901,0.7901,0.7901,0.7901,0.7901,0.7901,0.7883,0.7767,0.7654,0.7315,0.6977,0.6602,0.6231,0.5974,0.5717,0.5626,0.5566,0.5528,0.5507,0.5528,0.5588,0.5626,0.5669,0.5717,0.5769,0.5601,0.5305,0.5181,0.497,0.4836,0.4726,0.4718,0.4816,0.4814,0.4814,0.4783,0.4735,0.479,0.4844,0.4763,0.4748,0.4798,0.4805,0.476,0.4792,0.4802,0.4796,0.4796,0.4814,0.474,0.4744,1.0572,1.0518,1.0416,1.0186,0.9853,0.9487,0.9148,0.8911,0.8565,0.8311,0.8131,0.778,0.7489,0.7307,0.7105,0.6937,0.6797,0.7132,0.7247,0.7395,0.7629,0.7835,0.7901,0.7901,0.7901,0.7901,0.7901,0.7901,0.7901,0.7901,0.7901,0.7901,0.7901,0.7901,0.7901,0.7901,0.7901,0.7901,0.7901,0.8035,0.8248,0.8374,0.8448,0.8547,0.86,0.8573,0.8448,0.8295,0.8168,0.8088,0.7955,0.7928,0.7928,0.7901,0.7901,0.7901,0.7901,0.7901,0.7901,0.7901,0.7901,0.7901,0.7901,0.7901,0.7901,0.7901,0.7901,0.7901,0.7901,0.7901,0.7901,0.7841,0.7724,0.7482,0.7145,0.6795,0.6394,0.6032,0.589,0.5847,0.5809,0.5788,0.5788,0.5766,0.5825,0.5847,0.5906,0.5964,0.6035,0.6058,0.5783,0.5585,0.5392,0.5275,0.5216,0.5186,0.5203,0.5172,0.5098,0.5159,0.5173,0.5166,0.5153,0.5105,0.5075,0.5093,0.5081,0.5013,0.4851,0.482,0.4808,0.4796,0.4839,0.4934,0.496,1.0252,1.029,1.0384,1.0254,0.998,0.9567,0.9257,0.8984,0.8639,0.8435,0.8332,0.7968,0.7704,0.7468,0.7259,0.7105,0.7067,0.7204,0.7273,0.7383,0.7653,0.782,0.7883,0.7901,0.7901,0.7901,0.7901,0.7901,0.7901,0.7901,0.7901,0.7901,0.7901,0.7901,0.7901,0.7901,0.7901,0.7901,0.7955,0.8088,0.8242,0.8395,0.8474,0.8547,0.8573,0.8501,0.8368,0.8215,0.8062,0.7981,0.7934,0.7901,0.7901,0.7901,0.7901,0.7901,0.7901,0.7901,0.7901,0.7901,0.7901,0.7901,0.7901,0.7901,0.7901,0.7901,0.7901,0.7928,0.7928,0.7901,0.7901,0.7871,0.7774,0.7624,0.7303,0.6924,0.6505,0.6143,0.6089,0.6046,0.6046,0.6046,0.6046,0.6046,0.6046,0.6062,0.6105,0.6163,0.6215,0.6228,0.6109,0.5978,0.5857,0.574,0.5602,0.5541,0.5487,0.5438,0.5377,0.5505,0.5566,0.5432,0.5396,0.5468,0.5468,0.5402,0.5341,0.5268,0.511,0.4976,0.5032,0.5099,0.5099,0.5189,0.5231,1.0399,1.068,1.0591,1.039,1.0069,0.9813,0.9506,0.9165,0.8911,0.8667,0.8414,0.8209,0.7961,0.767,0.7607,0.7433,0.713,0.726,0.7287,0.7358,0.7602,0.7744,0.7868,0.7901,0.7901,0.7901,0.7901,0.7901,0.7901,0.7901,0.7901,0.7901,0.7901,0.7901,0.7901,0.7901,0.7901,0.7928,0.7955,0.8055,0.8215,0.8374,0.8474,0.8527,0.8501,0.8368,0.8242,0.8055,0.7955,0.7901,0.7901,0.7901,0.7901,0.7901,0.7901,0.7901,0.7901,0.7901,0.7901,0.7901,0.7901,0.7901,0.7901,0.7934,0.7928,0.7955,0.7955,0.7955,0.7955,0.7928,0.7928,0.7901,0.782,0.7659,0.7381,0.6929,0.6487,0.6351,0.6282,0.6282,0.6282,0.6282,0.6282,0.6282,0.6282,0.6282,0.6282,0.634,0.6319,0.6355,0.6386,0.6301,0.6198,0.5954,0.5699,0.5705,0.5669,0.5639,0.5651,0.5754,0.5754,0.5608,0.5608,0.5735,0.5705,0.5608,0.5553,0.5548,0.5493,0.5401,0.5438,0.5487,0.545,0.5486,0.5572]}]]